GFSMA_925_thetae_000.txt.gz
Theta_e
331 333 329 328 324 317 315 313 310 308 306 303 302 301 301 301 303 307 306 308 308 310 320 318 318 318 319 322 323 323 323 322 322 322 322 322 322 325 326 327 330 331 331
332 330 322 316 313 311 309 306 302 301 300 300 300 300 300 300 303 300 304 303 304 304 310 311 311 312 315 316 317 317 318 317 318 318 318 319 321 319 320 324 325 326 326
328 324 316 311 307 304 301 300 299 299 299 299 299 299 298 299 298 300 300 300 300 300 301 303 306 308 310 311 313 313 313 313 314 315 316 317 316 316 318 321 322 323 324
320 315 309 304 302 301 301 300 298 298 297 296 297 297 296 300 298 298 299 298 298 298 298 297 296 299 304 306 307 308 309 310 312 314 314 313 313 315 315 316 317 317 318
312 306 304 303 302 301 299 297 296 294 295 294 295 296 296 300 299 298 297 297 296 297 297 296 295 294 295 301 302 303 306 306 306 306 308 309 309 310 311 311 312 313 313
304 306 305 303 300 298 296 295 294 293 293 293 294 295 297 301 300 299 297 296 295 296 295 294 294 293 294 296 298 299 301 301 303 306 307 306 307 309 309 310 310 311 311
305 305 304 301 298 296 294 293 293 292 292 293 293 294 297 297 297 298 294 295 295 295 293 293 292 291 291 294 294 296 297 298 302 305 304 305 306 307 307 307 308 308 309
304 304 301 299 296 294 293 292 292 291 291 291 291 292 292 293 294 294 294 294 293 294 293 292 291 290 292 293 293 293 294 296 301 302 303 304 305 305 305 305 305 306 306
302 301 299 296 295 293 292 291 290 290 291 290 292 290 289 290 291 293 293 293 292 291 291 290 289 290 291 291 290 291 291 295 297 299 301 303 302 303 302 303 303 304 304
299 298 296 295 293 292 291 290 290 290 289 289 290 289 289 290 289 289 291 289 290 288 289 288 289 289 289 290 290 290 292 294 296 297 298 299 300 300 300 301 302 303 303
296 295 295 293 292 291 290 290 289 289 289 288 288 287 288 288 289 287 286 287 287 287 287 287 287 288 289 289 290 291 292 293 294 295 296 297 297 298 299 300 300 301 301
295 294 293 292 291 290 289 289 289 289 289 288 287 287 287 287 287 286 285 286 286 286 286 286 287 287 289 290 290 290 292 292 292 293 294 294 295 296 297 298 298 298 299
294 293 292 291 290 289 289 289 289 289 288 287 287 287 286 286 285 286 286 285 285 285 286 286 287 287 288 288 289 289 290 290 290 291 292 293 293 294 294 295 295 296 296
293 292 291 290 289 288 288 289 289 288 287 287 287 286 286 286 286 286 285 284 284 284 285 286 286 287 288 288 288 289 289 288 288 289 290 291 291 292 292 292 292 293 294
292 291 290 289 288 288 289 289 288 287 287 287 287 286 286 286 286 285 285 284 284 284 285 286 286 286 287 287 287 288 288 288 288 288 289 289 290 290 289 290 290 290 291
291 290 289 288 288 288 288 288 287 287 287 287 287 286 286 286 286 285 284 284 284 284 285 285 286 286 287 287 287 287 287 287 287 287 288 288 287 287 287 288 288 289 290
290 289 288 288 288 288 288 287 286 286 286 287 286 286 286 286 286 285 285 284 284 284 284 285 285 286 286 285 285 286 286 286 286 287 286 285 285 286 287 287 288 289 291
289 288 288 288 288 288 287 286 286 286 287 286 286 285 285 285 285 285 285 284 284 285 284 284 286 285 285 285 286 286 286 286 286 284 284 284 285 285 286 287 288 288 289
288 288 288 288 287 287 286 286 287 287 286 285 285 284 284 284 284 284 284 284 284 285 285 285 285 285 285 286 285 285 285 284 283 283 283 283 283 284 285 286 286 287 287
288 288 288 287 286 286 285 286 287 286 286 285 284 284 283 284 284 284 284 285 285 284 284 284 285 286 286 285 284 283 282 282 282 282 283 283 283 283 283 284 284 285 285
288 287 287 286 286 285 284 286 287 286 286 284 283 283 283 283 284 284 285 284 284 285 285 286 286 285 284 283 282 282 282 282 283 282 282 282 282 282 282 282 282 283 283
287 286 286 285 285 284 284 286 286 286 285 284 283 283 283 283 283 284 284 285 286 287 285 284 284 283 282 281 281 282 283 283 282 282 282 282 282 282 282 281 281 283 284
286 285 285 284 284 283 284 285 285 285 284 284 284 284 284 284 284 284 284 285 285 284 283 283 282 281 281 282 283 283 282 282 282 282 282 282 281 281 281 281 281 282 283
285 285 284 283 283 283 283 284 285 285 284 284 284 284 284 284 284 284 285 285 283 282 281 281 281 282 283 282 282 282 282 282 281 281 280 281 280 280 280 280 281 282 283
284 284 283 283 282 282 282 283 284 284 284 284 284 285 284 284 284 285 285 283 282 281 281 282 283 281 281 281 281 282 281 280 280 280 280 280 280 280 280 281 281 282 283
283 283 283 282 282 282 281 283 284 284 284 284 284 283 283 283 284 285 283 282 280 280 281 281 279 279 279 279 280 280 280 280 280 280 280 280 280 281 281 281 281 281 281

GFSMA_925_thetae_003.txt.gz
Theta_e
332 333 328 325 319 316 314 311 307 303 301 300 300 300 300 300 303 304 305 307 307 315 316 317 316 317 321 321 321 322 321 322 322 322 323 324 323 323 324 326 327 329 331
332 328 322 316 312 309 304 301 300 299 299 299 298 298 298 299 300 301 303 303 302 303 308 310 311 314 314 316 318 317 317 317 317 317 318 319 319 319 319 321 323 325 326
330 323 318 311 304 301 300 300 298 297 297 297 297 297 296 298 298 299 300 300 299 300 300 301 304 306 308 310 311 312 313 313 315 316 318 317 316 317 318 320 320 320 321
323 316 310 303 302 301 300 298 296 295 295 296 297 296 295 298 297 298 298 297 297 297 297 296 295 296 301 303 306 307 308 309 309 309 310 311 313 313 313 314 315 315 316
316 308 304 303 301 300 298 296 294 293 294 294 295 295 295 298 297 296 296 296 296 296 296 295 294 293 293 298 301 302 303 305 305 306 308 310 309 309 310 311 312 312 313
305 305 305 302 300 299 297 295 293 292 292 292 293 294 298 300 299 299 297 294 295 295 294 293 293 292 292 292 297 298 299 301 302 304 307 307 307 308 309 310 310 310 311
305 306 304 301 299 298 294 293 293 292 291 291 293 294 295 295 297 297 294 294 293 293 293 293 292 292 292 292 292 294 296 297 299 301 305 305 306 307 307 308 308 308 309
304 304 302 299 297 295 293 292 292 291 291 291 291 293 296 295 295 293 294 293 292 292 292 291 291 291 291 292 291 292 293 294 296 299 302 303 304 306 306 306 306 306 306
302 302 299 298 295 293 292 291 290 290 291 290 290 292 294 294 291 292 292 293 291 291 290 290 290 290 290 290 290 290 291 293 295 298 300 301 302 303 303 304 304 304 305
300 299 297 295 293 292 291 290 289 289 290 290 290 289 289 290 291 292 291 290 290 289 289 289 289 289 289 289 289 290 291 295 295 297 299 300 300 301 301 302 302 302 303
297 296 294 293 292 291 290 289 289 289 289 288 288 288 288 288 289 289 290 290 289 289 288 288 288 288 288 289 290 291 292 292 293 295 297 297 298 299 299 300 300 301 302
294 293 292 292 291 290 289 289 289 289 288 287 287 286 287 288 288 287 289 289 288 288 287 287 287 288 288 289 289 289 290 291 292 293 295 295 296 297 297 298 299 299 300
293 292 291 291 290 289 289 289 289 288 287 287 286 286 286 286 286 287 287 288 288 287 287 287 287 287 288 288 287 289 289 290 290 291 292 293 293 294 294 295 295 297 297
293 292 291 290 289 288 289 289 289 288 287 286 286 286 286 286 286 286 286 286 287 288 287 287 287 287 287 287 287 287 288 288 288 289 290 290 290 290 291 292 293 293 293
292 291 290 289 288 288 289 289 288 287 287 286 286 286 286 286 286 286 286 285 285 287 287 286 287 286 286 286 287 287 287 287 287 288 287 288 288 290 290 290 289 290 290
291 290 289 288 288 289 289 288 287 286 286 286 286 286 285 285 285 285 285 285 285 285 287 286 286 286 286 286 286 286 286 287 287 287 287 287 288 288 288 288 288 289 289
290 289 288 288 289 289 288 287 287 286 286 286 286 285 285 285 285 285 285 285 285 285 287 286 286 286 286 286 286 286 287 287 287 286 286 286 286 286 287 287 288 288 288
289 288 288 289 289 288 287 286 286 286 286 285 285 285 284 284 284 284 284 284 284 285 285 286 285 286 286 286 286 287 286 285 285 285 284 285 285 286 286 286 287 287 288
288 288 289 289 288 287 286 286 286 286 286 285 285 284 283 283 283 283 284 284 284 285 285 285 285 285 286 286 286 285 284 283 283 283 283 284 284 285 285 286 286 287 287
288 288 288 287 287 287 286 285 286 286 286 285 284 283 283 283 283 284 284 284 285 284 285 285 286 286 285 285 284 283 283 283 283 283 283 283 284 284 284 284 284 285 285
288 287 287 286 286 286 285 286 286 286 285 285 284 283 283 284 284 285 285 285 285 285 286 287 286 285 284 283 283 283 283 283 284 283 283 283 283 283 283 283 283 283 283
287 286 286 286 285 284 284 286 286 285 285 284 284 284 284 284 284 284 284 284 285 287 286 285 284 284 283 282 283 283 283 283 284 283 283 283 283 283 282 282 282 283 284
286 285 285 285 284 283 284 285 285 285 284 284 284 284 284 284 284 283 284 285 285 284 284 283 282 282 282 283 283 283 283 283 283 282 282 282 282 282 282 282 282 282 283
285 284 284 283 282 282 283 284 284 284 284 284 284 284 284 284 283 284 285 285 284 283 282 282 282 283 284 283 282 282 282 282 282 281 281 283 281 282 281 281 282 282 283
284 284 283 282 282 282 282 283 284 284 284 284 284 284 284 284 283 284 285 283 282 282 281 282 283 282 281 281 281 281 281 281 282 281 281 281 281 281 281 282 282 283 283
283 282 282 281 281 281 281 282 283 284 284 284 284 284 283 283 283 284 283 282 281 281 282 282 280 279 279 279 280 280 280 280 280 281 281 281 281 282 283 282 283 282 283

GFSMA_925_thetae_006.txt.gz
Theta_e
333 329 324 325 316 313 311 309 306 304 303 302 302 302 303 303 304 305 308 305 311 314 315 316 317 317 317 319 320 319 319 320 320 319 320 321 322 322 322 322 324 326 328
331 331 326 320 310 307 303 303 302 302 301 301 301 300 301 302 302 303 305 305 301 303 308 309 309 310 311 313 314 314 315 315 316 317 319 320 319 318 319 320 322 323 324
330 327 319 310 305 303 302 302 301 301 300 300 300 300 300 301 301 302 303 302 302 300 299 300 301 303 304 306 308 309 309 310 311 311 312 313 316 316 316 316 318 319 319
329 322 312 304 303 302 301 300 299 300 300 300 300 300 300 300 300 300 300 300 300 300 299 296 295 294 295 299 302 304 305 305 307 307 308 309 311 312 312 312 313 314 314
323 312 305 303 301 300 299 298 298 298 298 298 298 298 300 301 300 299 299 299 299 298 298 297 295 295 294 295 300 301 302 303 303 304 305 307 310 311 310 310 311 312 313
310 305 303 301 300 300 298 298 298 297 296 296 297 298 301 303 300 301 300 298 297 296 297 296 295 295 294 295 297 298 299 300 301 302 303 305 309 308 308 309 310 310 311
304 304 302 300 300 299 297 297 297 296 296 295 297 299 299 298 302 300 297 297 296 296 295 295 295 294 294 294 294 295 297 297 299 299 301 303 306 306 307 308 309 309 309
304 304 302 300 299 298 297 296 296 296 295 294 295 297 300 300 299 297 297 296 295 294 294 293 294 293 293 293 293 293 294 295 297 298 300 302 303 304 305 306 307 308 307
301 302 301 299 298 297 296 295 294 294 295 294 293 295 298 299 296 297 296 296 294 294 293 293 292 292 292 292 292 292 293 294 296 298 300 301 302 303 304 304 304 305 305
299 299 298 297 297 295 295 293 293 293 293 294 294 292 292 293 295 297 296 295 293 293 293 292 292 291 291 291 291 291 292 293 294 295 297 299 301 302 302 302 303 304 304
297 296 296 296 295 294 293 293 292 292 292 292 292 292 292 292 292 294 295 295 293 293 292 291 290 291 290 290 290 291 290 291 292 294 296 297 298 299 300 300 300 301 303
295 294 294 294 293 293 292 292 292 291 291 291 291 290 291 292 292 292 293 293 293 292 291 290 290 290 290 290 290 289 289 290 291 292 293 294 295 296 297 297 298 298 299
295 293 293 293 293 292 291 291 291 291 291 290 290 290 290 290 290 290 290 292 292 291 290 290 290 289 289 289 288 288 289 289 289 290 291 292 293 293 294 294 294 294 295
295 293 292 292 291 291 291 291 291 290 290 290 290 290 289 290 289 289 289 289 291 291 290 290 289 289 288 288 288 288 288 288 288 289 290 290 290 290 290 290 291 292 293
293 292 291 291 290 290 290 290 290 290 289 289 290 289 289 289 288 288 288 288 288 289 289 289 289 288 288 288 287 287 288 288 288 288 288 289 289 289 289 289 290 290 291
292 291 291 290 290 290 290 289 289 289 289 289 289 289 288 288 288 287 287 287 287 287 289 288 288 287 287 287 287 287 287 288 287 288 288 288 288 288 288 288 289 289 289
291 291 290 290 290 290 289 289 289 289 289 289 288 288 287 287 287 287 286 286 286 287 288 287 287 287 287 287 287 287 287 287 287 286 286 286 286 287 287 288 288 288 288
290 290 290 290 289 288 288 288 289 289 289 288 288 287 287 286 285 285 286 286 286 286 286 287 287 286 286 287 287 287 286 286 285 285 285 285 286 286 286 287 287 288 288
289 289 289 289 288 287 287 287 288 288 288 288 287 286 285 285 285 285 285 285 286 286 286 287 287 287 288 287 287 286 285 284 285 285 285 285 285 286 286 286 287 287 287
289 289 288 288 287 287 286 287 288 288 288 287 286 286 285 285 285 285 286 286 286 286 286 286 287 288 287 286 285 285 285 284 285 285 285 285 285 285 285 285 285 286 286
288 288 287 287 286 286 286 287 288 288 287 287 286 286 285 285 285 285 286 285 285 285 286 287 288 287 286 286 285 284 285 285 285 284 284 285 284 284 284 285 285 285 285
287 287 286 286 286 285 284 286 287 287 287 286 286 285 285 285 285 285 285 285 285 286 287 287 286 285 284 284 284 285 285 285 286 284 284 284 284 284 284 284 284 284 285
287 286 286 285 285 285 284 285 286 286 286 285 285 285 285 285 285 284 284 285 285 286 285 284 284 283 284 284 284 285 284 284 284 283 284 284 284 284 284 284 284 284 285
286 285 285 284 284 284 282 284 285 285 285 285 285 285 285 285 284 284 285 286 285 284 284 283 283 283 284 284 283 283 283 283 283 283 283 285 283 284 284 283 284 285 285
285 285 284 284 283 284 282 283 284 285 285 285 285 285 285 284 284 284 285 285 284 283 283 283 284 284 283 282 282 282 282 283 284 282 282 283 283 283 283 284 285 285 285
284 284 283 283 282 283 282 283 284 284 285 285 285 285 284 285 284 285 284 283 283 282 282 284 283 281 281 281 282 282 282 282 282 282 282 282 282 282 284 284 285 284 285

GFSMA_925_thetae_009.txt.gz
Theta_e
331 332 328 324 321 317 314 311 307 306 306 304 304 303 304 304 305 306 309 306 310 313 314 314 314 314 315 316 316 316 316 317 317 318 320 321 321 320 321 322 322 324 326
332 325 321 318 314 310 307 306 305 305 304 303 302 302 303 303 303 305 307 306 302 303 306 307 307 307 307 308 309 310 311 311 312 313 313 314 316 318 318 318 319 321 321
326 320 321 315 309 306 306 304 303 303 303 302 302 302 302 302 302 303 304 304 304 302 299 298 298 299 300 303 304 305 306 307 307 309 309 309 311 312 313 315 315 316 317
321 321 313 310 307 305 304 303 301 302 302 301 301 300 301 301 302 302 302 302 301 301 301 299 296 295 297 299 303 304 305 305 305 306 306 307 308 310 313 313 312 312 313
327 324 313 307 305 303 303 302 301 300 300 299 299 299 302 302 302 301 301 301 300 299 299 298 297 296 296 298 300 301 303 303 303 303 304 305 306 307 311 311 311 311 312
320 310 307 305 304 303 302 302 301 300 298 297 299 300 302 303 302 302 303 299 299 298 298 297 296 296 296 296 297 298 300 301 301 302 303 303 304 305 308 309 309 310 311
310 307 305 304 304 303 301 301 301 299 298 297 299 301 301 300 303 304 299 299 298 297 296 296 295 295 295 295 295 296 297 298 300 301 302 303 304 304 306 307 307 308 309
307 305 304 303 302 301 301 300 299 299 298 296 297 300 303 302 300 299 299 298 297 296 296 295 295 294 294 293 293 294 295 296 297 299 300 302 303 304 305 306 306 307 307
304 304 303 302 302 301 300 298 297 297 297 297 295 297 300 302 297 299 298 297 297 296 295 295 294 294 293 292 292 292 293 294 295 296 298 299 301 302 303 304 305 306 306
302 302 301 301 300 299 298 296 296 295 296 296 296 295 294 295 296 297 298 297 296 295 295 294 293 292 292 292 292 292 293 292 293 295 297 298 299 300 301 302 303 303 304
301 300 300 299 298 298 297 296 295 295 294 295 295 294 294 295 295 295 296 297 295 295 294 294 293 292 292 291 291 291 292 291 292 293 294 296 297 298 299 299 300 301 301
299 299 298 298 297 296 296 295 294 294 294 293 293 293 293 294 294 294 295 294 294 294 293 292 292 291 291 290 290 290 290 290 291 292 293 294 295 296 296 297 297 298 298
298 297 297 296 296 295 294 294 294 294 293 293 292 292 292 292 292 292 292 293 293 292 292 292 291 291 290 290 289 289 289 289 290 291 292 293 293 293 293 293 293 294 294
298 297 296 296 295 294 293 293 293 293 292 292 292 292 292 292 292 291 291 291 291 292 291 291 290 290 290 289 289 289 288 288 289 290 290 291 291 291 291 291 292 292 292
297 296 295 294 294 293 293 293 293 292 291 292 292 292 291 291 291 290 290 290 290 290 290 290 290 289 289 288 288 288 288 288 289 289 289 290 290 290 290 290 290 290 291
296 295 294 294 293 293 292 292 292 291 291 292 291 291 290 290 290 289 289 289 289 289 289 289 289 288 288 288 287 288 288 288 288 288 288 288 289 288 288 288 289 289 290
295 294 293 293 293 292 292 291 291 291 291 291 291 290 290 289 288 288 287 287 287 287 288 288 288 288 287 287 287 288 288 287 287 287 287 287 287 287 288 288 289 289 289
294 293 292 292 292 291 290 290 291 291 291 290 290 289 289 288 287 286 287 287 287 287 287 288 288 287 288 287 288 288 287 287 286 285 286 286 287 287 287 288 288 288 289
292 292 292 292 291 290 290 289 289 290 290 290 289 289 288 287 286 286 286 286 287 287 287 287 287 287 287 288 288 287 286 286 285 285 285 286 286 286 287 287 288 288 288
292 292 291 290 289 289 288 288 289 290 290 290 289 288 287 287 286 286 286 286 287 286 286 286 286 287 288 287 286 286 285 285 285 285 285 285 286 286 286 286 286 287 287
291 290 289 289 288 288 287 287 288 289 289 289 288 287 287 286 286 286 286 286 286 286 286 286 287 287 286 285 285 285 285 285 285 285 284 284 285 284 284 285 285 285 286
289 289 288 288 288 287 286 286 287 287 287 287 287 286 286 286 286 286 286 286 285 286 286 287 287 285 285 284 284 284 284 285 284 284 284 284 284 284 285 285 285 286 286
289 288 287 287 287 286 285 285 286 286 286 287 286 286 286 286 286 285 285 285 285 286 287 285 285 284 284 284 284 284 284 283 283 283 283 284 284 284 284 284 285 285 286
288 288 287 286 286 286 284 284 285 285 286 286 286 286 285 285 285 285 285 285 286 285 284 284 284 283 284 284 285 284 283 283 283 283 283 283 283 283 284 284 284 285 286
287 286 286 286 285 285 284 284 284 285 285 285 286 285 285 285 285 285 285 285 285 284 283 283 283 284 284 284 283 283 283 283 283 283 283 282 283 283 282 283 284 285 286
286 285 285 285 284 284 284 283 284 284 284 285 285 285 285 285 285 285 285 284 283 283 282 283 283 282 282 282 283 283 283 283 283 282 282 282 282 282 282 282 283 283 284

GFSMA_925_thetae_012.txt.gz
Theta_e
330 330 331 326 320 317 314 308 307 306 305 304 303 303 302 303 304 305 307 307 309 313 313 312 312 311 311 311 312 312 313 313 313 314 315 315 316 318 319 320 320 322 323
331 328 325 319 316 312 308 306 304 304 303 302 302 302 302 302 303 304 306 306 304 302 301 305 306 305 306 306 307 308 308 309 309 309 310 310 311 312 314 315 317 318 318
330 329 322 314 310 307 306 305 303 303 302 302 302 302 301 302 302 303 304 303 302 301 301 300 298 302 302 304 306 306 307 307 307 307 307 308 308 309 310 312 314 314 313
331 328 318 311 309 306 304 303 303 302 301 300 299 299 300 301 302 302 302 301 301 300 300 299 298 299 299 300 303 304 305 305 305 306 306 307 307 307 308 310 313 312 312
328 326 313 310 306 305 304 302 302 301 299 298 298 299 301 302 302 301 301 301 300 299 298 298 297 296 298 299 300 301 302 303 303 304 305 305 306 306 307 308 311 311 311
325 319 310 306 305 304 303 302 301 300 298 297 299 300 301 303 301 301 303 299 299 298 297 296 295 295 295 297 298 298 299 300 302 303 304 304 305 306 306 307 308 310 310
318 311 307 305 305 305 303 302 301 299 298 296 298 300 301 301 304 303 300 299 298 297 296 296 295 295 294 294 294 295 297 298 300 301 302 302 303 304 305 306 307 308 308
310 310 306 305 305 304 303 302 300 299 297 296 296 298 297 300 299 300 299 298 297 296 296 295 295 294 293 293 292 294 294 296 297 299 300 301 302 303 303 304 305 306 307
309 307 305 305 304 305 303 300 299 297 297 296 295 296 295 296 294 298 298 297 297 296 295 295 295 294 293 292 292 292 292 294 295 297 298 299 300 300 301 302 304 304 305
306 305 304 304 304 303 301 299 297 296 296 296 296 295 294 294 293 293 296 297 296 295 295 294 294 293 293 292 291 291 292 293 294 295 296 297 298 299 300 301 302 302 303
304 304 304 302 302 301 299 298 297 295 294 295 294 294 294 294 294 293 292 293 294 293 293 294 293 293 292 292 291 291 291 292 292 293 295 296 297 297 298 299 300 300 300
302 301 301 301 300 300 298 297 296 295 294 293 293 293 293 293 293 292 291 291 291 292 292 292 292 292 291 291 290 290 290 291 291 292 293 294 295 296 296 296 296 296 297
300 300 300 299 299 299 297 296 295 294 293 293 293 292 292 292 292 292 292 291 290 291 290 291 291 291 290 290 289 289 290 290 290 290 291 293 294 293 293 293 294 294 295
299 299 299 298 298 297 295 295 294 293 293 292 292 292 292 292 292 291 291 290 289 288 289 290 289 289 289 289 288 289 288 288 288 289 290 291 291 291 291 291 292 292 292
299 298 297 296 296 295 294 294 293 292 292 292 292 292 292 291 291 290 290 289 289 288 288 288 288 288 288 287 287 288 288 287 288 289 289 289 289 290 290 290 290 290 291
298 296 296 295 294 294 293 293 292 292 291 291 292 291 290 290 290 289 288 288 288 288 287 287 287 287 287 287 287 287 287 287 288 288 288 288 288 288 289 289 290 290 290
296 295 295 294 294 293 292 292 291 291 291 291 291 290 290 289 289 288 287 287 287 287 286 286 286 287 287 287 286 286 287 288 288 287 287 287 287 288 288 289 289 289 290
295 294 294 293 293 292 291 291 291 291 291 290 290 290 289 288 288 287 286 286 286 286 287 286 286 286 286 285 286 287 287 286 286 286 286 286 287 287 287 288 288 289 289
294 293 293 292 292 291 290 290 289 289 289 290 290 289 289 288 287 286 286 286 286 286 286 286 285 285 285 285 287 285 285 285 284 284 285 285 285 286 286 287 288 288 288
292 292 292 291 290 290 289 289 289 289 290 290 289 289 288 287 287 286 286 286 286 286 286 285 285 285 285 287 285 284 284 284 284 284 284 285 284 285 285 285 285 286 286
292 291 291 290 289 288 288 287 287 288 288 288 288 287 287 286 287 287 287 287 287 286 285 285 285 286 285 284 284 283 283 283 283 284 283 283 283 283 283 284 284 285 285
290 290 289 289 288 287 287 286 287 286 286 286 286 287 286 286 286 286 286 286 286 286 286 286 287 284 284 283 283 283 283 284 284 283 283 282 282 282 283 283 284 285 286
289 289 288 287 287 287 286 285 286 285 285 285 286 286 286 286 285 285 285 285 285 286 286 285 284 284 283 283 283 283 284 284 283 283 282 282 283 283 283 282 283 284 285
288 288 287 286 286 286 285 284 285 284 284 285 285 285 285 285 285 286 286 286 285 285 284 284 283 283 283 284 285 284 284 283 283 283 283 283 283 282 282 282 282 283 285
287 287 286 286 285 285 284 284 285 284 284 284 285 285 285 285 285 286 286 285 285 284 283 283 283 283 284 283 283 283 283 282 282 283 282 282 282 282 281 281 282 283 284
286 286 285 285 284 284 284 284 284 284 284 284 284 284 284 285 285 286 286 285 283 282 282 283 283 281 281 281 281 281 282 281 281 281 282 281 281 281 281 282 282 281 282

GFSMA_925_thetae_015.txt.gz
Theta_e
326 329 331 329 322 318 315 313 308 306 305 303 302 302 302 303 304 306 307 305 310 312 312 311 310 310 309 309 310 310 310 310 310 311 311 312 312 313 315 316 317 319 320
329 330 327 322 320 317 312 308 305 304 303 302 302 302 302 302 303 305 305 304 302 301 305 305 305 305 305 307 308 309 309 309 308 308 309 309 309 310 311 312 314 315 315
329 328 326 320 317 312 309 305 304 303 302 302 301 301 301 301 302 304 303 303 302 301 301 302 302 302 303 304 306 306 307 307 307 307 307 308 308 309 309 310 311 313 314
330 328 324 319 312 309 306 306 305 303 301 299 299 299 299 301 302 302 302 301 301 300 299 299 299 300 301 302 304 304 305 305 305 305 306 307 307 308 308 309 309 312 313
329 329 325 316 311 306 305 306 304 302 299 298 299 299 302 302 301 301 301 301 300 298 297 297 296 295 297 299 300 302 302 303 303 305 305 306 306 307 308 308 309 309 311
329 328 320 313 308 306 306 305 304 301 298 298 299 300 301 303 301 301 301 299 298 297 296 296 296 295 295 296 297 297 300 301 302 302 303 303 304 304 305 306 307 308 309
328 324 315 310 306 307 307 305 302 300 298 297 298 300 300 304 303 302 300 298 297 297 296 296 295 295 294 294 293 295 297 298 299 301 301 302 303 303 303 304 305 306 307
325 319 315 308 306 308 306 304 302 299 297 296 297 298 296 299 299 299 298 297 297 296 295 295 295 294 294 293 292 293 294 295 297 299 300 301 301 301 302 303 304 304 305
322 316 311 307 306 308 306 303 301 300 298 296 295 296 294 296 293 297 297 296 296 295 295 294 294 294 293 293 292 292 291 293 295 297 298 299 299 300 301 302 302 303 304
311 310 307 306 306 306 305 303 300 300 298 296 295 295 294 294 292 292 296 296 295 295 294 293 293 293 292 292 291 291 291 292 295 296 296 297 298 299 300 300 301 302 302
307 307 306 305 305 304 303 302 300 298 297 295 295 294 294 294 294 292 291 293 294 293 292 292 291 291 291 291 291 291 292 292 293 294 294 295 296 297 298 299 299 299 299
305 305 304 304 304 303 301 301 299 297 296 294 293 293 293 293 292 292 289 289 290 291 291 291 290 290 290 289 289 289 290 291 292 292 292 293 295 296 296 296 296 296 297
303 303 303 303 301 301 299 299 298 296 295 294 293 292 292 292 292 292 291 290 288 290 290 289 289 289 289 289 288 288 289 289 289 290 291 292 293 294 293 293 293 294 294
302 303 302 301 300 299 298 297 296 295 294 293 292 292 292 292 292 291 291 290 287 287 289 289 288 288 288 287 287 288 287 287 288 289 290 291 291 291 290 291 292 292 293
301 301 300 299 298 298 296 296 295 294 293 292 292 292 292 291 291 290 289 289 288 286 286 287 287 287 286 286 287 287 287 286 287 288 289 290 289 289 290 290 290 291 291
300 299 298 299 299 295 295 294 293 293 292 291 291 291 291 290 290 289 288 288 287 286 285 286 286 286 286 286 286 286 285 286 287 288 288 287 288 289 289 289 290 290 291
299 298 298 297 295 294 293 293 292 292 291 291 291 291 290 290 289 288 287 286 286 286 284 285 286 286 286 285 285 285 285 286 286 285 286 287 287 288 288 289 289 289 290
298 298 296 295 294 293 292 292 291 291 291 290 290 290 289 289 288 288 287 286 286 286 285 285 285 285 285 285 285 285 286 285 284 284 285 285 286 286 287 288 288 288 289
296 296 295 293 293 292 291 291 290 290 289 289 289 289 289 288 288 287 286 286 286 286 286 286 285 285 285 285 285 285 284 284 284 283 284 284 285 286 286 286 287 287 287
295 294 293 293 292 291 290 289 289 289 289 289 289 288 288 287 287 286 286 287 287 286 286 286 285 284 284 285 284 284 283 283 283 283 283 284 284 284 284 285 285 285 285
293 293 292 291 290 290 289 288 287 287 287 287 286 286 287 286 287 287 287 287 286 286 286 285 284 285 285 284 283 283 282 282 283 283 284 283 283 282 282 283 283 283 285
292 291 291 290 289 288 287 286 286 286 284 284 285 286 286 286 285 286 286 286 286 286 286 286 285 285 284 283 282 282 282 283 283 284 283 282 282 282 282 282 283 284 285
290 290 289 288 287 287 286 286 286 285 284 284 285 285 285 285 285 285 285 286 286 286 286 286 284 283 283 282 283 283 284 284 283 283 282 282 282 282 282 282 282 283 284
289 288 287 287 286 287 285 285 285 284 284 284 284 284 284 285 285 286 286 286 286 285 285 284 284 283 283 283 284 283 283 282 282 282 282 282 282 282 282 281 282 283 284
287 287 286 286 285 285 284 285 284 284 283 283 284 284 284 284 285 286 286 286 285 285 283 283 283 284 284 283 282 282 281 280 281 281 281 281 281 281 281 281 282 282 283
286 286 285 285 285 284 284 284 284 284 283 284 284 284 284 284 285 285 286 285 284 283 283 283 283 282 281 281 281 281 280 280 280 280 281 281 281 281 281 281 282 282 281

GFSMA_925_thetae_018.txt.gz
Theta_e
331 331 325 328 328 324 318 314 310 307 305 303 302 302 302 303 305 307 307 310 314 313 312 311 310 309 310 310 311 311 311 311 310 310 311 311 311 311 312 313 315 316 317
329 331 327 330 326 319 314 311 308 305 303 302 302 302 302 302 304 305 304 303 303 306 307 306 306 306 307 308 308 308 309 309 309 309 309 309 310 310 310 311 311 313 315
327 326 329 329 317 314 314 309 305 304 303 302 301 301 301 301 303 304 303 302 301 301 303 303 304 304 304 306 307 307 307 307 307 308 308 308 308 309 309 310 310 311 313
327 329 329 321 317 315 312 306 305 305 303 300 299 299 300 301 302 303 302 301 300 300 299 298 297 299 302 303 304 305 305 305 305 307 307 307 307 308 308 309 310 310 311
328 329 324 320 318 315 309 306 306 304 300 298 299 299 302 301 301 301 301 300 299 298 297 296 296 295 296 299 300 301 302 303 304 304 305 305 305 306 306 307 307 308 309
329 327 324 321 317 312 306 306 306 302 298 299 300 301 302 301 301 300 300 299 298 297 296 296 295 295 295 295 296 297 300 301 302 302 303 303 304 304 304 305 305 306 307
328 326 322 320 316 311 307 307 304 300 297 298 299 300 302 301 300 300 299 298 297 296 295 295 295 294 294 293 293 296 296 298 299 300 301 302 302 303 303 304 304 305 306
329 327 322 320 314 308 306 306 305 301 297 296 298 298 296 298 299 299 297 296 296 295 295 294 294 293 293 293 292 292 293 295 296 298 300 301 301 301 302 302 303 304 304
328 326 323 319 312 307 307 306 305 303 299 296 296 297 294 296 293 296 296 296 295 295 294 294 293 292 292 292 292 291 291 293 294 297 298 299 299 300 300 301 302 302 303
325 324 322 317 311 307 306 306 304 303 301 297 295 295 295 294 292 293 295 295 295 295 294 293 292 291 291 291 290 291 291 293 294 295 297 298 298 298 299 300 301 301 302
324 321 315 311 307 306 306 305 303 302 300 298 296 295 294 294 293 291 291 292 294 294 292 292 291 290 290 289 289 290 292 292 293 294 295 296 296 297 298 299 299 299 300
315 313 311 308 306 306 304 303 301 300 299 297 295 294 294 293 292 291 289 289 290 291 291 291 290 290 289 288 288 288 290 291 291 292 293 294 294 295 296 296 297 297 297
306 308 308 305 305 304 302 301 300 298 297 296 295 294 293 292 292 292 291 289 288 290 290 290 289 288 288 287 287 287 288 289 289 290 291 292 293 293 294 293 294 294 294
305 305 306 304 304 301 300 300 298 297 296 294 293 293 292 292 292 291 291 290 287 286 288 288 288 288 287 286 286 287 287 287 287 288 289 290 291 291 292 291 291 292 293
305 304 304 303 301 300 299 298 297 296 294 293 293 292 292 292 291 290 290 289 288 286 285 287 287 286 286 286 286 286 285 284 286 288 288 289 289 289 289 290 291 291 292
304 303 303 301 299 298 297 298 298 296 293 292 292 292 291 291 290 290 289 288 287 286 284 286 286 286 285 286 285 285 285 285 286 286 287 287 288 288 289 289 290 290 291
303 301 300 300 297 296 297 296 296 293 292 291 291 291 291 290 289 289 288 287 286 285 283 285 285 285 286 285 285 285 285 285 284 285 285 286 287 287 288 288 288 289 289
300 300 300 298 298 296 294 295 293 292 291 291 290 290 290 289 289 288 288 287 286 286 285 284 285 286 285 285 284 285 284 284 284 284 284 285 286 286 287 287 288 288 288
298 299 299 298 296 296 293 292 291 291 290 290 289 289 289 289 288 288 287 286 286 286 286 285 285 285 285 285 285 285 284 283 283 283 283 284 285 286 286 286 287 287 287
298 297 297 295 293 292 291 290 290 289 289 289 289 289 288 287 287 286 286 287 286 286 286 286 285 285 285 284 284 283 282 282 282 282 283 283 285 285 284 284 285 285 285
295 294 294 293 291 290 290 289 289 288 287 287 286 286 286 286 286 287 287 287 287 286 286 286 285 284 284 284 283 282 282 282 282 283 283 283 283 282 282 282 283 283 284
293 293 292 292 291 290 289 287 287 287 285 284 285 285 285 285 286 286 287 286 286 287 286 285 286 285 284 283 282 282 282 282 283 283 283 282 282 282 282 282 282 284 285
294 295 292 289 288 289 288 287 286 285 284 284 284 284 284 285 285 285 285 285 286 286 286 286 285 284 283 283 283 282 282 283 282 282 282 281 281 281 282 282 282 283 284
290 289 289 288 287 288 288 287 285 284 284 283 284 284 284 284 284 285 285 286 286 285 285 285 284 284 283 284 284 283 283 282 281 281 280 280 281 281 281 281 282 283 284
289 290 289 287 286 286 286 286 284 284 283 283 283 284 284 284 284 285 286 286 286 285 284 284 284 284 284 284 283 282 281 280 280 280 280 280 280 281 281 280 281 282 283
289 286 285 285 284 284 285 285 285 284 284 284 284 284 283 284 285 285 286 285 284 283 283 283 283 282 281 281 281 281 280 279 279 280 281 280 280 280 281 281 281 282 281

GFSMA_925_thetae_021.txt.gz
Theta_e
330 331 332 330 327 326 322 319 310 308 305 303 302 302 302 304 307 308 312 315 315 314 313 311 310 310 311 311 311 311 311 311 311 311 311 311 311 312 312 312 313 314 316
330 331 331 326 329 326 319 314 311 307 304 303 302 302 302 303 305 306 306 307 307 308 308 307 307 307 308 309 309 309 309 309 309 310 310 310 310 310 311 311 311 312 313
327 329 330 326 328 325 316 311 309 305 304 302 301 301 301 302 305 304 303 302 302 302 304 306 305 305 307 307 307 308 307 307 308 308 308 309 309 309 309 310 311 311 311
328 329 330 329 327 318 313 310 306 304 303 300 300 300 300 301 304 303 302 301 300 300 299 298 298 300 302 303 304 304 304 305 306 306 307 307 307 307 308 308 308 309 309
329 328 327 329 322 314 311 310 306 304 301 299 298 299 300 300 303 302 301 300 299 298 297 296 295 295 297 299 300 301 302 304 304 304 305 305 305 306 306 306 307 307 307
331 326 327 328 318 314 312 307 306 304 299 299 299 301 301 300 301 301 300 299 298 297 296 295 295 295 294 295 297 299 300 300 301 302 303 304 304 304 304 305 305 306 306
331 327 328 322 317 315 316 308 305 302 298 299 300 300 301 299 299 299 299 298 297 295 295 295 295 294 294 293 293 295 296 297 299 300 301 302 303 303 303 304 304 305 305
330 328 327 322 319 313 311 307 306 301 297 298 298 298 296 298 299 299 297 296 295 295 295 294 293 293 293 292 292 293 294 295 297 298 300 301 301 302 302 302 303 304 304
329 328 326 326 320 315 314 309 306 304 299 296 298 298 294 296 294 295 295 295 294 294 294 293 292 292 291 291 291 291 291 294 295 297 299 300 300 301 301 301 302 302 303
330 328 326 324 322 316 311 309 305 305 303 298 295 295 295 296 292 292 294 294 294 294 293 292 291 291 290 290 290 291 293 294 295 296 297 298 299 299 300 300 301 302 302
326 328 327 323 319 314 309 307 306 303 303 301 298 295 294 294 293 291 291 292 294 294 293 292 291 290 289 289 288 288 290 292 293 294 295 296 297 297 298 299 299 299 300
321 322 321 320 318 313 308 306 304 303 302 301 298 296 296 294 293 292 290 289 290 292 292 291 290 289 288 288 288 287 288 290 291 292 293 294 295 296 296 296 297 298 297
315 317 316 313 312 312 308 305 302 301 300 299 297 296 295 294 293 292 291 289 289 290 290 290 289 289 288 287 287 286 287 288 288 289 291 292 293 293 293 294 294 295 295
320 316 312 310 309 308 306 302 300 299 298 298 296 295 293 293 293 292 292 290 287 286 288 289 288 288 287 287 286 286 285 286 286 288 289 290 290 291 291 291 291 292 293
316 315 309 307 306 305 303 300 299 297 297 296 295 294 293 292 292 291 291 290 289 286 285 287 287 287 286 285 286 285 285 284 286 287 288 288 289 289 289 290 291 291 292
310 308 306 306 304 303 301 299 298 295 295 295 295 294 292 292 291 290 289 289 288 287 284 286 286 286 285 286 285 285 284 285 285 285 286 287 288 288 289 289 290 290 290
309 307 305 304 302 300 298 297 296 296 296 294 292 292 292 291 290 289 289 288 287 286 284 284 285 285 286 286 285 285 284 284 283 284 285 286 287 287 288 288 289 289 289
308 306 303 300 298 297 296 295 294 294 295 293 292 291 291 290 289 289 288 288 287 286 285 283 285 285 286 285 285 285 284 283 283 283 284 285 286 286 287 287 288 288 288
303 301 299 297 296 296 295 296 297 294 291 292 291 290 289 289 289 288 288 287 286 286 285 284 284 285 285 285 285 284 284 283 282 282 283 284 284 285 286 287 287 287 287
298 297 296 296 296 295 296 294 293 292 290 290 289 289 289 288 288 287 287 286 286 286 286 285 285 285 285 285 284 284 282 282 282 282 282 283 284 284 284 285 285 285 285
296 294 295 295 296 295 293 293 292 290 289 289 288 287 286 286 286 287 287 287 287 286 286 285 284 285 284 284 284 283 282 282 282 282 283 283 283 282 282 283 283 283 284
293 294 295 294 294 292 291 289 289 289 287 286 285 285 285 285 285 286 287 287 287 287 286 285 285 284 284 284 283 282 282 281 282 283 282 282 282 281 282 282 282 283 285
293 293 293 292 291 291 291 289 287 286 286 284 284 284 284 284 284 284 284 285 286 286 286 286 286 285 284 284 283 282 282 282 283 282 281 281 281 280 281 282 282 283 284
293 293 291 290 290 289 289 288 287 284 284 283 283 283 283 284 284 285 285 286 286 285 285 285 285 284 284 284 284 284 283 282 281 281 280 280 281 280 281 281 281 283 284
291 291 291 291 290 289 288 287 285 284 284 283 284 284 284 284 284 285 286 286 286 285 284 284 284 284 284 284 283 282 281 281 280 280 280 279 280 280 280 280 282 282 283
292 292 291 289 287 286 287 286 285 284 284 284 284 283 283 283 284 285 286 285 284 283 283 283 283 282 281 280 281 281 280 280 279 279 281 280 280 280 280 281 281 281 281

GFSMA_925_thetae_024.txt.gz
Theta_e
333 336 335 334 332 327 324 318 315 309 307 304 303 302 302 305 308 310 315 317 316 315 313 312 311 311 312 311 311 311 311 311 311 311 312 311 312 312 312 313 313 313 314
329 331 333 333 329 327 323 319 312 309 305 303 302 302 302 304 306 308 311 312 310 309 309 309 308 309 310 310 310 310 309 309 310 310 310 311 310 310 311 311 312 312 313
329 329 330 331 327 327 322 315 311 308 304 303 302 301 302 303 305 305 304 304 305 305 308 306 305 307 306 307 308 308 307 307 308 308 309 308 308 308 309 309 310 310 310
329 328 330 330 325 328 322 313 310 306 303 302 300 300 300 302 304 304 302 301 301 301 301 300 300 302 303 303 303 304 304 306 306 306 306 306 307 307 307 307 308 308 308
326 327 327 329 327 327 319 313 310 305 302 299 298 299 300 300 304 303 301 300 300 298 297 296 296 296 297 299 301 302 303 304 303 304 304 305 305 306 306 306 307 307 307
326 326 328 329 328 324 314 311 308 304 301 298 299 301 300 301 303 302 300 300 298 297 296 295 295 295 295 295 296 299 299 300 301 302 302 303 304 304 304 305 305 306 306
330 330 328 329 327 322 317 311 306 303 298 298 300 300 299 299 300 300 300 299 297 296 295 295 295 295 294 294 293 293 297 298 299 300 301 302 303 303 304 304 304 305 306
331 332 330 326 326 318 311 310 308 301 298 299 299 298 297 298 298 298 298 297 296 295 295 295 294 294 293 292 292 292 294 296 298 299 300 301 302 302 303 303 304 304 305
333 333 330 326 326 321 315 314 308 307 300 298 299 299 294 296 295 295 296 296 295 294 294 294 293 292 292 291 291 291 292 295 297 298 299 300 301 301 302 302 303 303 303
333 333 331 326 326 323 318 318 311 307 304 298 296 297 296 297 293 293 294 294 294 294 293 293 292 291 291 290 290 290 291 293 294 296 297 298 299 299 300 301 301 302 302
332 331 329 325 325 323 319 317 312 305 305 303 298 294 294 294 294 292 291 292 293 293 293 292 291 290 290 289 288 288 289 291 292 294 295 296 297 298 299 299 300 300 300
328 327 327 323 322 320 319 315 311 306 304 304 300 298 298 295 293 292 290 290 291 293 292 292 291 290 289 288 287 287 287 289 290 291 293 294 295 296 297 297 297 297 298
323 326 323 319 319 319 314 311 309 304 305 301 301 299 298 298 297 295 293 289 289 290 291 290 290 289 288 288 287 286 286 287 288 289 291 293 294 293 293 293 294 295 295
327 326 322 317 315 316 312 309 305 304 302 300 298 297 296 296 295 294 293 291 287 287 288 290 289 289 288 287 286 286 286 285 286 288 289 290 290 290 290 291 292 292 293
321 321 318 313 312 311 309 306 303 301 299 298 295 296 295 293 294 293 292 292 290 286 285 287 288 287 287 286 286 286 285 285 286 287 287 287 288 289 289 290 291 291 292
319 316 314 312 309 307 305 304 301 298 297 295 297 296 295 293 292 292 291 290 289 288 285 287 287 286 286 286 286 286 285 284 284 285 286 286 287 288 289 289 290 290 291
317 313 309 306 305 304 302 301 299 296 296 296 294 293 294 293 291 290 290 289 288 287 285 286 285 286 286 286 286 285 285 284 284 283 285 286 287 288 288 288 289 289 290
311 310 306 304 303 301 299 297 296 294 295 296 294 293 292 291 290 289 289 288 287 287 285 283 285 285 286 286 285 285 285 284 283 283 284 286 286 286 287 287 288 288 289
307 304 304 301 300 297 296 296 296 294 295 296 295 293 291 289 289 289 288 288 287 286 285 284 284 285 285 285 285 285 284 283 283 283 284 284 284 285 286 287 287 287 287
304 301 298 296 294 294 295 294 296 296 292 290 290 289 289 288 289 288 288 287 286 286 286 285 285 285 285 285 285 285 283 283 282 283 283 283 284 284 285 285 285 286 286
298 296 295 294 296 295 294 296 294 293 292 291 290 288 287 287 287 286 286 287 287 286 286 286 284 284 284 285 285 284 283 282 282 283 283 283 282 282 282 282 283 283 284
293 294 294 294 294 294 294 293 292 290 288 286 286 289 287 285 285 286 287 288 288 287 286 285 285 284 285 285 284 283 282 282 283 283 283 282 281 281 282 282 283 284 285
293 292 293 294 293 293 291 291 291 290 289 289 285 284 284 284 284 284 284 285 285 285 286 286 286 285 284 284 284 283 283 282 282 282 282 281 281 281 282 283 283 283 284
292 292 292 292 292 291 290 290 291 288 284 283 283 283 283 284 284 284 285 285 285 285 285 285 285 284 284 284 284 284 283 282 281 281 281 280 281 281 282 281 281 282 284
291 291 291 291 292 290 289 287 284 284 284 283 284 284 284 283 283 285 285 285 285 285 284 284 284 283 283 283 282 282 281 280 279 280 280 279 280 280 280 280 282 282 283
291 291 290 290 289 287 287 287 285 284 284 283 284 284 283 283 284 285 285 285 283 283 283 283 282 282 281 280 281 280 280 279 278 279 281 280 280 279 280 281 281 281 281

GFSMA_925_thetae_027.txt.gz
Theta_e
331 334 333 334 333 329 327 321 316 312 310 307 304 303 303 306 310 313 318 319 317 316 314 313 313 313 312 312 313 312 311 311 312 312 312 313 312 312 313 313 314 314 314
330 334 333 334 333 331 327 321 317 311 309 305 303 302 303 306 309 312 315 313 312 311 311 310 311 312 311 311 311 310 309 309 310 310 311 310 310 310 311 311 311 312 312
330 331 334 334 333 330 326 321 314 310 307 304 302 302 303 305 308 309 309 309 307 307 309 308 309 307 308 308 309 307 307 307 308 309 308 308 309 309 309 309 309 309 310
330 329 330 332 331 329 325 319 312 309 305 303 302 301 302 304 306 305 304 304 304 305 304 303 303 304 304 304 304 304 305 306 306 306 306 307 307 307 307 308 308 308 309
328 329 328 330 330 328 326 318 310 307 304 301 300 300 300 303 304 303 302 301 301 301 298 297 297 297 297 300 302 303 304 303 303 304 304 305 306 306 306 306 307 307 308
329 328 329 328 330 327 326 315 309 306 303 300 298 299 299 301 303 303 301 300 299 298 297 296 296 296 296 295 295 298 300 301 301 302 302 303 304 305 305 306 306 306 307
334 329 327 327 327 328 326 317 307 304 300 299 300 299 298 300 302 302 300 300 298 297 296 296 296 295 295 295 294 293 298 299 300 301 301 302 303 304 304 305 305 306 306
336 332 327 326 326 327 323 313 309 303 300 299 301 301 303 299 298 299 300 298 297 296 296 295 295 295 294 293 293 292 293 297 299 300 301 302 303 303 304 304 304 305 305
336 334 330 327 327 328 325 319 312 309 301 299 299 302 301 305 299 296 296 297 296 295 295 295 294 294 293 292 291 291 293 294 297 298 300 301 302 302 302 302 303 303 304
335 334 332 329 328 327 325 324 318 311 308 301 298 299 297 298 302 299 294 294 294 294 294 294 293 293 292 291 290 290 290 291 295 296 297 298 299 300 301 302 302 302 303
331 333 333 330 329 326 325 320 316 310 308 306 301 296 295 295 295 298 300 295 292 293 293 293 292 292 291 290 289 288 288 290 293 294 295 296 298 299 299 300 301 301 301
329 329 328 329 329 327 321 323 314 311 311 305 304 301 299 296 295 295 297 295 296 293 292 292 292 291 290 289 288 288 288 287 290 292 293 295 296 297 298 298 298 298 298
325 327 326 325 326 326 322 320 313 308 308 305 303 299 298 298 297 295 295 293 293 291 291 291 291 290 289 288 288 287 287 286 288 290 292 293 294 294 294 294 294 295 296
326 323 323 321 320 317 316 315 312 309 307 305 302 300 298 298 298 296 295 293 291 290 289 291 289 289 289 288 287 287 286 286 286 288 289 290 290 290 291 291 292 293 293
324 323 321 318 315 315 313 311 309 307 306 303 301 299 300 296 295 297 297 294 293 292 291 289 289 288 288 288 287 286 286 285 286 287 287 288 288 289 289 290 291 291 292
323 321 318 315 312 309 308 307 305 304 303 300 298 296 294 296 299 296 293 291 291 290 290 289 288 287 287 286 286 286 286 285 285 285 286 287 287 288 289 289 290 291 291
320 319 316 313 309 306 304 304 303 301 299 296 294 295 297 296 292 291 291 292 290 289 289 288 287 287 286 286 286 286 285 285 285 285 285 286 287 288 289 289 289 290 290
318 316 314 310 306 304 303 301 300 297 295 294 296 294 293 293 292 291 290 289 289 288 286 286 285 285 285 286 286 286 286 285 285 284 284 286 287 287 287 288 288 289 289
313 311 308 305 303 301 298 296 294 293 294 295 295 295 293 292 291 289 287 286 287 288 286 284 285 284 285 286 285 285 285 285 284 283 284 284 285 286 286 287 288 288 288
307 304 302 300 298 296 294 294 294 294 294 293 291 289 288 288 289 289 289 289 288 285 285 284 285 285 285 285 285 285 285 285 284 283 283 284 284 285 285 285 286 286 286
299 298 297 296 295 295 294 294 295 295 294 292 291 291 291 288 289 290 288 286 287 287 286 286 286 286 285 286 286 285 285 284 284 283 283 283 283 283 283 283 284 284 284
295 295 294 293 293 294 295 296 296 295 293 292 290 288 290 289 286 285 287 288 288 288 287 286 285 286 286 285 285 284 284 284 284 284 283 283 283 283 283 283 283 284 285
294 293 293 294 294 293 295 296 294 292 291 290 289 287 284 283 284 284 284 285 285 285 286 286 286 286 285 285 284 284 284 284 283 283 283 283 283 283 283 283 283 283 284
292 292 293 293 292 291 290 290 291 289 286 284 283 283 284 284 284 284 285 285 285 285 285 285 285 285 284 284 284 284 283 283 282 282 282 282 283 283 283 282 282 283 284
291 292 292 291 290 289 288 288 287 285 284 283 284 284 284 283 283 285 285 285 285 285 284 283 283 283 283 283 283 282 282 282 281 282 281 281 282 282 282 282 282 283 283
290 290 289 289 289 288 287 285 284 284 284 284 284 283 282 283 284 285 286 285 283 282 282 282 282 281 281 280 280 280 280 280 280 280 281 280 282 281 282 282 283 282 281

GFSMA_925_thetae_030.txt.gz
Theta_e
334 335 336 337 335 333 327 321 315 311 309 307 306 308 311 313 315 316 320 321 319 317 316 316 316 314 314 314 313 312 312 313 312 313 313 312 312 312 313 313 313 314 314
333 334 336 335 335 333 328 321 315 312 310 307 306 308 310 312 313 314 316 316 315 314 313 313 313 313 313 313 311 310 310 311 310 311 311 310 311 311 311 311 311 311 312
332 333 334 333 333 333 327 319 313 310 308 306 305 307 309 311 312 312 312 312 310 310 311 311 312 310 310 310 309 307 308 309 309 309 309 309 309 309 309 309 310 310 310
331 332 333 334 334 332 325 318 313 310 309 307 305 305 307 309 310 309 309 308 308 309 307 308 307 307 306 305 305 305 306 307 306 306 306 307 307 307 308 308 308 309 309
333 331 331 333 333 330 321 317 313 311 308 306 305 304 305 307 308 307 306 306 306 306 305 301 301 301 300 302 303 304 304 304 303 304 304 305 306 306 307 307 307 308 308
334 332 331 331 331 328 321 316 313 309 308 306 302 303 303 305 306 305 305 303 303 303 302 300 299 298 296 296 296 296 301 301 302 302 303 304 304 305 306 306 307 307 307
335 333 331 330 330 326 323 317 313 307 305 304 304 303 302 302 304 305 304 302 301 300 299 298 298 297 296 296 295 294 297 299 301 302 302 303 304 305 305 306 306 307 307
335 334 332 331 330 326 324 318 310 308 307 305 307 307 307 303 302 303 303 302 300 299 298 297 297 296 296 295 295 294 293 298 300 301 302 303 303 304 305 305 305 305 306
335 334 332 331 329 325 323 317 311 309 306 304 305 308 308 309 304 302 301 301 300 299 298 297 296 295 294 295 294 294 292 293 296 298 300 301 302 302 303 303 304 305 305
333 333 332 331 327 322 321 317 315 316 309 305 302 302 301 306 307 305 300 299 299 298 298 296 295 294 294 294 293 293 292 291 293 297 298 299 300 301 302 302 303 304 304
331 330 330 329 326 322 322 319 315 311 310 309 306 301 299 299 301 305 306 300 298 297 297 296 295 294 293 292 292 292 290 289 293 294 296 297 298 300 300 301 302 302 302
328 328 327 328 326 324 322 320 317 313 309 308 307 305 301 300 300 300 303 302 301 298 296 295 294 294 293 292 291 290 289 288 290 292 294 296 297 298 299 299 299 299 299
327 327 325 325 324 324 322 318 316 313 310 305 304 303 301 300 300 300 302 297 300 296 295 295 294 293 292 291 290 289 289 288 288 291 292 294 295 295 295 295 295 296 296
327 326 324 323 323 322 321 318 314 311 311 309 306 304 302 301 299 299 298 296 294 295 293 293 292 291 291 290 290 289 289 288 288 289 290 291 291 291 291 292 292 293 294
325 325 325 322 320 320 319 316 313 312 309 307 305 303 303 299 297 296 296 297 298 295 294 292 291 290 290 289 289 288 288 289 288 288 289 289 289 289 290 290 291 292 293
322 321 322 320 319 316 314 313 310 309 306 303 301 299 298 296 294 294 295 293 292 292 292 290 288 288 288 287 287 287 288 288 287 288 288 288 288 288 289 290 290 291 292
318 319 318 316 315 312 310 309 307 304 302 300 298 298 295 293 294 293 292 291 292 292 290 289 288 287 288 287 287 287 288 287 287 287 287 287 287 288 289 289 290 291 291
314 314 313 312 311 309 306 305 303 302 299 298 295 294 294 293 292 293 294 292 291 290 289 287 288 290 288 286 286 286 287 287 287 287 287 287 287 287 288 288 289 289 290
311 311 309 308 306 304 302 301 299 297 296 295 294 294 295 294 293 291 290 289 288 287 289 288 288 287 286 286 286 286 287 287 287 286 286 285 286 287 287 288 288 289 289
306 306 304 303 301 299 297 296 295 294 294 294 295 295 295 294 293 291 289 289 290 289 287 286 287 287 287 287 287 287 287 287 287 286 285 286 286 286 286 287 287 287 287
298 297 297 297 296 295 294 294 294 293 294 293 293 292 291 291 291 291 290 289 288 286 287 288 288 288 288 288 287 287 287 286 286 286 286 286 286 286 286 286 286 286 286
295 295 294 294 293 293 293 293 293 294 293 292 291 291 291 291 289 288 288 288 288 289 289 288 288 288 287 287 287 286 286 285 286 285 285 285 286 286 286 286 286 286 286
294 294 294 294 294 294 293 294 295 294 292 291 290 289 288 287 285 284 284 285 287 287 287 287 287 287 287 286 286 285 285 285 285 284 285 285 285 285 285 285 286 286 286
293 293 293 293 293 292 291 289 292 291 290 288 286 285 284 284 284 285 285 286 286 286 286 286 286 286 286 285 285 285 285 284 284 284 284 285 285 285 285 285 285 285 285
290 290 291 290 289 288 288 290 290 287 285 284 284 284 284 284 284 285 286 286 286 286 285 284 284 284 284 284 284 283 283 284 284 284 284 284 284 285 285 284 284 285 285
289 289 289 288 287 287 286 285 284 284 285 285 284 283 283 284 285 285 286 286 285 284 283 283 283 283 282 281 281 282 282 283 283 282 284 283 283 283 283 284 284 284 284

GFSMA_925_thetae_033.txt.gz
Theta_e
336 335 337 336 334 333 331 326 321 316 314 312 311 311 312 314 316 318 323 322 322 319 318 318 318 316 316 315 313 313 314 313 314 314 313 312 313 313 313 313 313 313 314
335 335 335 336 336 335 333 328 322 317 314 312 311 310 312 314 315 316 320 320 319 315 315 316 315 315 315 314 312 311 311 311 312 311 311 311 311 311 311 311 311 311 312
334 333 334 333 335 336 333 330 323 317 314 312 311 310 311 313 314 314 316 315 314 313 312 314 314 312 313 312 310 308 309 309 309 309 309 309 309 309 309 310 310 310 311
334 333 333 334 333 335 332 330 322 316 314 312 311 309 310 312 312 312 312 313 311 311 311 313 310 310 308 307 306 306 307 307 306 306 306 307 308 308 308 308 309 309 309
335 333 333 334 332 333 333 329 321 317 315 312 311 308 308 310 311 310 310 309 309 310 308 307 307 306 303 304 305 305 305 305 304 304 305 305 305 307 307 308 308 308 308
337 335 333 333 334 333 332 326 322 317 315 313 310 307 306 308 309 308 308 307 307 307 306 304 301 300 298 298 297 298 301 302 302 303 304 304 305 305 306 307 308 308 308
338 337 335 333 333 333 332 325 321 316 314 312 307 306 306 305 307 308 307 306 305 305 304 302 301 300 298 296 296 296 296 301 301 302 303 304 305 306 306 307 307 308 307
338 337 336 334 333 332 331 327 321 316 312 309 309 310 310 305 304 306 306 305 304 303 301 300 300 299 299 297 298 296 294 298 301 302 303 303 304 305 305 306 306 306 307
338 338 336 335 333 333 332 327 322 316 313 309 311 312 315 313 306 304 305 304 303 302 300 299 299 298 297 297 297 295 294 294 294 299 300 302 303 303 303 304 305 305 306
333 335 335 335 333 333 331 328 324 317 315 311 308 310 308 309 310 306 303 303 303 301 300 299 298 297 296 296 296 297 297 294 292 297 299 300 301 302 302 303 304 304 305
333 331 333 333 332 332 330 328 324 315 315 313 310 307 306 303 305 307 304 301 301 301 300 299 298 296 295 295 295 294 293 291 292 296 297 298 299 300 301 302 302 303 303
333 331 330 330 331 330 329 326 323 316 315 315 311 310 307 305 302 302 305 302 300 299 299 299 298 296 295 294 294 293 292 290 290 293 295 296 298 298 299 299 299 300 300
329 329 328 328 328 329 328 325 323 318 315 314 314 311 307 306 303 303 304 302 303 298 298 298 297 296 295 293 293 291 290 290 289 292 294 295 295 295 295 295 295 296 297
326 326 326 325 326 326 326 325 324 321 316 314 313 309 306 304 304 302 302 298 297 296 294 296 295 295 294 292 292 291 290 290 290 291 292 292 292 292 292 292 293 294 294
324 324 325 324 324 323 324 324 323 319 315 313 310 306 304 303 303 299 299 301 301 298 296 292 291 292 291 291 290 290 289 289 290 291 290 291 291 291 291 291 291 292 293
320 320 321 321 323 322 321 321 320 317 314 312 310 308 302 298 297 296 297 296 296 296 293 291 290 290 290 290 289 289 288 288 289 290 290 290 290 290 290 290 290 291 292
318 318 318 318 318 318 317 316 315 313 312 309 306 304 300 298 297 298 298 298 295 294 293 289 289 289 291 292 290 291 290 289 288 288 289 289 290 290 290 290 290 291 291
315 315 314 315 314 314 313 311 309 307 306 302 299 297 297 297 295 295 294 293 295 295 294 291 291 290 291 291 291 290 287 287 287 287 288 289 289 289 288 288 289 290 290
311 312 311 310 309 308 307 305 304 302 300 299 298 297 295 295 293 293 294 294 294 293 292 291 289 289 289 288 287 287 287 287 287 288 288 288 287 287 288 289 289 289 290
307 307 304 304 303 302 301 301 299 297 296 295 294 295 295 295 296 295 292 292 291 290 289 288 288 288 288 288 288 288 287 288 288 287 287 287 287 287 288 288 288 288 288
297 298 298 297 296 296 296 296 295 294 294 293 294 294 294 294 293 292 291 290 289 289 288 288 289 289 289 289 289 288 288 287 287 287 286 286 286 286 286 287 287 287 287
296 296 295 294 294 294 294 294 293 292 293 293 291 290 290 290 290 290 289 289 289 288 288 289 289 289 289 288 288 288 287 286 286 285 285 285 285 286 285 286 286 287 287
295 295 295 295 294 294 293 292 291 291 291 290 290 289 289 289 288 287 287 288 288 289 289 288 288 288 288 287 287 286 285 286 285 285 285 285 285 285 286 286 286 287 287
292 293 293 293 292 291 290 290 292 291 290 288 288 287 285 284 284 285 285 286 286 286 286 286 286 286 286 286 285 285 285 285 285 285 285 285 285 285 285 285 286 286 287
291 291 290 290 289 288 289 290 290 289 287 285 284 284 285 285 284 285 286 287 286 286 286 285 285 284 284 284 284 284 284 284 284 284 284 284 284 285 285 284 285 286 286
289 289 288 288 287 287 286 287 286 285 285 285 285 284 283 284 285 285 286 287 286 285 284 283 284 283 283 282 282 282 282 283 284 283 284 284 284 283 284 284 284 285 284

GFSMA_925_thetae_036.txt.gz
Theta_e
334 333 334 333 330 332 330 329 325 319 316 313 312 312 312 314 316 320 322 323 324 322 321 320 319 318 317 315 314 315 314 315 314 313 313 313 313 313 313 313 313 313 314
335 334 335 337 335 332 332 330 326 320 316 313 311 310 311 314 316 318 321 320 321 319 317 318 317 317 317 314 313 312 312 313 312 311 312 311 311 311 311 311 312 312 312
336 336 335 334 336 336 334 332 328 322 316 314 312 310 311 313 315 315 318 317 320 317 313 316 316 315 315 314 311 310 310 310 310 309 309 309 309 309 309 310 310 310 311
334 334 334 334 333 333 335 333 330 323 317 314 312 310 311 312 313 314 316 315 313 314 311 315 315 313 312 310 308 308 309 308 306 306 306 307 307 308 308 309 309 309 310
335 334 333 333 334 333 333 333 332 325 317 314 312 310 309 311 312 312 313 313 311 310 310 313 311 310 308 307 307 307 308 306 304 305 305 305 306 307 307 308 308 309 309
336 335 334 333 333 333 332 332 332 324 318 315 312 310 308 309 310 311 311 311 310 310 309 307 308 307 303 303 302 303 304 303 303 303 304 304 305 306 307 308 308 308 309
338 337 335 334 333 334 332 332 332 324 318 315 311 308 307 307 308 309 309 308 308 308 307 306 305 304 300 298 298 297 297 303 302 303 304 304 305 306 307 307 307 308 308
339 338 337 336 333 334 333 332 330 324 319 315 309 306 305 305 305 307 308 307 307 306 306 305 304 300 300 299 297 296 296 301 302 303 303 304 304 305 305 306 306 307 307
337 339 338 337 336 333 333 332 330 324 316 314 311 311 309 307 303 304 306 307 306 305 304 304 301 300 299 298 298 297 296 295 297 300 301 302 303 304 304 305 305 306 306
333 332 336 337 335 335 333 332 330 325 318 312 310 312 312 309 304 302 304 306 305 304 303 302 300 299 299 298 297 297 296 295 294 297 300 301 301 302 303 304 305 305 305
334 334 333 332 335 334 334 332 331 325 320 314 311 310 311 309 307 304 302 302 304 304 303 301 300 299 298 297 296 296 297 297 294 295 298 299 300 301 302 303 303 303 304
331 332 333 330 329 332 333 333 331 328 321 316 312 312 312 309 304 303 303 300 301 301 302 301 300 298 297 296 295 295 294 294 292 293 296 298 299 299 300 299 300 300 300
330 331 329 328 328 328 329 331 331 328 324 317 316 312 312 311 308 305 305 302 301 299 300 300 299 298 296 295 294 294 293 293 291 292 295 297 297 297 296 296 296 297 297
326 326 325 325 325 325 325 325 328 328 325 320 316 315 312 310 308 306 305 302 299 296 296 297 297 296 295 294 293 293 293 291 291 292 293 294 294 294 294 294 294 294 295
324 323 324 324 323 323 323 322 324 326 325 322 317 315 313 309 307 305 304 304 303 299 296 294 296 296 296 293 293 292 290 290 291 291 292 293 292 292 292 293 293 293 293
319 319 319 318 319 320 323 322 322 322 322 319 316 314 312 308 305 303 302 303 302 299 295 293 293 292 293 292 292 292 292 290 290 292 292 292 292 292 292 292 292 292 292
317 317 317 317 316 316 316 316 317 317 316 314 313 311 308 305 301 298 297 298 300 301 295 292 292 292 292 293 292 290 291 293 293 291 290 290 291 291 291 291 291 291 291
314 314 313 314 314 314 314 314 313 312 311 310 307 305 302 299 296 296 296 297 298 298 297 293 292 292 291 291 291 292 292 289 288 287 288 290 290 290 290 290 290 290 290
309 310 309 309 308 308 308 308 307 306 305 304 302 300 298 297 296 295 295 296 296 296 297 294 292 291 291 291 290 289 288 288 288 288 289 288 288 288 288 289 290 290 290
302 303 302 302 301 301 301 301 302 300 300 298 297 296 296 295 295 294 294 293 292 292 292 292 291 290 290 289 288 288 288 288 288 287 287 287 287 287 287 288 288 288 288
298 298 298 297 297 297 296 297 296 296 295 294 294 293 294 294 293 293 292 292 291 291 290 289 289 289 288 288 288 288 288 287 287 287 286 285 285 285 285 285 286 286 287
295 295 295 295 295 294 294 293 294 293 292 292 291 291 291 291 291 291 291 290 290 290 288 289 289 289 289 288 287 287 286 286 285 285 285 284 284 284 285 285 285 287 288
295 295 295 294 294 293 292 291 293 292 291 291 290 290 290 290 290 290 290 290 290 290 289 288 288 288 287 287 286 286 286 285 285 285 285 284 284 284 285 285 285 286 287
293 293 292 292 291 291 291 292 292 291 290 289 289 288 287 286 285 285 285 285 286 286 286 286 286 286 286 286 285 285 285 284 284 284 283 284 284 284 284 285 285 286 286
291 290 290 289 289 289 289 291 291 289 288 286 285 285 285 285 285 286 286 286 286 286 286 286 285 285 285 285 285 285 284 284 283 283 283 283 283 284 284 284 285 285 286
289 288 287 287 287 288 287 286 286 285 285 285 284 284 284 285 285 286 286 286 286 285 284 284 283 283 283 282 283 283 282 282 282 282 283 283 283 282 283 283 283 284 284

GFSMA_925_thetae_039.txt.gz
Theta_e
332 331 331 332 331 325 329 330 328 321 317 316 314 312 312 314 315 321 321 324 325 325 323 323 321 320 319 316 317 316 316 316 314 314 314 314 314 314 313 313 314 314 314
333 332 332 333 332 331 330 330 329 325 319 317 314 311 311 313 315 319 321 322 323 323 321 321 320 319 317 316 316 315 314 314 313 313 312 312 312 312 312 312 312 312 313
335 334 334 334 335 335 331 331 330 327 321 316 313 312 311 312 314 317 320 320 320 321 318 319 318 318 318 315 314 313 312 312 311 311 310 310 310 310 310 310 311 311 311
334 335 335 335 334 335 335 334 332 330 325 318 313 313 310 311 313 314 317 318 317 318 317 316 317 317 317 315 312 312 311 310 309 308 308 308 308 309 309 309 309 310 310
334 334 335 335 335 334 335 334 334 331 328 319 314 313 311 310 312 314 314 316 315 314 314 313 316 314 315 313 310 310 311 309 307 306 306 306 306 307 308 308 309 309 309
337 335 334 334 333 333 333 333 333 333 329 325 316 313 312 309 310 312 313 313 313 312 310 310 314 312 311 309 309 310 310 308 305 305 305 305 306 306 307 308 308 309 309
339 337 335 335 334 333 333 333 333 332 330 322 316 312 310 308 309 310 311 311 311 311 310 310 309 311 309 306 307 307 306 306 305 305 305 305 306 306 307 307 308 308 308
337 337 336 336 334 333 333 333 333 331 331 322 314 306 304 306 307 308 309 310 310 310 309 309 308 307 307 304 302 299 301 304 305 305 305 305 305 305 306 307 307 307 308
331 331 332 333 335 334 333 332 332 331 326 323 318 312 306 307 303 306 306 308 308 308 308 308 307 306 304 301 300 297 297 302 304 305 305 304 304 304 305 306 306 307 307
334 333 332 331 331 334 333 332 332 332 327 318 313 313 314 310 304 305 304 305 307 307 307 306 306 305 303 301 299 298 298 297 301 302 302 303 303 303 304 305 306 306 306
333 332 333 333 332 330 332 333 332 331 329 323 316 312 309 310 306 303 304 304 305 306 306 305 305 304 301 300 299 298 297 297 298 299 300 301 301 302 303 304 304 304 304
326 330 330 331 332 330 329 329 331 331 329 324 317 316 312 311 309 304 304 302 304 304 305 304 303 303 300 299 298 297 297 297 298 298 298 299 300 301 301 301 301 301 301
321 329 330 330 329 327 326 327 327 328 328 324 318 314 314 312 312 309 306 303 303 301 301 302 301 301 299 298 297 296 296 295 295 295 296 298 299 299 298 298 298 298 299
321 325 325 324 324 324 324 323 323 324 325 326 323 317 314 312 312 311 309 306 302 298 296 296 298 297 297 295 295 295 295 293 293 294 295 296 296 296 296 296 296 296 296
318 322 322 323 322 322 321 321 322 322 322 323 323 320 317 315 313 312 309 307 307 304 298 296 297 296 296 296 296 295 294 296 295 294 293 293 294 294 295 294 294 295 295
317 318 318 318 316 317 318 318 320 319 319 320 319 317 316 314 310 307 305 304 303 304 300 296 297 296 296 294 294 294 296 294 294 292 292 293 295 295 293 293 293 293 294
314 315 315 314 315 315 316 316 316 315 315 315 315 315 313 311 307 306 303 300 301 303 301 295 295 295 295 295 295 293 293 293 292 291 291 292 292 292 292 292 292 292 292
311 311 312 312 312 312 312 312 311 311 310 310 310 310 308 305 303 300 298 298 298 300 299 294 293 293 292 292 293 293 292 291 291 291 289 290 291 291 291 291 290 290 291
306 307 307 307 306 306 306 307 306 305 305 303 302 300 301 301 298 297 296 296 296 296 296 295 291 292 292 292 291 291 291 291 289 288 289 290 290 289 289 289 289 290 290
301 301 301 301 301 302 301 302 301 300 299 298 296 296 296 296 296 295 295 294 294 294 294 294 292 291 290 291 290 289 288 288 288 288 287 287 287 287 287 287 288 288 288
298 297 297 297 297 297 296 296 296 296 295 295 295 294 294 294 294 294 294 293 293 292 291 290 290 289 289 288 288 288 288 287 287 287 286 285 284 284 284 285 285 285 286
295 296 295 295 295 294 294 294 294 293 293 292 292 292 292 292 292 292 292 291 291 290 290 289 289 289 288 288 287 287 287 286 284 285 284 284 284 284 285 285 285 286 287
294 294 293 293 293 293 292 292 293 293 292 292 291 291 290 290 290 291 290 290 290 290 290 288 288 288 287 286 286 286 285 285 284 285 284 284 283 284 285 285 285 286 287
292 292 291 291 291 291 290 291 292 291 290 289 289 289 288 287 287 287 286 286 286 286 287 286 286 286 286 286 285 285 285 284 284 283 283 283 283 284 285 285 285 285 286
289 289 289 290 291 290 289 290 290 289 288 286 285 285 285 284 285 286 286 286 286 286 286 286 285 285 285 285 285 285 284 284 282 282 282 282 283 283 283 285 285 285 285
288 287 287 287 287 287 287 286 285 285 285 284 284 284 285 285 286 286 286 285 285 284 284 284 283 283 283 282 282 283 282 282 281 281 283 283 282 282 282 283 283 283 283

GFSMA_925_thetae_042.txt.gz
Theta_e
329 330 330 329 329 329 327 328 328 327 323 318 315 313 313 313 313 318 323 325 325 326 326 325 323 322 320 318 318 317 317 316 316 316 316 315 315 315 315 315 315 315 316
330 331 330 330 331 331 329 326 329 328 326 320 316 315 312 312 313 315 321 323 324 324 324 324 322 321 320 318 318 316 317 315 315 315 314 314 314 313 313 313 313 314 314
336 332 332 331 332 332 332 330 330 330 328 324 318 315 312 311 312 314 317 322 322 323 322 323 321 320 319 318 317 316 316 314 314 313 313 312 312 312 312 312 312 312 312
335 335 334 332 332 333 333 332 331 330 328 327 322 318 314 311 311 312 315 320 321 321 320 319 320 320 319 318 316 315 314 313 312 311 311 310 310 310 310 310 310 310 311
334 334 335 335 334 334 334 334 333 331 330 325 327 322 314 312 311 311 313 317 319 318 317 317 317 318 318 318 316 315 314 312 310 309 309 308 309 309 309 309 309 309 310
334 334 334 334 334 335 335 334 335 334 334 332 325 321 316 313 310 310 311 313 316 317 316 315 315 317 316 317 316 313 313 312 310 308 308 307 307 308 308 308 309 309 310
338 337 335 334 334 333 333 333 333 334 333 332 322 314 313 314 312 310 310 312 313 315 315 313 312 314 315 314 313 311 312 313 309 307 307 307 307 307 308 308 308 309 309
337 337 336 336 335 333 333 332 332 332 332 331 321 308 309 312 312 311 309 310 311 312 313 312 310 310 313 312 310 309 310 309 309 308 307 306 306 307 307 307 308 308 308
336 335 334 333 333 333 333 333 332 332 329 328 324 320 306 308 305 309 308 308 309 310 311 311 310 310 310 310 309 306 305 305 306 308 307 307 307 306 306 306 307 308 308
329 331 333 333 332 331 333 332 332 331 330 327 320 319 318 311 307 309 306 305 305 308 309 309 310 310 309 308 307 305 301 298 304 307 308 307 306 305 305 306 306 307 307
317 318 329 334 331 329 331 330 330 331 331 328 324 319 314 311 308 306 308 306 306 305 306 307 307 308 308 306 304 301 299 298 303 304 304 304 304 304 304 305 305 306 305
314 317 325 329 332 331 329 328 328 328 327 327 324 320 317 312 312 305 306 305 305 306 304 305 304 305 305 305 304 301 299 298 301 301 302 302 302 302 303 303 303 303 302
319 317 323 329 330 330 328 327 325 324 324 325 324 323 321 317 313 312 310 309 303 303 303 302 302 302 303 303 302 300 298 298 300 299 299 300 301 301 300 299 299 301 301
320 322 325 324 326 325 324 323 323 322 322 322 322 324 322 320 316 313 312 309 303 300 298 300 299 300 302 304 302 297 298 298 297 296 296 297 298 298 298 297 298 299 299
314 319 321 321 320 319 320 321 320 320 320 320 321 322 320 319 317 314 312 310 309 309 301 296 297 297 298 298 297 297 296 296 296 297 298 296 297 297 296 296 296 297 296
316 317 317 317 316 315 316 317 318 317 317 317 316 317 317 315 313 312 309 308 307 306 306 300 297 297 296 297 296 296 296 296 297 296 295 296 295 295 295 296 296 295 295
313 313 314 313 313 314 314 314 314 313 313 312 310 310 310 310 306 304 303 303 302 302 301 299 297 296 295 295 295 295 295 294 294 295 294 294 293 294 294 294 293 293 294
308 309 309 310 310 310 310 310 310 309 308 307 307 306 304 303 303 302 301 299 298 299 299 295 294 293 293 293 294 294 294 292 292 293 292 292 291 292 292 293 292 292 291
304 304 305 305 304 304 305 305 305 305 304 304 303 303 301 300 298 297 296 296 296 296 296 296 292 292 291 292 291 291 291 291 291 291 290 290 291 292 291 290 290 290 290
300 300 301 301 301 301 301 301 300 300 300 299 298 296 296 295 295 295 295 294 294 294 294 294 292 291 291 290 290 290 290 290 288 288 288 288 288 288 288 288 288 288 288
297 296 297 297 297 296 295 296 296 296 295 294 294 294 294 294 294 294 294 292 292 291 291 291 290 290 289 289 289 288 288 288 287 287 287 287 286 284 284 284 284 285 286
294 295 295 294 294 294 294 294 294 294 292 292 292 292 292 293 292 292 292 291 291 291 290 290 289 289 288 288 287 287 286 286 285 285 285 284 284 283 284 284 285 285 287
292 292 292 292 292 293 292 293 293 293 292 291 291 291 291 291 291 290 290 290 290 290 290 289 288 288 287 286 286 286 285 285 284 285 284 284 283 283 284 285 285 285 287
290 291 291 292 292 292 291 292 292 291 290 289 288 287 286 285 286 286 286 286 286 286 286 286 286 286 286 285 285 285 285 285 284 283 283 282 283 284 284 285 285 285 286
289 290 290 290 291 289 288 287 287 286 285 284 285 285 284 285 286 287 285 286 286 285 286 286 285 285 285 285 286 285 285 284 283 282 282 282 282 283 283 284 284 284 286
287 286 287 287 287 287 288 286 284 284 284 284 283 284 285 286 286 286 285 284 284 284 284 284 284 283 282 282 282 283 283 282 281 281 282 282 282 282 281 282 283 284 284

GFSMA_925_thetae_045.txt.gz
Theta_e
327 323 325 326 327 328 327 328 329 329 327 324 321 316 314 313 312 313 318 323 325 326 328 327 326 324 322 320 319 318 318 317 317 318 317 316 316 316 316 316 316 317 317
333 327 329 330 330 330 330 329 327 326 327 324 320 317 316 315 312 312 314 320 324 325 325 327 325 323 322 320 319 318 318 316 316 316 316 315 315 315 315 315 315 315 315
334 333 330 330 331 331 331 331 330 328 329 328 325 323 319 316 313 312 312 316 321 324 324 325 325 323 322 320 319 318 318 316 316 315 314 314 313 314 313 313 313 313 314
335 335 335 333 333 332 331 331 331 330 330 330 329 325 323 323 315 312 312 313 317 322 323 322 322 323 321 320 319 319 317 316 315 314 313 313 312 312 312 311 311 311 311
335 334 335 335 335 333 331 331 332 331 331 331 330 328 322 319 322 316 313 311 312 317 320 320 319 320 320 320 319 318 317 316 314 313 312 311 311 310 310 310 310 310 310
334 333 334 334 334 334 334 333 333 333 333 332 330 330 325 321 319 318 315 313 311 313 317 319 318 317 318 319 319 318 317 316 313 311 310 309 309 309 309 309 309 309 310
338 337 335 334 333 333 333 333 333 333 333 332 327 326 326 323 316 314 312 313 313 311 313 317 317 316 316 317 318 318 316 315 315 311 310 309 309 309 308 309 309 309 310
338 337 336 335 335 335 334 333 332 332 332 331 325 314 313 317 320 320 317 314 312 311 311 314 316 315 314 315 316 316 314 314 315 313 310 309 308 308 308 309 309 309 309
338 336 336 336 335 334 333 333 332 331 330 329 327 323 311 311 308 317 318 315 311 309 309 311 314 315 313 312 314 314 311 312 312 312 311 310 308 308 308 307 308 308 309
317 322 327 330 331 333 332 331 331 331 330 328 327 324 323 316 312 313 312 311 309 308 309 308 309 312 312 311 312 312 311 308 307 307 308 310 309 308 307 307 307 307 308
312 313 316 317 323 333 332 331 331 330 329 328 327 324 320 313 310 308 317 310 311 311 309 306 307 307 308 310 311 310 309 306 304 303 306 309 309 307 307 306 306 307 306
316 315 315 321 324 328 331 331 329 328 327 327 326 324 322 317 312 310 308 312 309 311 312 312 313 311 308 306 308 309 307 306 302 303 305 306 306 306 304 305 305 305 303
315 319 319 324 327 329 330 329 328 325 324 323 323 324 323 322 320 316 312 311 308 307 307 307 306 306 305 304 305 306 305 306 303 303 303 304 303 302 302 302 302 302 302
313 319 322 324 323 324 325 326 324 322 322 322 321 322 322 321 320 318 313 311 307 303 302 306 308 306 303 302 301 303 305 305 303 303 303 301 300 299 299 300 300 300 301
314 316 319 319 318 317 317 319 320 319 320 318 316 316 316 315 314 313 312 311 310 308 306 305 302 302 301 301 300 301 302 301 301 300 299 299 298 298 299 298 298 298 299
314 315 316 316 315 315 314 315 316 315 315 313 310 310 311 310 309 309 308 307 306 306 305 303 303 299 297 296 298 300 299 299 299 298 298 298 298 298 297 297 297 298 297
311 312 312 312 312 312 312 312 312 311 309 308 308 308 308 307 306 305 305 304 304 302 300 301 299 298 296 295 297 297 297 297 297 296 297 296 296 296 295 295 295 295 296
306 308 308 308 308 308 308 308 307 307 307 306 305 305 305 304 303 302 300 300 299 298 298 296 295 294 294 293 292 294 294 294 294 293 293 293 293 293 293 294 294 294 294
303 303 303 303 303 303 304 304 304 303 303 303 302 302 301 300 300 299 299 297 296 296 295 295 293 292 292 292 291 292 292 292 292 291 291 292 292 292 293 293 292 291 291
299 299 299 299 298 299 299 299 299 299 298 298 297 297 297 297 296 295 294 294 294 294 294 293 292 291 291 290 290 290 290 290 290 290 288 289 289 289 290 289 289 289 289
296 296 296 296 295 295 295 296 296 296 294 293 293 293 293 293 293 293 293 292 292 292 292 291 291 290 290 289 289 289 289 288 287 287 287 287 287 287 286 285 284 284 286
293 293 293 293 293 293 293 294 294 292 294 293 292 292 293 292 292 293 292 291 291 291 290 290 289 288 287 287 287 287 286 286 285 285 285 285 284 284 283 284 284 284 285
292 292 293 293 293 293 292 293 293 292 292 291 290 290 290 289 289 289 289 289 289 289 289 288 288 287 286 286 286 285 285 285 284 285 284 283 283 283 284 284 285 285 286
292 292 292 292 292 291 291 291 291 291 290 287 285 285 284 285 287 287 286 286 286 285 286 286 285 285 285 285 285 285 285 284 284 283 283 282 282 283 284 285 285 285 285
290 290 290 290 289 288 287 285 285 285 284 284 284 285 285 285 287 286 285 285 285 285 285 285 285 285 285 285 285 285 284 284 283 282 282 282 282 282 283 284 283 284 286
287 288 288 287 287 288 287 285 283 283 283 283 283 283 284 286 286 286 284 284 283 283 283 283 283 282 282 282 282 282 282 282 281 280 282 282 282 282 281 282 283 283 284

GFSMA_925_thetae_048.txt.gz
Theta_e
329 322 320 324 326 328 328 327 328 329 329 327 325 322 318 315 313 313 313 316 322 325 329 329 328 325 323 322 320 320 319 317 317 318 318 317 317 317 317 317 317 318 318
332 331 325 325 328 328 329 329 329 329 328 327 327 324 320 317 316 315 312 313 317 321 324 328 327 325 323 322 320 320 319 318 317 318 316 316 315 316 316 316 316 316 316
334 333 333 329 329 330 330 330 330 330 330 328 329 329 326 325 320 319 315 312 313 316 320 324 327 326 325 322 321 320 318 318 317 317 316 315 314 315 314 314 314 315 315
335 334 334 334 333 332 331 331 331 330 331 330 330 330 330 328 325 322 317 315 313 313 316 319 322 325 324 323 322 320 319 318 316 316 315 314 313 313 313 312 312 312 312
335 335 335 334 334 334 333 333 332 330 331 331 331 331 331 330 328 325 323 321 319 315 313 315 320 321 321 322 322 320 319 318 317 315 314 313 312 312 311 311 311 311 311
336 335 335 334 334 334 334 333 333 332 331 331 330 330 330 330 329 327 324 320 316 314 313 313 316 319 320 320 321 321 320 318 317 315 313 312 312 311 310 310 310 310 310
338 336 335 333 333 332 333 332 332 332 332 331 330 329 327 328 327 327 327 324 318 314 311 312 315 318 319 318 318 320 319 319 318 316 313 311 310 310 310 310 310 310 310
338 338 338 337 336 335 334 333 332 330 330 330 329 320 319 321 326 325 323 321 318 313 312 310 311 315 318 317 316 317 318 318 317 317 315 312 311 310 309 310 310 310 310
337 337 337 337 336 336 335 334 333 332 329 328 328 326 318 318 311 323 320 322 318 315 313 311 309 310 313 316 315 315 317 316 316 315 317 313 311 310 309 310 309 309 309
313 314 316 321 326 329 332 332 332 331 330 327 325 325 324 319 315 316 317 317 321 320 317 315 313 308 310 310 313 313 315 315 314 313 314 313 313 311 310 310 308 308 309
313 313 312 312 316 319 321 330 332 331 330 329 325 324 323 318 314 311 316 316 315 317 317 315 314 314 307 307 308 312 312 313 313 311 309 308 310 312 311 309 308 308 308
313 315 316 316 317 323 326 326 331 330 329 327 326 325 324 320 315 312 309 309 312 314 314 314 314 313 311 311 311 309 309 311 309 309 308 305 309 310 309 308 307 307 306
312 312 318 319 323 325 328 328 329 328 327 325 324 323 321 320 319 317 314 313 310 310 312 313 312 311 310 308 306 305 305 307 307 307 308 308 308 307 307 305 305 305 305
313 313 319 322 322 322 324 326 326 324 323 322 320 318 317 318 317 316 314 312 310 306 305 309 309 309 307 305 304 301 301 304 306 306 307 308 306 305 304 302 302 302 302
313 314 316 317 317 316 316 318 320 320 319 316 316 315 315 314 314 313 312 310 309 310 307 306 305 305 304 302 301 300 300 301 303 305 305 306 304 302 301 300 301 302 301
312 313 314 314 313 313 313 314 315 314 313 310 309 309 310 310 310 309 309 309 308 306 305 304 301 301 301 300 299 298 299 300 301 304 303 302 301 300 300 300 299 299 299
309 309 310 310 310 310 310 311 310 309 307 306 307 307 307 307 307 306 306 306 304 303 301 301 299 298 297 296 296 297 298 299 301 300 300 299 299 298 298 297 297 297 297
304 305 306 306 307 306 306 306 305 305 305 304 303 303 303 302 301 300 299 299 299 298 298 296 296 295 294 294 294 295 295 296 297 297 297 296 295 295 294 295 295 295 295
301 301 301 302 302 302 302 302 302 301 300 299 299 298 297 297 297 296 296 296 296 296 296 295 294 293 292 291 291 292 292 293 293 293 293 292 293 293 293 293 294 294 293
298 298 298 298 298 298 298 298 298 298 297 295 294 294 294 294 294 295 295 295 295 294 294 294 292 291 291 291 290 290 290 290 290 291 290 290 290 290 290 291 290 291 290
296 295 295 294 294 294 295 296 295 293 293 293 293 293 294 294 293 293 293 293 293 292 292 291 291 290 290 289 289 289 289 288 287 287 287 287 287 287 287 287 286 286 284
294 293 293 293 293 293 293 293 292 293 293 293 292 292 292 292 293 292 292 292 291 290 290 289 288 287 287 286 286 286 286 286 285 285 285 285 285 284 284 283 283 283 284
293 293 293 293 292 293 292 291 292 292 291 290 289 288 288 287 287 288 288 288 288 288 288 287 287 286 286 286 285 285 285 284 284 284 284 283 283 283 284 284 284 284 286
292 292 292 293 292 290 290 290 290 289 288 285 284 284 284 286 288 285 285 285 285 285 286 285 285 285 285 285 285 285 284 284 284 283 282 282 282 283 284 284 285 285 285
291 291 290 289 289 287 285 284 284 284 283 283 284 285 286 286 287 286 284 283 283 284 284 284 284 284 284 284 284 284 284 283 283 282 281 281 282 282 283 284 284 284 285
289 289 288 287 287 287 287 284 283 283 283 283 283 283 283 286 285 285 284 283 282 282 283 283 282 281 280 281 281 281 281 282 281 280 281 282 282 282 282 282 283 283 283

GFSMA_925_thetae_051.txt.gz
Theta_e
329 324 320 321 325 327 327 328 327 327 328 328 326 325 323 321 317 314 314 314 314 319 323 330 329 326 324 323 322 321 319 318 317 318 317 317 317 318 318 318 318 319 319
332 331 329 323 323 326 327 328 329 330 330 329 328 328 327 325 323 320 317 315 313 314 318 322 328 328 326 323 322 321 320 319 317 318 317 316 316 316 316 316 317 317 317
333 333 332 332 329 328 329 330 330 330 330 331 331 330 330 329 328 326 323 321 317 313 314 317 324 327 327 326 323 322 321 318 318 317 317 316 315 315 315 315 315 315 316
333 334 334 333 333 333 332 331 331 331 331 330 331 331 331 331 330 330 328 325 323 320 315 314 316 323 326 326 324 323 321 319 318 317 317 315 314 314 314 313 313 313 313
333 334 335 334 334 334 334 333 333 332 332 331 331 331 331 331 331 331 330 328 323 320 317 314 314 318 322 324 324 322 322 321 319 317 316 315 314 313 313 312 311 311 311
335 335 335 335 335 334 334 333 333 333 332 331 331 330 331 331 330 330 330 330 329 322 318 316 313 314 319 322 323 322 321 321 321 319 316 314 314 313 312 312 311 311 311
337 336 337 336 335 334 333 333 332 332 331 331 328 329 328 329 328 326 326 326 326 325 321 315 311 311 314 320 321 321 321 321 321 320 317 315 313 312 312 311 311 311 311
338 338 338 338 338 335 334 333 332 330 329 329 328 323 325 325 323 323 323 324 322 321 319 315 313 311 310 314 318 318 320 320 320 321 320 316 314 312 311 311 311 311 311
336 336 336 336 336 336 335 335 334 332 329 328 327 327 323 324 317 323 323 321 322 320 318 318 317 314 311 310 314 317 317 317 319 318 319 319 315 313 311 311 311 311 310
312 312 313 315 318 322 327 330 331 332 330 328 327 325 324 322 321 320 319 318 320 319 316 317 317 315 312 310 309 310 313 315 315 316 315 314 317 314 312 311 311 310 309
314 314 315 314 312 313 316 319 321 328 330 329 327 324 322 320 316 318 318 318 317 317 317 316 314 313 314 314 313 311 308 309 313 315 317 315 314 312 313 312 311 310 309
311 312 313 315 316 319 319 322 324 324 330 329 328 324 322 320 317 314 313 312 313 315 315 314 313 311 310 310 309 309 309 308 309 314 315 316 313 310 311 309 312 309 309
311 312 312 317 319 322 324 327 328 328 327 325 325 322 321 319 319 318 315 314 312 311 312 311 311 309 308 306 306 306 306 306 306 310 313 316 313 310 307 309 310 308 307
312 312 313 318 319 320 322 324 324 323 325 323 321 320 318 317 317 316 315 313 312 309 308 310 308 307 305 305 304 303 303 303 303 306 310 312 313 310 308 309 307 305 305
312 313 314 315 316 316 316 318 320 320 319 319 317 316 315 314 313 313 312 312 311 312 311 306 304 303 304 303 302 301 300 300 301 302 304 308 309 307 304 304 303 302 302
310 311 312 312 313 313 313 313 314 313 312 312 311 311 311 310 309 309 308 308 307 308 309 303 302 301 300 298 298 298 298 299 300 302 304 305 305 303 301 300 301 301 300
307 307 308 309 309 310 310 310 310 307 307 306 306 306 306 306 305 305 304 303 303 302 302 299 299 298 297 297 296 296 297 298 299 300 301 301 301 300 299 299 299 298 298
304 304 305 306 306 306 306 306 306 305 305 304 303 303 302 301 301 300 300 300 299 299 299 297 296 296 295 295 295 295 295 296 296 299 298 298 298 298 297 297 297 296 297
301 301 301 302 301 301 302 302 302 301 300 300 299 299 298 298 298 298 298 297 297 296 296 295 294 294 293 292 293 293 293 293 294 295 296 295 295 295 295 295 295 295 295
298 298 298 297 298 298 298 298 298 297 295 295 294 295 295 295 296 296 296 295 295 295 294 294 293 292 291 291 291 290 291 291 291 291 291 291 290 291 292 293 292 292 292
296 296 295 295 294 295 295 294 294 294 294 294 294 294 294 294 293 294 293 293 292 292 292 292 292 291 291 290 289 288 288 287 287 287 287 287 287 287 288 288 288 288 288
294 294 294 294 293 293 293 292 293 293 293 293 293 292 293 293 293 292 292 291 291 291 290 289 288 288 287 286 285 286 286 286 287 285 284 285 285 284 284 284 284 284 284
294 294 293 293 293 292 292 292 292 292 291 290 289 289 288 288 288 289 288 288 288 288 287 287 286 286 286 285 285 285 284 284 285 284 283 284 282 283 284 284 284 284 285
293 293 293 292 291 290 289 290 289 288 287 285 284 284 286 287 287 285 284 284 285 285 285 285 285 285 285 285 285 285 284 284 283 283 282 283 282 283 284 284 284 284 285
292 291 291 289 288 287 285 284 284 284 283 284 285 285 285 287 287 285 284 283 282 284 284 284 284 284 284 284 284 284 284 283 283 282 281 282 282 283 283 283 283 284 285
291 290 289 287 287 287 286 284 283 283 283 283 283 283 285 286 286 285 284 283 282 282 283 282 281 280 280 280 280 281 281 282 281 282 281 282 282 282 284 283 283 284 284

GFSMA_925_thetae_054.txt.gz
Theta_e
331 329 327 327 329 331 331 332 333 331 331 331 330 329 327 325 322 318 318 318 315 315 320 326 332 330 327 325 322 322 320 319 317 319 318 317 318 318 318 319 319 319 319
333 332 331 329 327 330 331 332 333 333 333 333 332 332 330 328 325 322 320 321 323 317 314 317 322 329 329 327 325 322 321 320 318 318 318 317 316 316 317 317 318 317 318
335 334 334 333 332 331 331 332 333 333 333 333 333 333 332 332 330 327 324 322 322 323 321 315 316 326 328 328 327 325 322 320 318 317 318 317 316 316 316 316 316 316 317
335 335 335 335 335 334 333 333 334 334 334 334 334 334 334 333 332 331 330 326 323 322 322 322 316 316 326 327 327 326 324 323 320 318 317 317 316 315 315 315 314 314 314
336 336 336 336 336 335 335 334 334 334 334 335 335 333 333 333 332 331 330 329 326 323 322 321 320 316 316 321 326 326 325 324 322 320 318 317 315 315 314 314 313 313 312
336 336 337 337 337 337 336 335 334 334 334 334 334 332 332 332 331 330 329 327 327 323 321 320 320 320 318 316 321 325 324 323 323 322 320 318 316 315 314 313 312 312 312
336 336 337 337 337 337 336 336 335 335 335 334 330 331 332 330 329 328 327 324 322 321 320 319 318 318 318 318 316 321 324 323 322 323 322 319 317 316 314 313 313 312 312
339 339 338 338 337 337 336 336 335 334 332 331 330 326 329 326 325 324 323 321 320 317 316 315 315 315 315 316 317 319 321 323 322 322 322 322 319 316 315 314 312 312 312
335 335 335 336 335 334 333 333 333 333 332 330 328 328 329 326 325 324 323 319 317 316 316 315 315 314 314 314 314 314 314 318 318 321 321 320 321 317 315 314 313 312 313
314 314 313 316 323 326 327 330 333 333 330 329 326 326 326 326 326 325 322 320 320 319 318 318 315 314 313 313 312 310 309 310 313 317 319 319 319 316 315 314 314 313 313
313 313 314 315 315 315 319 322 324 325 328 327 328 325 325 320 319 321 323 320 318 317 317 316 314 313 311 310 310 310 311 311 309 312 316 317 318 318 315 314 313 313 312
311 311 311 314 316 321 321 321 322 325 326 326 327 327 324 324 321 320 319 317 317 316 316 315 311 309 307 306 306 307 307 307 307 309 313 317 317 318 315 313 314 313 312
313 314 312 316 318 320 321 325 324 322 324 324 326 325 323 322 320 318 317 318 317 316 314 312 307 306 305 305 305 305 305 305 305 306 310 313 315 315 317 315 312 310 314
312 312 313 315 316 318 319 321 322 323 324 324 323 322 320 319 317 317 317 317 316 315 313 312 304 303 304 304 303 303 302 302 302 302 304 306 308 311 315 312 311 309 307
310 311 312 313 314 315 316 318 319 320 320 319 318 317 316 314 313 313 313 313 313 313 312 309 308 304 304 303 302 300 299 300 301 302 303 305 308 309 309 309 306 307 306
308 309 310 311 312 313 313 313 312 313 314 313 312 311 310 309 309 308 308 308 309 310 311 306 302 303 302 299 298 298 298 299 301 302 302 302 304 306 305 304 303 303 303
305 306 307 308 309 308 309 309 308 308 308 307 308 307 306 307 306 305 305 304 305 305 306 301 300 299 298 297 296 296 296 299 299 299 298 299 300 301 301 301 300 300 300
302 303 303 304 304 305 305 305 305 305 305 304 303 303 302 302 302 301 301 301 300 300 301 301 297 296 296 294 294 294 294 295 296 297 297 298 298 298 298 298 298 298 298
300 300 300 300 300 301 301 300 301 300 300 299 299 299 299 300 299 298 298 297 297 297 297 299 297 295 293 293 293 293 293 293 294 294 295 296 296 296 295 296 296 296 296
299 299 298 297 297 297 298 299 298 296 296 296 296 296 296 296 296 296 296 296 296 296 296 296 295 295 293 292 291 292 295 293 293 291 291 291 291 291 292 293 294 294 294
297 297 296 296 295 294 294 295 296 295 294 294 295 295 294 294 294 294 294 294 295 295 295 295 295 295 294 293 292 290 291 290 290 288 288 288 288 288 288 288 289 289 290
295 295 294 295 294 294 293 294 293 293 293 293 293 293 294 294 293 293 292 292 292 292 293 293 293 293 291 289 288 288 288 288 290 287 286 287 286 286 286 286 285 284 284
294 294 294 294 293 292 292 293 293 292 292 292 291 291 291 291 290 289 290 290 289 288 287 289 289 288 288 287 286 287 287 287 287 286 285 286 285 285 286 285 285 285 285
293 293 293 292 292 291 291 291 290 289 288 287 286 286 288 288 287 286 286 286 286 287 286 286 287 287 286 286 286 286 286 285 285 285 284 285 286 286 286 286 285 285 285
293 293 292 290 290 288 287 285 285 284 284 285 286 286 287 288 288 286 285 284 284 285 284 284 284 284 284 284 284 285 286 285 286 285 283 284 286 285 286 286 285 284 285
292 291 289 288 287 287 285 283 283 284 284 284 284 284 285 286 286 286 285 285 284 284 284 284 282 281 280 281 280 282 283 284 284 286 284 284 285 284 287 286 285 285 285

GFSMA_925_thetae_057.txt.gz
Theta_e
332 329 328 328 328 329 331 332 334 333 332 333 333 332 331 330 328 325 322 321 323 319 315 319 332 332 330 327 325 322 321 320 318 318 319 317 317 318 318 319 319 319 319
334 333 332 329 327 329 331 332 334 335 335 334 334 334 333 332 331 328 325 324 323 325 323 317 316 327 329 330 328 325 322 321 319 318 319 318 316 316 317 317 318 317 317
335 335 335 335 334 331 332 333 334 334 335 335 334 334 334 334 333 333 331 328 326 324 324 325 320 317 326 328 329 328 325 322 321 319 318 318 317 316 317 316 316 316 317
336 337 337 337 337 336 335 335 335 335 335 335 335 335 334 334 333 333 333 332 331 327 324 324 324 321 319 327 328 328 328 325 323 321 319 318 317 315 316 316 315 315 315
336 337 337 338 338 337 337 336 336 336 336 336 335 335 334 333 333 332 332 331 331 330 326 325 323 321 321 317 323 327 327 326 325 323 321 320 318 316 315 315 314 314 313
338 338 338 337 337 337 337 337 336 335 335 335 335 334 334 333 332 331 330 329 327 327 326 324 323 322 322 320 317 323 326 326 325 324 323 321 320 318 316 315 314 313 313
338 338 338 338 337 337 337 337 336 335 335 335 334 332 333 332 330 329 328 326 324 323 321 320 320 320 319 319 318 318 321 325 325 324 323 323 321 319 318 316 314 313 312
338 338 337 337 337 337 337 336 335 335 334 333 332 329 330 327 327 327 325 324 322 320 319 317 317 317 316 317 317 317 317 321 323 324 323 323 323 322 319 317 315 314 313
333 334 336 334 336 334 334 334 334 333 333 331 331 329 330 328 326 325 325 323 321 319 320 318 316 316 315 315 315 315 315 314 315 318 320 321 322 320 320 317 316 315 314
320 319 317 317 320 326 328 327 328 329 329 330 329 327 327 328 328 326 324 323 321 320 319 318 317 315 314 313 313 312 312 310 310 311 315 319 320 320 319 317 317 316 314
314 314 314 317 318 319 317 319 322 324 326 326 326 325 325 326 324 322 322 321 320 319 317 318 315 314 311 310 309 308 307 308 308 310 314 316 317 319 319 320 318 316 316
314 314 312 312 317 320 322 322 323 323 324 325 323 325 326 323 321 320 320 321 318 317 317 315 312 309 308 307 307 306 306 306 307 307 310 313 316 317 317 319 319 317 316
314 315 315 315 317 319 320 320 321 321 321 322 322 324 325 325 323 321 319 319 318 317 315 314 309 307 306 306 305 304 304 303 304 305 307 309 310 310 312 315 315 315 314
313 314 314 315 316 317 318 319 320 320 321 321 322 324 323 322 321 318 318 318 317 316 314 313 307 305 305 304 304 302 301 301 304 305 304 305 308 308 309 312 313 311 311
311 310 312 313 314 315 316 317 317 318 318 318 319 319 318 317 315 315 314 315 315 315 314 310 308 305 303 303 303 300 299 299 302 303 304 305 305 308 309 312 309 308 309
307 308 310 311 311 312 312 313 314 313 314 314 314 313 312 311 311 310 310 310 311 312 313 308 305 303 302 300 300 299 298 298 300 300 300 301 302 304 306 307 306 306 306
305 306 307 307 308 308 309 311 310 310 310 309 309 309 308 308 308 307 307 307 307 307 308 305 302 300 299 298 297 297 297 296 298 299 299 299 299 299 301 301 302 302 302
303 303 304 304 305 305 306 308 307 306 307 307 306 306 304 304 304 304 304 303 303 301 303 304 300 297 297 296 295 295 295 294 295 296 297 298 298 298 298 298 298 299 299
302 302 302 302 302 302 303 303 304 303 303 302 302 302 301 302 301 300 300 299 299 299 299 300 298 297 296 296 295 293 294 294 294 293 292 293 294 295 295 295 296 296 296
300 299 300 300 299 299 299 299 299 299 299 298 298 298 298 298 298 297 297 297 297 297 297 298 297 296 295 294 293 293 293 294 292 291 290 290 290 290 291 292 294 294 294
297 297 297 297 297 296 296 296 296 296 296 296 296 295 295 295 295 295 296 295 295 296 296 296 296 296 295 294 293 291 290 290 290 289 288 288 288 288 288 288 288 288 289
296 296 296 296 296 295 295 295 295 295 295 295 294 294 294 294 293 293 292 292 292 292 292 293 293 294 293 290 289 289 288 288 289 288 287 286 287 286 286 286 286 285 284
296 295 295 295 294 294 293 294 294 294 293 293 293 293 292 292 291 290 290 290 289 287 287 289 289 289 288 288 287 287 288 287 287 287 285 286 286 286 287 286 286 286 285
294 294 295 294 293 292 291 292 291 291 290 290 289 289 289 289 287 286 286 287 287 287 287 287 287 287 287 287 287 286 286 286 286 286 284 285 286 286 286 287 287 286 286
293 293 293 293 292 291 289 288 287 286 285 285 286 287 288 288 288 286 286 285 285 285 285 284 284 284 283 283 284 284 286 286 286 285 284 284 286 286 286 287 286 285 285
293 292 292 290 289 288 285 284 284 285 285 285 285 285 285 287 287 286 286 286 284 285 284 284 283 282 281 282 281 282 284 284 285 286 284 284 285 285 285 287 286 286 286

GFSMA_925_thetae_060.txt.gz
Theta_e
329 329 328 328 328 329 331 332 332 333 332 332 333 332 332 331 330 328 324 322 323 324 322 316 329 329 330 329 327 325 322 321 320 317 317 316 315 317 318 319 319 319 318
333 331 329 327 327 328 330 331 332 334 334 334 334 334 334 333 333 332 329 327 325 325 325 324 319 324 329 331 330 328 325 322 321 319 318 318 315 313 316 317 317 318 317
335 334 334 333 332 328 330 332 333 334 334 334 334 334 334 334 333 333 333 332 331 329 327 325 324 321 325 328 329 330 328 325 323 320 319 319 317 314 314 315 316 316 316
335 336 335 336 335 335 334 333 334 334 335 334 333 333 333 334 333 334 333 333 332 331 329 327 324 324 322 325 328 329 328 327 325 323 321 320 319 317 315 316 315 315 315
335 336 337 337 337 337 336 336 335 334 334 334 334 334 334 333 333 332 332 331 330 330 328 328 326 323 322 322 321 326 328 327 326 326 324 322 320 319 317 316 315 314 314
337 337 337 337 336 336 336 336 335 334 334 334 333 334 334 333 333 333 332 330 329 325 325 324 323 322 321 321 319 319 324 326 326 325 325 324 322 320 319 317 316 314 314
338 338 338 336 336 337 336 336 335 335 334 333 333 333 332 332 332 331 330 327 325 322 321 320 319 318 318 317 318 319 320 323 325 325 324 324 323 323 321 319 317 315 314
337 337 336 336 336 336 336 335 335 334 333 333 333 329 328 326 326 326 327 325 323 321 319 317 317 316 316 316 316 316 316 316 317 320 322 323 322 322 321 321 319 316 315
338 337 337 336 336 335 334 333 333 333 334 333 332 330 327 324 324 324 324 323 322 321 320 319 316 315 314 314 314 314 314 313 312 314 317 319 321 321 321 319 319 317 316
331 330 328 324 324 326 328 328 325 325 328 329 329 329 326 327 326 322 323 323 321 319 318 318 316 314 313 313 312 311 309 309 310 312 315 317 318 319 320 321 320 319 317
315 314 314 315 316 317 318 317 318 322 325 325 325 324 324 322 323 324 323 321 320 319 318 317 315 313 311 309 308 308 307 307 308 308 312 314 316 318 319 319 320 320 319
314 313 312 312 313 316 318 321 322 322 322 324 323 322 321 323 322 321 320 319 320 320 317 316 314 312 308 307 306 305 304 304 304 307 309 311 312 313 314 316 318 318 320
314 314 315 314 314 316 318 319 320 319 320 320 319 321 321 324 324 322 320 319 317 318 314 311 310 309 307 306 305 304 303 303 306 307 308 309 308 309 310 311 315 315 315
313 313 313 312 313 315 316 318 318 319 319 319 320 321 321 323 322 321 320 318 316 316 315 310 306 307 305 304 303 302 301 301 303 305 307 306 305 306 309 310 313 313 316
311 310 310 311 313 313 314 315 316 317 318 318 319 320 320 319 318 318 317 317 316 314 309 307 305 304 303 302 301 300 299 299 300 301 302 303 304 307 311 312 312 310 310
308 308 308 310 311 311 312 313 313 313 314 315 315 314 313 313 313 313 313 312 312 312 307 308 304 303 301 300 299 299 297 297 299 299 300 301 302 303 305 306 306 306 306
306 306 306 307 308 308 309 311 311 310 310 310 310 310 309 309 309 308 308 308 308 307 306 303 302 301 299 298 297 297 297 296 296 297 298 299 300 300 300 301 302 303 304
304 304 304 304 305 305 306 307 308 307 307 307 306 306 305 306 306 304 305 304 303 302 304 302 300 298 297 296 295 296 296 295 295 294 295 296 296 297 297 298 299 299 299
302 302 302 302 302 303 303 304 305 305 305 304 304 303 302 303 302 301 301 300 300 299 300 300 298 297 296 294 295 294 295 294 294 292 291 291 291 293 293 295 295 295 297
301 301 301 300 300 300 301 301 301 301 300 300 300 300 300 299 298 298 298 297 297 298 298 298 297 297 296 295 294 293 291 291 290 291 289 289 289 289 289 289 291 293 294
299 299 299 298 298 298 298 297 298 298 298 297 297 297 296 296 296 296 296 296 296 296 296 295 296 295 295 294 291 289 289 288 288 288 288 287 287 287 287 287 287 287 288
297 297 297 297 296 296 296 296 296 296 296 296 295 295 295 294 294 294 294 294 294 294 294 294 294 293 290 289 288 288 288 287 287 287 287 285 286 286 286 286 286 285 284
297 296 296 296 295 295 294 295 295 295 295 294 294 293 293 292 292 291 291 290 289 288 289 289 288 288 288 287 287 286 287 287 286 286 285 284 286 286 287 287 287 287 286
296 295 295 295 294 293 292 293 293 293 293 292 292 291 290 288 287 287 287 287 287 287 287 287 287 287 287 287 287 286 286 286 286 286 285 284 285 286 286 286 287 286 286
295 295 294 294 293 291 290 290 289 288 287 286 286 288 288 288 288 286 286 285 285 285 285 284 284 284 283 283 283 284 284 286 285 285 284 284 285 285 286 287 286 286 286
295 294 293 293 292 290 288 285 285 285 286 286 286 286 287 287 287 286 286 286 284 284 284 284 284 283 282 281 281 281 283 284 285 285 284 284 284 284 284 287 286 286 286

GFSMA_925_thetae_063.txt.gz
Theta_e
328 329 330 330 329 329 331 333 332 332 332 331 332 332 332 332 332 331 329 327 326 325 324 325 326 331 329 329 328 326 324 322 321 319 316 314 312 313 317 319 319 319 319
331 328 328 328 327 328 329 330 330 332 334 334 334 333 333 333 333 333 332 332 330 329 327 327 325 324 329 330 330 329 327 325 323 320 319 318 315 312 314 316 317 318 317
333 333 330 329 328 327 327 330 332 333 333 333 333 334 333 333 334 332 332 331 332 329 328 328 326 325 323 327 329 329 328 327 326 323 320 320 318 316 314 314 315 317 316
335 334 334 334 334 333 332 331 332 333 334 334 332 332 333 334 334 333 333 332 332 331 329 327 326 324 323 322 326 328 329 327 327 325 324 321 320 318 317 315 314 317 316
335 335 335 336 336 336 335 335 334 334 333 332 332 332 333 333 334 333 333 332 331 329 325 326 326 324 323 322 321 324 325 327 326 325 325 324 322 321 319 317 316 315 315
335 335 336 336 335 335 335 335 334 334 333 332 332 333 331 331 332 332 332 332 329 325 324 323 322 321 320 320 319 322 323 324 325 325 325 324 324 322 321 319 318 316 315
337 336 336 336 335 335 335 334 335 335 333 332 331 331 331 328 329 326 327 330 325 322 321 320 318 317 317 317 317 318 318 318 319 322 324 324 323 323 324 322 319 317 316
337 336 336 336 335 334 334 334 334 334 333 331 332 331 329 326 325 325 326 323 322 321 320 319 318 317 316 316 315 315 315 315 315 318 318 319 321 323 321 322 321 319 317
337 336 336 336 335 334 334 333 332 331 331 329 329 331 328 323 322 324 323 322 323 321 320 318 317 316 315 314 314 313 313 312 313 316 317 318 319 319 321 320 320 321 319
337 336 335 335 334 333 333 330 329 327 325 326 328 330 329 328 325 322 322 323 321 319 319 317 316 315 315 313 311 310 309 309 309 311 314 316 317 318 319 321 321 321 320
332 324 319 315 315 316 316 317 317 318 323 326 324 324 325 324 323 323 322 320 320 318 316 316 314 314 313 311 308 307 307 306 306 307 310 313 314 315 317 318 319 320 321
314 314 313 312 312 313 315 317 320 321 322 322 323 323 322 321 321 320 317 319 319 317 314 313 311 311 310 308 307 305 304 304 309 309 310 311 311 311 311 312 315 317 319
313 314 314 314 313 313 315 317 318 319 318 318 318 319 319 320 321 322 321 318 317 317 310 308 308 308 307 306 305 304 302 304 305 309 311 310 308 309 312 309 312 314 316
313 313 313 313 312 312 314 315 317 318 319 319 317 318 319 321 322 323 322 319 316 316 312 307 305 305 305 304 303 302 301 301 302 303 304 304 305 307 311 312 313 313 316
312 311 311 310 310 312 312 314 313 315 316 316 317 318 319 320 320 320 319 319 316 313 313 305 304 303 303 302 301 300 299 299 300 300 300 301 303 306 308 310 311 311 312
309 309 308 308 310 310 311 312 312 313 314 315 315 315 315 316 316 315 315 314 314 313 310 306 303 301 300 299 299 298 297 297 298 299 299 300 301 303 304 306 307 308 309
307 307 306 306 307 308 308 309 310 311 311 311 311 311 311 311 311 310 310 310 309 309 307 303 302 300 298 298 297 298 297 296 296 296 298 299 299 300 300 301 302 303 304
305 304 304 304 305 305 306 307 308 308 308 309 308 308 308 308 307 307 306 306 306 304 304 302 300 298 297 298 296 295 295 295 294 293 294 296 296 297 298 297 298 299 299
303 303 303 303 303 303 303 304 306 307 306 306 306 305 305 304 305 303 303 302 301 300 301 301 298 297 296 296 294 293 295 292 292 291 291 291 291 292 293 294 295 296 296
302 302 302 301 301 301 301 302 302 303 303 303 303 302 302 302 301 300 299 299 298 298 298 299 297 297 296 295 294 292 291 290 290 290 288 288 288 288 288 288 289 292 294
301 301 300 300 299 299 299 299 300 300 300 299 299 299 299 298 298 297 297 297 297 297 297 297 297 296 295 294 291 289 288 287 287 288 287 286 286 286 286 287 287 287 287
300 299 299 298 297 297 297 297 297 298 298 297 297 296 295 295 295 295 295 295 295 295 295 295 295 294 291 290 289 288 287 287 287 287 285 285 286 286 286 286 286 286 286
298 298 297 296 296 296 296 296 296 296 296 295 295 295 294 293 293 292 292 291 290 290 291 291 291 289 288 288 287 286 286 286 286 285 286 284 286 286 286 286 286 287 286
296 296 296 295 295 294 294 294 295 294 294 294 294 293 292 291 290 289 288 287 287 287 286 286 287 287 287 287 287 286 286 286 285 285 284 284 285 286 286 286 286 286 286
296 295 295 294 294 293 292 292 293 292 292 292 291 289 289 288 287 286 286 285 285 286 285 284 284 284 284 283 283 284 284 285 285 284 284 284 284 285 286 287 286 286 286
296 295 295 294 293 293 291 289 287 286 286 286 286 287 288 288 289 287 286 286 285 284 284 284 284 283 282 282 282 281 283 284 284 284 284 285 284 284 285 286 286 286 286

GFSMA_925_thetae_066.txt.gz
Theta_e
330 328 329 330 328 331 331 333 332 331 332 331 331 331 332 332 332 332 332 332 330 328 327 326 325 329 330 330 329 327 326 325 323 321 319 317 312 313 317 319 319 319 320
329 328 329 330 328 328 328 330 330 331 333 333 333 333 333 333 333 333 332 332 332 330 328 327 326 325 327 329 329 329 328 327 326 324 321 319 317 313 312 314 318 318 318
332 331 328 327 327 327 328 329 330 331 332 333 333 333 333 332 331 333 333 331 331 330 327 327 326 326 325 327 328 329 329 327 327 325 324 321 319 317 316 313 315 317 317
334 333 330 330 330 329 327 328 330 332 332 333 331 330 331 332 332 333 332 332 331 329 329 329 324 325 324 323 324 325 327 328 326 327 325 324 322 320 318 316 314 317 316
335 334 334 334 334 334 334 333 333 333 332 331 331 330 330 330 330 331 332 332 331 331 327 325 325 324 322 322 321 324 324 325 325 326 325 325 324 322 321 319 318 316 316
335 335 335 335 336 335 335 334 333 332 333 332 332 332 329 328 329 328 328 328 331 329 325 325 322 320 320 319 319 320 321 322 321 323 324 324 324 324 322 321 319 318 316
336 335 334 335 336 335 334 334 333 333 332 331 331 330 330 328 327 327 326 326 328 323 322 320 319 318 317 317 316 316 316 316 319 320 320 321 323 323 322 323 322 319 318
335 335 335 335 335 334 333 333 333 333 333 331 330 329 326 326 325 324 325 325 322 319 320 319 318 317 317 316 315 315 314 314 316 318 319 319 319 320 322 321 321 321 320
336 336 336 336 336 334 334 334 333 332 331 331 330 329 324 322 321 323 322 320 319 319 319 318 318 316 315 315 314 313 312 311 311 314 316 317 317 318 319 320 320 320 321
336 336 335 335 335 334 333 333 333 331 329 326 324 325 329 328 323 320 321 321 319 319 317 317 315 314 314 313 312 310 308 307 309 311 313 314 315 316 317 319 320 321 321
332 333 334 333 329 323 318 316 315 316 317 321 324 324 323 325 326 321 319 319 318 316 315 314 313 312 311 310 309 308 307 306 311 311 312 313 313 314 315 316 317 318 320
330 327 317 314 312 312 312 313 315 318 320 321 321 322 323 321 319 319 316 317 317 315 313 311 310 309 308 308 308 306 305 304 308 313 312 311 310 311 313 314 313 314 317
320 315 313 312 313 313 313 314 315 316 317 318 317 317 318 319 320 320 320 319 318 312 308 308 307 307 307 306 306 304 304 304 305 308 309 308 307 308 311 315 313 314 315
314 313 313 313 313 312 312 313 314 315 316 318 318 319 317 317 319 320 320 320 317 316 308 305 304 304 304 304 304 303 302 301 302 302 303 303 304 307 309 313 313 314 314
312 312 312 311 310 310 310 312 312 314 313 315 316 316 316 316 317 319 321 320 319 318 314 304 302 302 302 302 302 302 300 299 300 300 300 300 302 305 308 309 310 309 312
311 311 310 309 309 309 310 310 311 312 312 312 314 314 315 316 317 317 317 316 315 314 311 305 302 301 300 300 300 300 299 298 298 298 299 299 301 301 303 306 307 308 308
309 308 308 307 307 307 308 308 310 310 310 311 311 312 312 312 312 312 312 311 311 311 308 302 302 300 299 299 299 297 297 297 297 296 297 297 299 299 299 300 302 305 306
307 306 306 305 305 305 306 306 307 309 309 309 309 309 309 309 309 308 307 308 307 306 306 302 299 298 298 298 297 295 295 295 294 293 294 293 294 296 297 297 298 299 300
305 304 304 303 303 303 303 303 304 306 307 306 307 307 306 305 305 304 304 303 303 303 302 302 299 298 297 296 295 294 294 293 292 292 291 290 290 291 292 294 295 296 296
303 303 302 302 302 302 302 301 302 303 304 305 304 304 304 303 303 302 301 301 300 299 299 300 298 296 296 295 294 292 291 290 290 290 289 288 288 288 288 288 289 290 293
302 302 301 301 300 300 300 300 300 300 301 301 301 301 301 300 300 300 299 298 298 298 298 298 297 296 295 294 293 290 289 287 287 287 287 286 285 286 286 287 286 286 286
301 300 300 299 299 298 298 298 298 298 298 298 298 298 297 297 297 296 296 296 296 296 296 296 296 295 293 292 290 288 287 287 286 287 285 285 286 285 286 286 286 286 286
299 299 298 298 298 297 297 297 297 297 297 297 296 296 295 295 295 294 293 294 294 294 294 294 294 293 291 289 288 287 286 286 286 285 285 284 286 286 286 286 286 287 286
298 297 297 297 296 296 296 296 296 295 295 295 295 294 294 293 293 291 291 289 287 287 287 288 289 288 288 288 287 286 286 285 285 285 284 284 285 285 285 286 287 286 286
297 297 297 296 295 295 294 294 294 294 294 294 293 293 293 291 288 287 287 286 286 286 285 285 286 286 286 285 284 285 285 285 284 284 284 285 284 285 286 286 286 286 286
297 296 296 295 295 294 294 292 292 292 292 292 291 289 288 288 289 288 286 285 285 285 285 284 284 283 282 282 282 282 282 284 284 284 284 285 284 284 285 286 286 286 286

GFSMA_925_thetae_069.txt.gz
Theta_e
332 331 330 329 325 324 329 332 331 331 331 331 330 331 332 332 332 332 332 331 331 330 328 326 327 328 328 328 329 328 327 326 326 325 322 319 315 312 314 317 319 319 320
329 329 328 330 329 328 330 330 330 331 331 332 333 333 333 333 332 332 332 331 331 330 326 327 326 327 326 328 329 329 327 327 327 326 324 323 319 316 313 313 317 318 318
329 329 328 329 328 327 327 328 329 329 331 332 332 333 333 332 330 331 330 332 330 331 330 328 327 326 327 325 328 328 327 327 327 327 326 324 323 320 317 315 313 316 317
331 330 330 327 327 326 326 327 328 330 331 332 332 330 329 330 329 329 329 332 332 330 330 329 328 324 324 325 323 326 326 326 325 326 326 326 324 323 321 319 315 315 317
334 332 333 330 331 331 330 330 331 332 332 331 330 330 330 329 328 327 328 327 328 329 331 326 325 325 324 321 321 324 325 324 322 324 325 324 325 324 322 321 319 316 318
335 334 334 333 333 334 334 334 332 332 332 332 331 331 330 330 328 328 326 327 328 328 328 325 325 322 320 319 319 319 319 321 321 321 320 322 323 323 324 322 321 320 317
335 335 334 334 335 335 335 333 333 333 333 332 331 330 329 329 328 326 326 325 324 327 325 323 321 320 318 317 317 316 316 317 319 319 319 320 319 321 323 322 323 322 320
335 334 334 334 335 335 335 334 333 333 332 331 331 328 325 326 325 323 324 325 324 322 320 320 319 318 316 316 315 314 313 313 314 317 317 317 318 319 320 321 321 321 323
335 335 334 334 335 336 335 334 333 333 333 331 330 330 326 322 320 322 321 319 318 318 318 319 317 316 315 315 314 312 310 309 310 314 315 316 316 316 317 319 321 321 321
334 334 335 335 333 334 334 332 332 331 331 331 327 323 326 327 324 320 320 319 317 317 317 316 315 314 314 313 312 309 308 307 313 313 313 314 315 315 316 317 319 319 320
333 334 333 332 329 328 328 331 322 317 316 317 319 322 322 323 324 323 320 318 317 316 315 314 313 313 313 311 309 308 307 306 310 314 313 313 313 312 313 314 314 316 317
332 332 331 329 327 325 320 313 312 313 316 318 319 320 321 320 318 318 316 316 315 312 312 311 311 311 310 308 308 306 306 305 309 311 313 312 311 311 313 315 316 314 315
326 328 321 321 320 312 312 312 312 313 315 316 317 317 317 317 319 320 318 317 315 311 308 308 308 308 307 306 305 305 305 304 304 307 308 308 306 307 312 315 314 313 313
325 322 324 317 312 312 312 311 312 313 314 315 317 318 318 318 318 318 318 317 316 314 307 305 305 305 305 305 304 305 303 302 302 303 303 303 303 306 308 310 311 312 315
322 320 314 313 312 311 311 311 312 312 313 313 313 315 316 316 316 314 315 319 319 316 312 304 304 303 304 303 303 303 302 300 300 301 300 300 301 304 305 306 308 308 311
313 312 312 311 310 310 310 310 310 310 312 312 312 312 313 314 314 315 317 317 317 316 314 304 302 302 301 301 301 302 300 299 298 298 299 299 299 300 301 303 305 305 307
311 311 310 309 308 308 307 307 308 308 310 310 310 310 311 312 312 313 313 312 312 310 309 301 301 300 300 299 300 299 298 297 297 296 297 296 297 298 299 300 301 304 305
309 308 308 307 306 306 305 305 305 306 307 309 309 309 309 309 309 309 308 308 308 308 307 302 299 298 298 298 298 297 295 295 294 294 293 293 293 295 297 297 298 299 300
307 307 306 305 304 303 303 303 303 303 304 307 307 307 307 307 306 306 305 304 304 303 303 303 298 298 297 296 296 295 294 294 293 292 291 290 291 291 292 294 294 295 297
306 305 304 303 302 302 302 302 301 302 302 303 304 305 305 304 304 303 302 302 301 301 300 300 299 297 296 295 294 293 293 291 291 290 289 288 288 288 288 289 288 289 291
304 303 302 301 301 301 300 300 300 300 300 301 301 302 301 302 302 301 300 300 299 299 298 298 297 296 295 294 294 292 290 289 288 287 287 286 286 286 286 286 286 286 286
302 301 301 300 300 299 299 299 298 298 299 299 299 298 299 299 298 298 298 297 297 297 297 297 296 295 295 294 293 290 288 287 285 286 286 285 285 285 285 286 286 286 287
301 300 299 299 299 298 298 297 298 297 297 297 297 297 296 296 296 296 295 295 294 295 295 295 295 295 294 293 291 288 287 286 285 285 285 284 285 286 286 286 286 287 286
300 299 298 298 297 297 297 296 297 296 296 296 296 295 295 294 294 294 293 291 290 289 290 292 292 292 291 289 288 287 286 285 285 285 284 284 284 285 285 286 287 286 286
299 298 297 298 296 296 296 295 295 295 295 295 294 294 293 293 292 290 289 287 286 286 286 286 286 287 287 287 286 286 285 285 284 284 284 284 284 285 286 286 286 286 286
298 298 297 296 295 295 295 294 294 293 293 293 293 292 292 291 288 289 286 286 285 286 285 285 284 284 283 283 284 283 282 284 284 284 284 285 284 284 285 286 285 286 286

GFSMA_925_thetae_072.txt.gz
Theta_e
332 331 331 329 324 321 323 329 330 330 330 330 330 330 331 332 332 332 331 331 331 330 328 325 326 327 327 329 327 328 327 327 325 325 325 324 320 315 313 313 315 319 319
331 332 330 329 327 322 329 331 331 331 331 332 332 332 332 332 332 331 330 329 330 331 330 330 326 327 328 327 327 328 328 328 327 327 325 324 324 321 317 314 314 317 317
329 330 329 328 329 328 328 329 329 329 329 331 332 332 332 330 329 329 328 328 330 332 330 328 327 326 327 326 327 327 327 326 326 326 325 326 324 323 322 318 313 314 316
330 329 329 328 328 328 327 327 328 328 330 331 332 330 329 329 329 328 328 326 327 327 329 330 329 326 325 324 323 325 326 324 324 324 324 325 326 324 323 321 319 314 315
334 331 330 331 327 327 327 326 326 328 331 331 330 329 329 330 329 330 327 328 327 327 328 329 326 325 324 323 321 324 324 322 320 320 322 324 324 325 324 322 321 318 316
335 332 331 331 330 331 331 330 331 330 330 330 331 330 329 329 328 328 328 327 327 326 327 327 324 324 322 319 318 318 319 321 321 320 321 320 322 323 323 324 323 321 319
335 334 333 332 333 333 334 334 333 332 332 332 331 330 329 327 326 327 325 324 324 324 327 324 323 320 318 317 316 315 315 317 319 319 318 319 319 320 321 323 323 323 322
335 335 334 334 334 334 335 335 334 333 331 330 331 328 323 324 324 324 323 324 324 324 322 320 319 318 316 316 315 314 312 311 314 316 316 316 317 317 317 319 321 322 322
335 335 335 334 333 334 335 334 333 333 332 332 331 330 326 321 319 321 321 320 320 319 318 317 317 316 316 315 315 312 310 308 314 315 315 315 316 316 316 317 320 320 320
334 335 333 333 333 333 331 331 333 331 331 330 329 328 328 326 320 317 319 318 317 317 316 317 316 315 315 314 313 311 309 308 314 315 314 314 315 315 315 316 317 319 319
333 334 332 332 331 329 325 325 325 326 321 318 317 319 321 321 324 320 318 317 317 316 316 315 314 313 313 312 311 310 309 307 310 315 315 314 313 313 313 315 316 316 317
331 330 329 330 328 326 325 323 322 315 312 314 316 318 319 318 317 317 317 316 315 314 314 312 312 312 311 310 309 309 308 306 308 311 311 311 309 310 314 314 314 316 315
329 328 328 327 327 326 324 321 312 312 313 314 315 316 317 317 317 317 317 317 315 312 311 310 310 309 308 308 307 307 306 305 304 307 308 307 305 307 310 313 314 315 314
329 329 328 326 324 321 313 313 312 312 312 313 314 315 316 316 317 317 317 317 315 313 309 309 308 308 306 305 306 306 303 303 302 304 304 303 303 305 307 309 309 311 313
329 327 325 325 318 313 312 311 311 311 311 312 313 312 313 315 316 316 316 314 316 317 312 306 307 306 304 304 304 303 302 301 301 301 301 300 301 303 304 306 308 308 311
324 324 321 316 313 311 310 310 310 310 310 311 312 312 312 312 313 314 314 314 315 316 316 307 304 303 302 302 303 302 300 300 299 298 299 299 299 300 301 303 304 305 307
315 313 313 311 310 309 308 307 307 307 307 309 310 310 310 310 311 312 312 313 312 312 309 302 302 302 300 301 300 300 299 299 298 296 297 296 298 298 299 300 301 304 304
311 311 310 308 307 306 305 305 305 305 305 305 307 308 308 308 309 309 309 309 308 308 308 303 301 299 299 299 299 298 297 297 295 294 294 293 294 295 297 297 298 299 302
309 308 307 306 305 304 304 304 303 303 303 303 305 307 307 307 307 307 306 306 305 305 304 303 298 298 297 297 296 295 295 294 293 293 291 291 291 292 293 294 294 296 297
307 306 305 305 304 303 303 303 302 302 302 302 302 303 304 305 305 304 304 303 302 302 302 301 299 297 297 295 295 294 294 292 292 291 290 289 288 288 289 290 289 289 292
305 304 304 303 303 302 302 301 301 300 300 300 301 301 301 302 303 302 301 301 300 300 299 299 298 296 295 294 294 294 293 291 289 288 288 287 286 286 286 287 286 286 286
304 304 303 302 302 301 300 300 299 299 299 299 299 299 299 299 299 299 299 298 298 298 298 297 297 296 295 295 293 292 290 288 286 286 286 285 285 285 285 285 287 287 287
303 302 302 301 300 300 299 298 298 297 297 298 298 297 297 297 297 297 296 295 295 295 295 296 296 295 295 295 294 291 289 287 286 285 285 284 285 285 286 286 286 287 287
302 301 300 299 299 298 298 297 297 297 297 297 297 296 296 296 295 294 294 293 292 292 293 293 294 294 294 293 291 290 288 286 285 285 284 284 284 285 285 286 288 287 287
300 300 300 298 298 298 296 296 296 296 295 295 295 295 294 294 293 292 292 290 287 286 286 286 287 288 288 288 287 287 286 285 284 284 284 284 284 284 285 286 287 287 286
300 299 298 297 297 297 296 295 295 294 294 294 294 293 293 293 292 290 288 287 286 286 286 285 286 286 286 286 285 284 284 284 284 283 284 285 284 284 285 285 286 286 286

GFSMA_925_thetae_075.txt.gz
Theta_e
327 324 323 324 322 321 320 324 326 328 329 329 330 330 331 331 331 331 331 330 329 329 330 329 326 327 329 326 326 327 328 327 326 325 324 324 323 320 317 313 314 319 318
331 330 330 329 327 322 322 324 330 330 330 331 331 332 332 332 331 329 329 328 328 329 330 330 329 327 330 327 326 326 327 326 326 326 327 326 324 323 321 317 313 315 314
330 330 331 329 328 327 324 329 330 329 329 330 331 331 332 330 329 329 329 328 327 327 327 329 329 328 328 327 324 325 325 324 324 324 325 326 326 323 322 321 317 314 313
329 329 330 329 328 329 327 327 328 328 329 330 331 331 329 329 329 329 329 328 327 327 326 327 327 329 328 326 324 326 325 324 321 320 324 324 325 326 324 321 320 317 314
329 329 330 330 328 327 327 327 326 327 329 331 331 330 328 329 330 329 329 328 327 327 326 327 327 326 325 324 323 324 322 321 320 321 320 321 323 323 325 324 322 320 318
331 332 332 331 330 327 326 326 326 327 330 330 330 330 328 329 328 327 326 327 326 326 326 327 327 323 324 322 319 318 319 320 320 320 319 320 321 322 323 324 325 322 320
335 335 333 331 330 330 330 331 330 329 330 331 331 329 329 328 326 325 325 324 323 323 325 325 323 323 321 319 316 316 315 314 317 318 318 317 318 318 319 321 322 324 323
334 335 335 334 331 332 332 333 333 333 333 331 330 327 329 326 323 323 322 323 323 323 324 323 322 320 318 316 316 315 313 310 315 316 316 317 316 317 317 318 320 322 322
334 333 334 334 333 332 333 334 333 333 332 331 331 329 329 327 323 322 321 320 321 321 320 320 318 317 316 315 315 314 312 310 314 316 315 315 315 315 316 317 319 320 321
332 332 332 333 333 332 332 333 331 330 330 331 329 328 327 326 326 322 319 318 317 317 316 316 316 315 314 314 314 313 311 310 313 315 315 315 315 315 314 315 316 318 320
331 331 331 331 331 331 328 326 325 323 323 325 323 319 319 320 320 321 321 320 317 316 315 315 315 314 313 312 311 310 310 309 309 314 315 314 313 313 315 318 317 317 317
331 331 330 330 329 328 327 325 324 323 323 318 314 315 317 318 319 317 318 318 318 317 316 315 314 313 311 310 310 309 308 307 307 309 311 311 309 310 313 317 314 315 315
329 329 329 328 327 326 325 323 323 322 316 314 315 316 316 317 317 317 318 317 317 315 313 313 313 313 312 310 309 308 307 307 306 307 308 308 306 307 310 313 314 314 316
328 329 329 327 326 325 323 319 315 313 313 313 313 314 314 315 315 315 316 315 317 316 312 312 311 309 308 308 308 307 306 305 304 304 304 303 303 305 308 309 309 310 312
326 327 327 323 322 323 321 315 313 312 311 311 312 312 312 312 313 314 315 315 316 316 316 311 309 309 306 305 306 305 304 302 303 302 301 300 301 303 304 306 307 307 310
324 324 324 324 321 317 313 311 311 310 310 310 310 311 311 311 312 312 313 314 315 315 315 311 307 306 305 304 303 303 303 302 300 300 299 299 299 301 302 303 305 305 307
321 321 319 317 314 311 310 309 309 308 307 307 308 310 310 310 310 310 311 312 312 312 311 304 305 303 302 302 302 301 299 299 298 297 297 296 297 299 300 300 301 303 304
315 316 314 312 310 308 308 307 306 305 305 305 305 307 308 308 308 308 309 309 309 309 308 304 302 300 300 299 299 298 297 297 296 295 294 294 294 296 297 298 299 299 302
310 310 310 309 308 306 306 305 304 304 303 304 304 304 306 307 307 307 307 307 306 306 305 305 300 299 298 297 296 296 296 295 294 294 294 293 293 292 294 294 295 296 298
308 308 307 306 305 304 304 303 303 303 302 302 302 302 303 303 304 305 305 305 304 303 302 302 300 298 298 296 296 295 294 294 293 292 291 290 290 289 291 290 290 290 293
306 306 305 304 304 303 303 302 302 301 301 301 301 301 301 301 302 303 303 303 302 301 300 299 298 297 295 294 294 293 293 292 291 290 290 288 287 287 287 287 287 286 287
305 304 304 303 303 302 301 301 301 300 300 299 299 299 299 300 300 300 300 300 299 299 298 298 297 297 296 295 295 294 292 290 290 288 287 286 286 285 285 286 287 287 287
303 303 302 302 301 301 300 299 299 299 298 298 298 298 298 298 298 298 297 297 297 297 297 297 297 297 296 296 295 293 291 289 287 286 285 285 285 285 285 286 287 287 288
302 302 301 301 300 300 299 299 298 298 297 297 297 297 297 297 296 296 295 294 294 293 294 294 295 295 295 295 294 294 291 288 286 285 285 286 284 285 285 286 288 289 288
301 301 301 300 300 299 298 297 297 296 296 296 296 296 296 295 295 294 293 292 291 289 287 287 290 293 293 292 291 290 288 286 285 284 284 284 284 284 285 287 288 288 287
301 300 300 299 299 298 297 297 296 295 295 295 295 295 295 294 293 292 292 290 287 286 286 287 287 288 287 287 287 286 286 285 285 285 284 285 284 284 286 286 287 286 286

GFSMA_925_thetae_078.txt.gz
Theta_e
329 328 328 327 326 325 324 323 324 325 327 330 331 331 331 331 331 331 331 330 329 329 329 330 328 328 330 329 328 327 327 328 326 327 326 324 323 322 319 316 312 317 318
331 329 329 329 329 326 325 325 328 330 331 332 332 332 332 332 332 332 331 330 328 328 328 330 330 329 330 330 327 327 326 324 324 326 327 327 326 323 322 319 315 314 313
333 333 333 333 331 329 325 327 329 332 332 333 332 333 332 332 331 330 331 330 330 329 327 326 328 328 328 330 327 325 324 323 323 322 324 324 326 326 323 321 319 316 314
335 332 332 333 332 330 328 329 331 331 330 331 332 332 331 331 331 330 331 330 330 330 330 328 327 327 329 329 325 326 324 323 320 319 320 323 324 325 325 324 321 319 316
335 333 332 333 332 330 330 329 329 329 330 332 332 332 331 330 330 330 329 330 330 329 329 329 327 328 327 326 325 325 321 319 319 320 319 321 322 324 324 326 324 321 319
332 332 332 333 332 330 329 330 328 328 331 332 331 329 328 330 330 329 328 326 326 327 327 328 327 326 324 324 323 321 319 317 319 320 318 319 320 321 322 323 324 324 321
334 335 331 330 332 331 329 328 329 330 331 331 330 330 330 329 329 327 325 324 325 325 325 326 327 327 323 322 319 317 316 314 313 314 314 318 317 318 318 319 322 323 325
331 332 331 333 330 331 332 330 331 332 332 331 331 331 330 328 326 324 323 323 323 323 324 324 324 323 321 319 317 315 314 312 316 317 317 316 317 316 317 317 319 321 323
330 331 331 330 331 328 332 333 333 334 333 332 330 329 330 328 326 324 323 321 321 322 321 321 319 318 317 316 315 314 312 311 315 316 316 316 315 316 316 317 318 320 321
331 331 330 331 331 330 329 332 334 333 332 331 330 329 329 329 327 322 321 321 320 320 320 318 317 315 315 315 315 313 311 311 315 317 317 317 315 315 316 316 317 316 318
325 326 327 330 331 331 331 330 331 329 328 326 326 324 323 324 323 322 320 318 320 319 318 317 315 314 314 314 313 311 310 310 311 314 314 314 313 312 314 318 316 317 318
327 326 327 329 326 329 330 329 327 323 323 323 322 319 316 319 320 320 320 318 318 318 318 316 315 313 312 313 312 312 310 309 309 309 312 312 310 310 313 316 317 316 316
328 328 329 329 328 328 328 326 325 324 323 320 316 315 317 318 319 318 318 318 318 317 317 315 314 311 310 309 309 309 309 308 307 308 310 309 306 306 310 312 314 313 314
327 327 327 328 328 328 326 325 324 323 321 318 314 313 316 317 317 317 316 316 317 316 316 316 313 310 309 307 306 306 307 307 306 306 306 305 303 304 307 308 309 308 311
326 324 326 326 327 326 325 324 321 320 317 315 313 314 315 315 315 315 315 315 316 318 317 316 313 308 307 305 305 305 305 305 304 304 302 302 301 302 304 306 307 307 309
324 324 325 325 324 323 322 321 318 314 312 312 312 313 313 313 313 314 314 314 314 314 317 314 310 309 307 305 304 304 303 302 302 303 302 300 300 300 302 303 304 305 305
322 323 323 322 321 320 318 314 312 311 310 310 309 311 312 312 312 312 312 312 312 312 312 310 309 307 306 304 302 302 302 301 300 299 298 298 298 299 299 301 302 303 304
318 321 321 320 319 316 312 310 309 308 308 307 307 307 308 309 309 310 310 310 310 310 309 308 304 303 302 300 300 299 299 298 298 297 296 295 295 297 297 298 299 300 303
311 312 315 315 312 310 309 308 306 306 305 305 306 306 307 308 308 308 308 308 308 307 306 305 302 300 299 298 297 297 296 296 295 295 294 294 293 293 295 295 296 297 298
309 309 308 308 307 306 305 305 305 304 304 303 303 304 304 305 306 306 306 306 305 304 304 303 301 299 298 297 296 296 294 294 293 293 293 292 291 290 292 291 290 290 294
307 307 306 306 305 305 305 305 304 303 303 302 301 301 301 302 302 303 304 303 303 302 301 300 299 298 296 295 294 295 294 293 292 291 291 289 289 288 288 288 288 287 287
305 304 304 303 303 303 303 303 302 301 301 301 301 300 300 301 301 302 302 302 302 301 300 299 298 298 297 296 295 294 293 291 293 290 290 289 287 287 286 288 288 287 287
303 303 302 302 302 301 302 302 301 300 300 300 300 300 299 299 299 299 299 299 298 298 298 298 297 297 297 297 296 294 292 293 295 288 289 289 286 287 286 286 287 287 288
302 302 302 301 301 301 301 300 300 300 300 299 299 299 298 298 298 298 297 296 296 295 295 295 295 296 296 296 295 294 294 292 288 286 286 288 286 287 286 287 287 289 289
301 301 301 300 300 300 300 299 298 299 298 297 297 297 297 297 297 296 295 294 293 291 291 291 292 293 294 294 294 293 290 289 288 287 285 286 285 286 286 288 289 288 288
300 299 299 299 300 300 299 298 298 297 296 297 296 296 296 297 296 294 294 292 292 291 289 289 289 289 290 291 291 289 290 290 288 287 285 286 285 286 287 286 287 287 288

GFSMA_925_thetae_081.txt.gz
Theta_e
331 330 329 329 329 327 326 326 325 324 324 326 328 329 331 331 331 331 331 331 328 329 329 329 330 330 331 330 328 327 327 327 327 327 328 326 324 323 321 318 314 315 314
329 329 328 328 327 326 325 325 324 326 327 329 331 332 332 332 331 331 331 331 330 328 326 327 328 328 329 330 329 326 326 325 324 323 324 327 326 325 323 321 318 315 313
331 329 329 329 330 329 326 325 326 329 330 330 331 332 332 332 332 331 330 330 329 330 330 328 326 327 328 329 329 327 325 322 322 321 322 323 325 327 325 323 321 318 315
333 333 333 334 332 331 329 325 327 329 331 331 332 332 332 332 331 330 330 330 329 329 329 330 329 327 327 329 328 326 324 320 318 318 319 320 323 324 326 325 323 321 319
337 335 331 333 333 332 331 328 329 331 330 330 331 332 331 331 329 329 329 329 329 329 329 329 329 327 327 328 327 327 322 318 318 317 317 318 321 322 323 324 325 324 321
337 335 333 334 334 333 331 331 329 329 329 330 331 331 331 329 331 329 328 327 325 325 327 328 329 327 327 326 326 325 321 319 316 315 317 317 318 319 320 321 323 324 324
334 334 333 333 333 334 332 331 330 329 329 331 332 331 330 329 330 329 327 324 323 325 326 327 328 327 325 325 323 320 317 316 314 314 314 315 318 318 317 319 320 321 323
334 333 333 334 333 332 332 333 329 330 330 332 332 331 333 330 328 327 324 323 322 324 325 326 327 326 324 322 320 316 315 314 316 318 317 317 317 317 317 317 318 319 321
332 332 331 332 331 330 330 331 331 330 333 332 331 332 331 331 328 325 326 322 321 322 323 324 324 322 321 319 317 315 314 312 313 317 317 316 317 317 317 317 317 317 319
329 330 331 331 329 330 330 330 330 331 332 332 331 329 330 330 327 325 323 322 321 321 321 321 320 319 318 317 315 315 315 312 314 318 318 317 316 315 315 315 319 319 319
328 327 326 327 330 330 330 331 330 331 332 331 330 328 327 328 326 325 322 320 321 320 319 319 319 318 316 315 314 314 313 311 312 314 315 315 313 313 313 317 318 317 316
327 326 325 325 328 327 326 327 328 329 329 326 324 321 319 318 318 319 319 319 319 318 319 318 318 316 315 313 312 313 312 310 310 311 312 313 311 310 311 314 316 316 317
327 325 325 327 327 325 326 326 328 327 326 324 323 322 318 314 315 319 319 319 319 318 318 318 317 316 313 312 310 310 311 309 308 309 310 311 309 305 305 310 312 313 314
329 327 326 327 327 327 327 325 327 326 325 324 323 321 320 314 315 317 318 318 319 317 316 317 316 314 312 310 309 308 308 308 307 307 308 308 305 303 304 308 309 310 308
329 328 327 326 327 327 327 326 324 323 323 322 320 318 315 315 317 317 317 316 316 317 316 316 314 312 310 309 307 307 306 306 306 306 306 305 304 302 302 306 306 307 306
324 324 325 324 325 325 324 322 321 321 320 318 317 315 315 315 315 315 314 315 315 315 315 315 313 312 309 307 306 305 304 304 304 303 303 303 303 300 301 302 304 305 304
320 321 322 323 323 322 322 320 320 319 317 315 314 314 314 313 312 313 313 313 312 312 313 311 310 309 307 305 304 304 303 302 302 302 300 299 298 299 299 300 301 302 303
316 320 320 320 321 320 319 319 316 315 312 311 311 311 311 312 312 312 312 312 311 310 310 309 307 307 304 301 302 301 301 300 299 299 298 296 296 297 298 298 298 300 301
312 314 317 316 317 316 316 316 313 311 310 309 309 308 308 309 309 310 310 309 309 308 308 307 304 303 301 300 299 298 298 298 297 296 295 295 294 294 295 295 295 297 299
310 311 312 313 314 312 310 309 308 307 307 306 306 306 306 307 308 308 308 307 307 306 305 305 303 300 300 298 297 297 296 296 295 295 296 294 293 292 292 292 290 290 293
307 308 309 309 308 308 307 306 306 305 305 304 304 304 304 304 305 306 306 305 305 304 304 303 301 299 297 296 296 297 296 295 294 294 293 291 290 290 290 289 288 288 287
306 306 306 307 306 305 305 305 304 304 304 304 304 302 302 302 302 302 302 302 303 302 302 301 300 299 299 298 297 296 294 292 291 293 292 292 290 289 288 287 288 287 287
305 305 305 305 305 304 304 304 303 303 303 302 302 302 302 301 300 300 300 301 301 301 301 300 299 299 299 299 297 295 294 294 295 292 291 291 289 288 287 286 286 287 288
304 304 304 304 304 304 303 302 302 302 302 301 301 301 301 299 299 299 299 298 298 298 298 298 297 297 297 297 297 297 296 294 291 291 289 289 287 287 287 286 287 289 289
302 303 303 303 303 303 302 301 301 300 301 300 299 299 299 299 298 298 298 297 295 294 295 294 294 294 295 295 295 294 293 292 290 288 287 287 286 287 286 288 289 289 288
300 300 301 301 302 301 301 300 299 299 299 299 298 298 297 297 297 297 296 294 293 292 291 290 288 290 292 293 292 292 293 291 290 288 286 286 286 286 286 288 288 288 288

GFSMA_925_thetae_084.txt.gz
Theta_e
332 333 330 329 330 327 329 327 327 325 323 323 324 325 327 330 330 330 330 330 330 327 327 327 328 330 330 330 328 328 326 326 323 324 325 327 326 324 323 321 317 315 313
331 330 329 329 329 328 326 326 325 324 324 324 327 329 330 331 331 330 331 330 330 329 328 327 326 326 328 329 329 327 326 323 322 321 321 323 327 326 325 323 321 318 315
330 329 328 328 327 326 325 325 324 325 327 328 330 331 332 332 331 331 331 330 329 329 330 329 329 326 326 328 329 327 324 321 320 318 319 319 321 324 326 325 323 321 319
329 328 328 327 328 328 328 326 325 326 329 330 331 331 332 332 331 331 329 329 330 329 329 329 329 329 327 327 329 329 324 320 317 316 315 315 317 320 323 324 325 324 321
332 332 333 333 333 332 330 328 325 327 329 330 330 331 332 331 330 329 329 329 329 328 329 329 328 328 327 327 329 329 324 317 316 315 316 314 315 318 321 322 324 325 324
336 335 333 332 333 333 332 330 328 329 330 330 330 330 331 330 330 329 329 328 327 325 325 327 328 327 326 328 328 327 322 317 316 314 313 312 314 317 318 320 321 322 323
335 336 334 332 334 334 333 331 331 330 329 329 331 331 330 330 328 329 329 328 323 324 324 324 328 328 325 326 327 324 320 316 315 315 316 316 317 318 318 317 318 319 321
334 334 333 333 333 333 333 333 332 331 330 329 330 331 330 330 329 329 327 324 322 323 323 325 327 326 324 324 324 320 317 316 317 317 316 316 317 317 318 318 317 318 319
332 332 332 332 333 332 330 330 331 332 331 330 330 330 328 326 326 326 325 323 321 322 323 324 325 325 323 322 321 317 315 314 314 317 317 318 317 317 316 316 317 319 319
329 329 329 330 330 330 330 329 329 329 330 329 327 328 330 329 323 322 325 323 321 320 322 322 321 322 321 319 318 316 314 313 315 318 319 317 316 315 315 316 318 319 318
324 327 328 330 330 329 329 328 328 329 329 329 329 329 329 328 325 323 321 320 321 320 320 321 320 319 318 317 316 315 314 312 312 315 315 315 314 314 313 315 318 317 317
324 326 327 326 326 328 329 329 329 329 330 327 328 327 324 319 316 316 317 318 317 318 320 319 319 318 317 315 315 314 312 311 311 312 313 314 312 311 308 312 315 315 315
324 325 325 324 324 324 326 328 327 327 328 328 328 327 324 321 321 319 318 318 317 318 319 319 318 317 316 315 314 312 311 310 309 309 311 312 311 309 306 309 311 312 312
326 327 327 325 324 326 325 324 324 326 326 327 326 326 324 322 322 321 318 318 316 316 316 316 317 317 316 314 312 310 309 309 308 309 310 309 308 306 303 304 307 308 309
329 329 329 328 327 325 326 326 325 324 326 326 325 323 322 320 319 317 316 318 316 314 313 315 314 313 313 311 310 309 308 307 306 307 307 306 306 305 303 303 305 306 306
324 325 325 326 325 326 326 326 325 323 324 322 321 321 320 317 316 317 317 316 315 315 314 314 313 310 310 309 308 306 306 306 305 305 305 305 304 303 301 301 302 303 304
318 319 321 321 323 324 324 324 324 323 322 320 319 318 317 316 316 315 315 314 314 314 313 312 312 311 308 308 307 306 306 304 303 303 302 302 302 301 300 299 300 301 302
312 314 316 320 321 322 322 321 321 320 320 318 318 316 315 314 314 312 312 313 313 312 312 311 309 308 306 304 305 303 302 302 302 301 300 299 298 298 298 297 297 299 300
309 311 314 315 318 318 319 319 319 319 317 316 315 312 311 311 312 312 312 312 312 311 309 309 307 305 304 302 301 300 299 299 299 299 297 296 296 295 296 296 295 296 298
308 309 310 312 313 315 315 315 314 313 313 311 310 310 309 309 309 309 309 310 309 309 308 306 305 303 301 300 299 298 297 297 296 296 297 296 295 294 293 293 291 289 292
306 307 308 309 310 311 312 311 309 308 308 308 307 307 307 307 307 308 308 308 308 306 305 304 303 301 299 297 297 298 297 297 296 296 295 295 294 292 291 291 290 289 288
304 305 306 307 307 307 307 308 308 307 306 306 305 304 304 304 304 305 305 305 306 304 303 303 301 300 300 299 299 298 296 293 292 295 294 293 291 290 289 289 289 288 287
303 304 304 305 306 306 306 305 305 305 305 304 304 304 303 302 302 302 302 302 302 302 302 302 301 301 300 300 299 297 295 295 295 294 293 292 290 289 288 288 287 287 287
300 302 303 304 304 304 304 304 304 303 303 303 303 303 302 302 301 300 300 299 299 300 300 300 300 300 299 299 298 298 297 295 293 291 291 290 288 287 287 286 286 289 289
298 299 300 301 302 303 303 303 303 302 301 302 302 301 301 301 300 299 299 298 298 297 297 298 297 297 296 296 297 296 294 292 290 290 289 288 287 287 287 287 289 290 289
296 296 297 299 300 300 302 302 302 301 300 301 301 300 299 299 299 298 298 298 297 297 296 295 294 293 293 294 294 294 295 292 293 288 288 287 286 286 286 288 289 289 288

GFSMA_925_thetae_087.txt.gz
Theta_e
332 333 332 329 326 323 321 321 320 319 321 322 323 323 324 327 329 329 329 329 329 328 327 327 326 328 330 332 330 328 326 325 322 321 321 323 326 325 324 322 320 317 314
333 333 332 329 323 323 326 327 326 326 324 323 323 325 326 328 330 330 329 329 328 329 329 326 326 326 326 328 330 328 327 324 320 319 318 320 324 325 325 324 322 320 318
332 333 330 327 329 328 327 327 326 325 324 324 324 327 330 331 331 331 330 330 330 329 329 329 328 328 326 327 332 328 326 322 319 317 317 316 318 321 323 326 325 323 320
331 330 329 329 329 327 326 325 324 324 324 327 328 330 330 331 331 331 331 329 328 329 329 329 329 329 328 327 328 331 326 322 317 316 315 314 315 319 320 322 324 324 323
330 329 328 328 327 326 326 325 325 325 326 329 330 330 331 331 330 331 330 329 328 329 329 329 328 328 328 327 330 330 326 321 317 316 315 314 314 315 319 321 322 323 325
328 328 327 328 330 330 330 329 327 325 327 329 330 330 330 331 331 329 329 328 328 326 325 325 326 327 325 326 330 329 326 319 316 315 315 315 315 316 319 318 319 320 322
331 331 332 332 333 332 331 331 330 328 329 330 330 330 329 330 329 329 328 328 327 324 323 322 325 327 326 327 328 328 325 320 316 316 316 316 317 317 318 318 318 318 319
334 335 334 331 333 334 333 332 331 331 330 329 328 330 329 330 330 329 328 326 326 323 322 321 326 327 324 324 326 325 322 319 318 317 316 316 316 317 318 317 317 317 319
332 331 332 332 333 333 333 332 332 332 331 330 329 329 328 328 324 327 328 324 323 322 322 323 325 326 324 324 324 322 319 316 315 318 317 318 317 316 317 316 318 319 318
330 330 330 330 330 331 330 330 330 330 330 330 329 330 329 329 326 324 323 323 322 321 321 323 323 324 324 322 321 320 316 314 313 318 319 318 316 315 316 316 317 319 319
325 327 327 328 329 329 330 329 329 329 329 328 329 329 328 328 327 322 321 319 320 320 320 322 322 321 321 320 318 317 316 314 313 317 317 317 315 314 314 315 316 316 317
324 323 325 326 329 331 331 330 329 329 329 329 329 328 328 326 322 320 318 318 318 320 320 319 320 320 319 318 317 316 315 313 312 313 315 315 314 312 310 312 313 314 314
324 324 324 324 326 327 326 327 329 328 327 328 329 327 328 327 324 320 320 319 317 318 318 318 319 318 317 317 315 314 313 312 311 311 313 314 312 311 309 308 311 311 311
325 325 325 324 325 325 324 324 325 328 326 327 326 326 326 326 324 321 321 320 317 316 316 317 318 317 316 315 314 312 311 311 310 309 314 313 311 308 307 305 306 308 308
326 326 327 326 327 326 325 325 326 325 324 326 325 325 324 323 323 323 322 321 318 315 315 313 314 314 313 313 313 312 310 309 308 308 310 309 308 307 306 306 304 304 305
321 321 323 323 325 325 325 324 325 325 325 325 325 323 322 322 321 321 319 317 317 315 312 313 312 311 310 310 310 309 309 308 307 306 306 305 305 304 303 302 301 302 303
311 314 316 318 319 322 321 323 323 324 324 323 322 321 320 321 320 317 316 317 317 315 313 311 311 310 310 309 308 307 307 307 305 304 303 303 303 301 301 300 300 299 301
309 310 312 313 317 319 320 321 321 321 321 321 320 320 319 319 316 316 316 315 314 314 314 311 310 308 307 307 306 305 304 305 303 303 302 301 300 299 299 298 298 298 299
307 308 309 311 312 315 317 318 319 320 320 320 320 318 318 316 315 314 313 313 313 312 312 311 309 307 306 305 303 303 302 302 301 301 300 298 297 297 297 296 295 296 297
305 306 307 308 310 310 314 316 316 317 317 317 318 316 316 314 313 312 312 312 312 312 310 309 307 305 304 302 301 302 301 300 299 298 298 297 296 296 294 294 292 292 290
303 304 305 306 307 309 309 313 313 313 312 312 311 311 311 311 310 310 310 309 309 309 308 306 304 302 300 299 300 300 299 298 298 297 297 296 296 295 293 293 292 291 289
301 302 303 304 305 306 307 307 309 309 309 309 309 308 307 307 307 307 308 308 309 308 306 305 303 302 301 301 301 299 297 295 293 297 294 295 294 292 292 291 290 289 288
299 299 300 302 303 304 305 305 305 306 306 306 306 306 305 305 305 305 305 305 306 306 306 305 303 301 301 302 301 298 297 296 296 295 294 293 293 291 290 289 288 287 287
297 297 297 299 300 301 303 303 304 304 304 304 304 304 304 304 303 303 302 302 302 302 302 302 302 302 302 301 300 300 299 296 295 294 293 291 290 289 289 288 287 287 289
294 295 296 297 298 299 300 301 302 303 303 302 303 303 303 303 303 302 301 300 299 299 300 300 300 300 300 299 299 297 295 293 290 290 291 290 288 288 287 287 286 290 289
294 295 295 296 296 297 299 300 301 302 302 301 301 301 302 301 301 301 299 299 299 298 298 297 297 296 296 296 296 297 297 293 291 290 290 290 287 287 286 287 288 290 289

GFSMA_925_thetae_090.txt.gz
Theta_e
334 334 334 333 332 331 325 322 321 319 317 321 321 322 322 324 325 325 325 327 329 329 327 327 327 327 329 332 333 329 327 325 323 321 321 321 325 325 324 323 321 320 316
332 333 333 333 333 331 324 321 319 319 318 321 322 323 323 324 327 328 328 328 328 328 328 327 326 326 326 325 333 330 328 326 321 320 318 317 320 323 324 325 324 322 320
333 330 331 332 329 328 322 321 322 323 322 323 323 323 324 326 328 329 330 328 329 328 329 328 327 327 327 325 332 328 328 325 320 317 317 316 315 318 322 323 324 324 323
333 332 332 331 327 322 321 326 327 326 326 324 323 324 327 329 330 331 331 330 329 327 327 329 328 328 328 327 331 331 328 324 319 317 315 314 314 314 318 319 322 324 324
333 332 332 331 324 326 326 326 327 325 323 323 325 326 328 330 330 331 331 330 329 327 328 329 329 328 328 327 329 331 329 323 318 316 316 315 315 315 315 317 320 322 323
333 332 332 328 327 329 328 325 324 324 324 326 329 330 330 330 330 331 331 328 329 328 328 328 328 327 325 324 326 331 329 324 318 316 315 316 315 315 317 318 318 319 320
331 331 329 329 328 327 325 325 325 325 325 327 329 329 329 329 330 330 329 329 327 327 326 324 323 322 324 324 328 329 328 325 318 315 316 316 316 316 317 318 318 318 317
330 330 328 327 327 327 328 329 329 327 326 328 329 328 328 329 330 329 328 327 327 326 324 323 321 321 325 324 327 329 327 324 320 317 316 315 316 316 317 317 317 319 321
328 328 328 329 332 333 331 330 330 330 329 329 328 328 327 329 325 326 328 325 324 324 323 322 320 323 326 324 325 327 325 321 319 319 318 318 317 316 317 317 318 318 319
327 328 329 331 332 333 332 331 331 330 330 330 329 329 329 327 324 325 323 321 321 322 323 321 321 323 325 324 324 323 322 318 315 318 319 320 317 316 316 316 317 318 318
328 328 328 328 329 329 329 329 330 330 330 329 329 329 329 328 328 324 324 320 320 320 320 323 323 322 322 322 321 321 319 316 313 317 319 318 317 315 314 315 316 316 315
326 326 324 324 326 327 328 328 328 328 328 329 328 328 328 327 323 321 319 319 321 320 320 320 321 322 321 320 319 318 317 315 315 314 317 317 316 313 312 312 313 314 314
324 324 324 323 324 325 326 326 327 327 328 328 328 328 328 327 326 324 321 319 318 319 321 321 321 318 320 319 318 316 315 314 313 312 314 316 315 312 311 310 311 311 311
324 325 325 324 324 324 324 325 324 325 327 327 328 326 327 326 326 324 323 321 318 317 316 316 317 318 318 317 316 315 314 312 312 311 312 314 313 312 309 307 306 307 308
323 325 325 325 325 324 325 325 324 324 324 326 326 325 325 325 323 324 323 321 319 318 317 313 314 315 315 314 314 313 312 310 310 309 310 311 311 309 307 306 306 304 304
315 318 320 321 324 325 326 326 326 325 325 325 324 324 324 324 324 323 322 321 322 315 313 312 312 312 313 313 312 311 310 310 308 308 308 308 307 307 305 304 303 302 302
309 309 312 313 316 319 321 322 322 323 323 323 324 324 323 322 321 322 321 320 318 317 312 311 311 310 310 310 310 310 309 309 308 307 307 306 305 304 303 302 301 302 301
306 307 308 310 312 313 317 317 318 320 321 321 322 321 321 320 319 319 320 318 316 316 315 309 309 308 307 307 308 307 307 306 306 305 305 303 302 301 300 300 300 299 298
304 305 306 306 308 310 311 314 317 318 319 320 320 320 320 320 318 318 317 316 316 315 314 312 306 306 306 305 304 304 304 303 304 304 302 301 300 299 298 298 297 296 295
302 303 304 305 306 307 309 310 314 314 316 317 317 317 318 319 318 317 315 315 314 313 312 311 308 305 305 303 303 303 302 302 302 302 300 299 298 297 297 296 295 293 292
300 300 301 303 304 305 306 307 308 310 312 312 313 314 315 315 316 316 314 313 312 312 311 309 304 302 301 299 300 302 301 301 300 299 298 298 297 297 296 295 294 293 291
295 297 298 299 301 302 304 304 305 306 308 309 309 310 310 311 311 311 311 311 311 311 309 306 303 302 301 303 302 301 300 297 295 299 297 296 296 296 296 294 292 290 290
293 293 295 296 298 299 301 302 303 303 304 305 307 307 307 307 307 308 308 308 308 308 309 308 304 304 304 304 303 299 299 298 298 297 296 294 295 295 293 291 290 289 288
292 293 294 294 294 297 298 300 301 302 303 303 303 304 304 305 305 306 306 306 306 306 307 307 306 306 304 303 302 302 301 299 296 296 295 293 293 292 291 290 289 287 287
291 291 293 294 294 293 295 296 299 300 301 302 302 302 303 303 304 303 303 303 303 304 304 303 303 302 302 301 301 300 298 295 291 292 293 291 290 289 288 288 287 287 290
290 290 290 292 292 290 293 295 297 298 299 300 301 302 302 302 302 302 302 302 300 301 300 300 300 300 300 300 300 299 300 295 292 289 292 291 288 288 286 286 287 289 290

GFSMA_925_thetae_093.txt.gz
Theta_e
337 336 334 334 334 334 334 332 328 321 320 318 317 317 319 321 321 322 324 325 327 328 328 328 329 331 332 332 332 330 328 326 324 320 319 318 323 324 324 323 322 321 319
333 334 334 333 333 334 333 330 324 321 320 318 320 320 320 321 323 325 324 325 327 328 328 328 328 328 328 329 330 333 329 327 325 319 317 317 317 319 322 324 324 323 322
332 331 333 333 326 332 333 328 325 322 319 317 320 321 322 322 323 325 328 328 327 327 327 328 328 327 327 327 328 331 328 328 324 318 316 315 314 314 318 320 322 324 324
328 333 331 333 332 332 332 329 324 322 320 318 320 322 322 323 324 326 328 329 329 328 327 328 328 328 328 328 329 333 329 327 323 317 316 315 315 314 314 315 317 321 323
330 332 330 332 321 323 332 330 323 322 323 324 325 323 323 324 327 329 330 330 330 329 327 327 328 328 328 328 327 332 331 326 322 317 316 315 315 315 316 316 318 319 321
332 332 332 328 329 331 330 328 323 326 326 325 324 323 324 325 328 329 330 330 330 330 328 327 328 328 328 327 325 329 330 327 322 317 316 316 315 315 316 318 319 319 319
331 332 331 328 328 329 329 323 324 326 326 324 325 327 328 329 329 330 330 330 330 328 328 327 328 327 324 323 323 327 329 327 324 318 315 316 315 315 318 319 318 318 321
331 331 331 330 328 327 325 327 326 324 324 324 327 327 327 328 329 329 329 328 327 328 327 327 326 323 321 324 323 328 328 326 324 320 316 316 316 317 317 318 318 320 320
330 329 329 330 329 328 327 328 326 325 325 325 328 328 327 328 326 328 328 328 327 326 326 325 324 322 322 324 323 326 326 325 323 321 320 317 317 317 317 318 318 319 319
326 328 328 328 328 328 327 326 326 326 327 327 327 328 328 327 325 325 323 326 326 324 324 324 323 321 322 324 323 323 325 325 322 319 320 320 319 317 317 317 317 318 317
326 327 326 327 328 328 328 328 328 328 329 329 328 328 328 328 327 323 324 320 319 322 323 323 322 320 321 321 322 323 322 321 319 316 320 321 319 317 315 315 315 316 315
326 326 326 327 326 326 327 327 328 328 329 329 328 328 328 327 326 324 322 318 319 320 320 322 322 323 323 321 321 321 320 318 317 315 318 320 319 316 314 313 314 314 313
325 325 325 325 325 324 323 324 327 327 326 326 326 327 327 327 327 326 323 320 319 320 319 320 322 322 322 322 319 319 317 316 315 315 316 317 318 316 314 312 310 311 311
323 324 323 323 323 324 323 323 325 325 326 326 326 326 326 326 326 326 324 324 320 318 318 318 319 320 320 320 319 317 316 315 314 313 313 315 315 314 312 310 308 307 307
321 322 324 324 324 324 324 324 324 324 324 323 323 325 326 326 325 324 324 323 323 320 318 315 314 319 318 318 317 314 315 314 312 311 311 312 312 312 310 308 307 306 306
310 314 317 318 320 321 323 324 324 324 324 324 324 323 324 324 323 324 323 321 322 320 318 313 312 314 316 316 314 313 313 311 310 310 309 309 309 309 308 306 306 304 304
306 307 309 311 313 314 318 320 322 323 323 323 323 323 323 323 322 323 323 322 321 319 313 310 310 310 312 312 311 310 310 310 309 309 308 307 307 306 306 304 304 303 303
304 304 305 306 308 310 312 315 317 318 319 320 321 320 321 322 321 321 321 320 319 320 314 308 306 307 308 309 309 309 309 308 307 307 306 305 305 305 303 303 302 303 301
301 302 304 304 305 306 308 309 311 315 315 317 319 320 320 320 319 319 319 318 317 318 315 312 305 306 306 306 306 306 307 307 307 306 305 304 303 303 301 301 300 299 298
298 300 301 301 302 304 305 306 307 309 312 314 314 316 317 317 317 318 317 316 316 315 314 312 307 305 306 304 306 305 304 304 304 303 303 303 302 300 299 298 298 296 295
292 293 294 296 300 301 302 303 304 304 306 308 310 312 313 314 314 316 316 315 315 313 311 309 304 302 302 301 301 302 302 303 301 301 300 301 300 299 298 297 296 296 295
291 292 292 293 293 295 299 300 301 302 303 304 305 307 308 310 311 312 312 313 314 313 309 307 305 304 302 301 302 302 299 297 296 300 299 300 299 298 298 296 295 295 293
290 290 291 292 293 294 293 296 298 300 301 302 303 303 305 306 307 309 310 310 311 311 311 311 307 306 304 306 304 301 300 298 299 300 297 297 297 297 296 296 293 292 291
289 289 289 290 291 292 291 291 295 297 299 300 301 302 302 303 304 305 306 307 308 309 309 309 309 309 308 307 305 305 303 300 298 298 298 294 295 294 294 293 292 291 289
288 288 289 289 289 291 291 290 293 295 296 297 299 300 302 302 302 303 304 304 305 306 306 307 307 306 306 306 304 302 299 296 293 294 295 294 291 291 291 291 290 289 289
288 288 288 288 289 289 289 290 291 293 295 296 296 297 299 301 301 301 302 302 302 303 303 303 303 303 303 302 302 301 301 296 293 291 294 292 290 290 288 288 288 287 290

GFSMA_925_thetae_096.txt.gz
Theta_e
331 334 336 336 334 334 334 336 336 334 332 323 320 318 319 324 324 323 323 324 325 327 330 330 329 329 329 330 332 331 330 327 325 321 318 316 322 322 323 323 323 322 321
330 333 336 336 334 334 334 335 335 335 331 322 319 317 316 319 320 321 322 323 326 327 328 329 329 328 330 333 333 332 331 329 327 321 317 316 315 316 319 322 324 324 323
329 335 335 336 335 334 333 334 334 334 328 322 320 318 317 318 320 322 324 324 324 326 327 327 328 328 328 328 331 331 330 329 327 321 317 315 314 314 314 315 317 319 323
325 330 334 334 333 334 334 332 332 331 327 323 321 318 320 321 321 322 323 327 328 327 326 327 327 328 328 328 328 331 331 329 327 321 316 315 315 315 315 315 315 319 321
325 328 330 333 333 332 331 328 329 330 327 324 320 318 319 321 322 322 324 326 327 328 329 327 327 327 328 328 328 330 331 329 326 320 316 316 315 315 316 317 318 319 319
327 328 329 330 331 329 323 322 326 329 328 324 321 319 321 323 322 323 325 328 329 330 330 329 327 327 328 328 327 326 332 329 325 320 316 316 315 315 315 317 318 318 319
327 329 330 330 331 329 324 324 326 327 327 324 323 324 324 323 323 324 325 329 329 330 330 330 327 327 328 328 325 323 331 329 326 321 317 316 315 315 318 317 317 321 320
328 331 330 329 330 323 323 321 320 325 324 323 324 325 325 327 327 328 329 329 329 330 330 329 328 327 328 326 320 321 329 329 326 322 317 316 315 316 317 317 318 320 319
328 329 331 330 328 327 326 326 326 324 322 323 325 326 325 326 325 328 328 329 328 328 328 327 327 328 327 323 320 321 327 328 326 324 321 319 318 317 317 317 318 319 318
328 327 329 329 328 326 325 323 325 324 324 324 323 325 327 326 325 325 324 326 328 327 327 327 327 327 324 322 321 321 323 325 324 324 324 322 320 319 318 317 317 317 317
327 327 328 327 326 326 326 324 324 324 326 325 325 326 327 327 326 323 324 322 324 327 326 326 325 324 323 321 324 323 321 323 324 324 323 322 322 320 317 315 315 316 315
327 326 326 327 326 326 326 326 326 325 326 325 327 326 327 326 326 324 322 320 320 323 324 323 323 323 323 322 324 323 324 323 323 321 320 322 322 320 316 314 314 314 313
325 324 325 325 324 324 324 324 324 324 325 326 326 326 326 327 326 326 325 324 320 322 322 321 322 322 322 323 323 323 322 321 319 318 320 320 319 318 316 314 312 311 312
321 324 323 323 323 322 323 323 323 324 325 326 325 325 325 326 326 325 325 325 325 320 319 321 321 320 322 323 323 322 320 318 315 316 317 317 316 316 315 314 311 309 309
315 319 320 323 323 324 324 324 324 323 323 324 324 325 325 324 324 324 325 325 324 325 322 317 318 319 320 321 322 320 318 316 314 313 313 314 314 314 313 312 310 309 308
308 310 312 314 315 318 318 320 322 324 323 324 324 324 323 323 324 324 323 323 323 322 321 317 316 317 318 318 319 319 317 314 313 311 311 311 311 311 311 310 309 307 306
304 305 306 306 308 310 312 313 316 319 322 323 323 322 322 323 323 323 322 322 322 321 320 312 313 313 314 315 316 316 314 313 311 310 310 310 309 308 307 306 306 305 304
301 302 303 304 305 305 307 309 310 311 315 316 318 319 320 320 320 321 321 321 320 319 317 309 308 308 311 312 313 312 311 311 310 309 309 308 307 306 305 305 304 303 303
293 295 299 300 302 303 304 305 305 307 309 311 314 315 317 318 319 319 319 320 319 319 317 313 305 307 307 308 308 308 308 308 308 307 307 306 305 305 304 303 302 301 301
291 292 292 292 294 299 300 301 302 303 304 305 307 309 312 313 315 317 317 318 317 317 315 312 307 305 305 303 307 304 303 304 306 305 305 304 303 303 303 302 299 299 298
290 290 290 291 292 293 294 297 298 299 301 302 303 304 306 308 310 312 313 315 315 314 310 308 306 304 304 303 301 302 303 304 304 303 302 302 302 302 302 301 299 297 296
289 289 289 290 290 290 292 292 295 296 297 299 300 301 303 304 306 307 309 311 312 312 309 308 305 305 304 305 303 304 303 299 297 300 300 301 300 300 300 299 298 297 296
289 289 289 289 289 289 290 291 292 293 294 297 298 299 300 302 302 303 306 308 309 310 311 311 308 307 304 306 305 302 302 300 299 300 299 298 298 298 298 298 297 296 295
288 288 288 288 288 288 289 291 292 291 291 294 295 296 297 299 301 302 302 304 306 308 309 310 311 312 310 310 308 308 305 301 299 299 298 296 297 297 297 297 296 294 293
287 287 287 286 287 287 288 288 291 291 291 291 293 295 295 297 298 301 301 301 303 305 307 308 308 308 308 308 307 306 300 297 294 295 296 297 293 294 294 295 293 291 291
287 286 286 285 285 286 286 286 289 290 292 291 291 291 294 295 296 298 300 300 301 302 304 305 305 305 305 306 305 305 304 298 295 292 296 295 292 293 289 290 291 289 289

GFSMA_925_thetae_099.txt.gz
Theta_e
331 334 336 337 336 336 333 333 334 335 334 333 330 323 324 325 325 325 324 325 324 324 332 333 330 328 327 328 330 330 330 328 326 323 318 316 319 320 321 323 323 323 322
327 330 335 337 336 336 334 334 332 336 333 332 332 325 321 319 323 324 323 322 324 325 327 329 331 330 329 329 333 333 331 330 328 325 319 316 314 314 317 319 322 323 324
323 326 331 336 336 335 335 334 333 335 335 334 333 325 319 317 316 322 320 320 322 325 326 327 328 329 329 328 332 333 330 330 329 326 319 316 314 315 314 315 314 316 319
323 328 330 333 334 335 334 334 334 334 334 334 333 325 321 318 317 317 319 321 323 323 325 326 327 328 328 328 330 331 332 329 329 326 319 316 315 315 315 315 315 315 316
324 327 328 329 334 334 334 333 332 332 333 332 330 325 323 320 318 319 320 321 322 325 326 327 326 327 327 328 329 331 332 330 329 325 320 316 316 315 315 315 315 316 318
326 327 327 328 329 330 332 332 331 333 330 329 325 322 320 321 318 318 320 321 322 324 326 327 329 327 326 327 328 329 331 331 329 325 320 316 316 315 315 315 317 317 321
324 326 327 328 328 329 328 328 330 328 326 325 326 325 323 322 321 320 322 322 323 325 327 329 329 330 328 327 328 328 326 331 328 326 321 317 316 315 316 316 316 320 320
326 327 328 328 328 329 328 328 328 327 324 324 324 323 324 324 324 324 323 323 323 326 329 329 330 330 329 326 327 328 323 328 330 327 323 318 316 316 318 316 318 319 319
325 327 328 328 329 329 328 326 326 325 324 323 324 324 327 328 326 325 324 324 326 328 329 329 329 329 329 327 327 327 321 325 331 329 324 321 318 319 319 319 319 319 319
325 326 328 328 328 329 327 326 325 324 324 323 322 323 322 326 329 329 325 326 327 328 328 328 328 328 328 327 327 327 320 321 329 329 326 323 321 320 319 319 318 318 317
325 326 328 328 328 328 327 325 324 323 323 323 322 323 323 324 325 325 329 325 324 326 326 326 325 326 327 327 327 325 321 322 328 328 326 325 323 322 320 319 316 316 316
325 327 327 326 327 327 324 325 323 321 323 324 323 323 324 324 325 326 325 325 324 325 325 326 326 326 326 326 325 323 322 324 327 326 324 325 324 323 321 319 316 315 314
318 320 326 326 325 325 325 325 325 323 322 320 319 322 322 324 325 325 325 325 323 323 324 325 325 324 324 324 324 323 323 326 325 324 323 323 323 321 321 316 315 313 313
313 318 318 322 323 323 324 324 324 323 320 322 322 322 323 324 324 324 324 325 325 323 323 323 324 324 324 323 323 323 324 325 324 323 321 321 321 320 318 316 314 313 311
310 311 313 315 318 319 319 322 323 323 323 322 322 322 323 324 324 324 324 324 324 326 325 322 322 323 323 321 321 322 323 323 321 318 317 317 318 318 317 315 313 312 310
304 306 308 308 310 312 313 315 316 317 321 323 323 323 323 323 324 324 323 323 324 324 325 322 319 320 320 318 319 321 321 320 319 317 315 315 316 315 315 313 312 310 309
301 302 303 303 304 305 307 310 310 311 313 315 318 322 323 323 323 323 323 323 322 322 322 319 318 317 318 317 318 318 318 318 317 316 314 312 312 313 311 311 309 308 307
292 293 295 299 301 302 303 304 304 304 306 309 312 314 315 317 318 319 320 321 321 321 320 316 316 314 314 315 316 316 316 316 316 313 312 311 310 310 309 307 306 305 305
291 291 291 292 293 296 299 300 300 301 302 304 304 305 308 311 314 316 317 318 319 319 319 316 310 309 308 309 309 311 311 311 312 311 310 309 309 307 306 305 305 304 303
290 289 290 290 291 291 292 291 292 294 296 299 300 302 303 305 307 309 311 314 316 317 317 314 309 307 307 306 307 307 306 307 307 308 307 307 306 305 304 303 303 303 301
289 289 289 289 289 289 291 294 293 292 291 292 295 297 300 301 302 303 305 307 310 313 314 312 306 304 302 301 303 303 303 303 305 306 306 304 303 303 302 302 302 302 299
289 288 288 288 288 288 289 293 293 292 292 294 294 295 296 297 300 301 302 303 305 308 311 310 309 308 306 306 304 303 303 301 299 303 303 302 302 302 302 301 301 301 299
288 288 287 287 287 287 288 291 292 292 290 290 293 294 294 295 296 299 301 302 302 304 307 310 310 308 307 306 304 302 303 304 304 304 303 299 300 299 301 300 299 299 297
287 287 286 286 286 286 286 289 290 290 290 290 290 291 293 294 294 296 298 300 301 302 303 306 308 309 309 308 307 305 303 303 302 302 300 299 298 297 299 299 298 298 296
286 286 286 285 285 285 285 285 288 288 289 289 290 291 290 292 294 295 296 297 299 301 302 302 305 307 308 309 309 306 301 299 294 296 297 298 295 295 296 297 297 296 294
285 285 285 285 284 284 284 284 287 288 289 290 290 289 289 290 290 293 295 296 296 297 300 301 302 304 306 306 308 308 305 300 295 293 297 297 293 294 291 292 293 293 292

GFSMA_925_thetae_102.txt.gz
Theta_e
333 336 339 338 338 338 337 336 335 335 336 337 331 327 327 327 326 327 328 328 326 324 330 335 335 331 328 329 331 331 330 329 326 325 320 317 318 319 320 324 323 323 323
332 331 329 335 337 338 337 336 336 336 335 335 334 331 325 324 324 325 325 325 325 325 324 329 334 334 334 333 333 333 331 330 329 327 323 317 315 315 317 319 322 323 322
329 330 332 333 335 336 337 336 336 337 336 335 334 332 328 324 321 320 323 323 323 323 324 325 328 331 331 331 333 334 332 330 330 329 325 318 315 315 315 315 315 315 316
326 328 329 331 332 335 336 336 336 336 334 334 333 333 330 325 321 320 319 321 322 323 324 325 326 327 329 331 333 335 334 331 330 330 326 319 315 315 315 315 315 315 315
327 327 328 329 331 332 333 334 334 335 334 333 332 332 331 327 322 320 320 320 321 323 325 325 326 326 326 328 329 332 334 332 330 329 326 320 316 316 315 315 315 315 316
327 328 328 329 329 330 331 331 332 332 333 332 331 330 328 326 323 321 320 320 321 323 324 326 327 326 326 326 326 329 331 333 331 330 326 321 316 316 315 315 316 316 320
327 327 328 328 329 330 330 330 331 330 330 332 331 329 327 326 324 320 319 318 319 322 324 325 326 328 329 329 327 326 328 333 331 331 327 323 318 316 315 317 318 320 320
328 328 328 328 328 330 330 330 330 330 330 330 330 329 330 327 323 322 322 322 321 321 324 325 327 328 329 330 330 327 327 330 331 332 329 325 321 318 318 321 319 321 320
328 328 328 328 328 330 330 330 330 329 329 329 328 327 326 326 324 321 321 319 320 324 325 325 327 328 329 329 330 329 327 328 327 330 330 327 323 322 321 321 320 321 320
326 326 327 328 328 330 330 330 329 329 328 327 326 326 324 324 325 326 326 326 325 325 325 326 326 327 329 329 330 330 329 327 327 326 331 328 325 323 322 321 320 320 319
323 325 327 328 328 329 329 328 328 327 327 327 325 324 324 323 324 326 328 328 325 326 326 326 327 327 327 326 327 328 328 328 327 322 330 330 326 324 323 322 320 320 319
317 319 323 326 327 327 327 327 327 326 325 325 323 323 323 323 323 324 325 325 325 324 324 324 324 325 325 325 327 327 327 327 326 322 329 329 328 325 324 323 321 318 318
311 315 319 320 324 326 327 326 325 324 324 323 323 322 322 322 323 323 324 323 323 323 325 324 325 325 324 325 326 326 326 326 325 323 327 329 327 325 324 324 321 318 317
307 309 314 316 316 319 322 324 323 324 323 322 322 322 321 320 320 321 322 323 324 324 323 324 324 324 325 324 324 324 324 325 324 323 324 328 326 324 323 323 319 318 316
303 306 308 310 311 312 314 316 317 319 322 322 321 320 321 321 322 321 322 322 323 324 322 323 323 323 324 324 324 324 325 324 324 323 325 326 324 322 321 321 318 316 314
299 301 302 303 305 306 307 311 310 311 314 316 317 321 322 322 322 321 322 323 323 323 324 322 322 323 323 323 323 323 322 321 322 324 325 324 321 321 320 319 317 314 312
295 295 296 298 301 302 303 304 305 306 308 308 309 312 314 318 321 322 322 323 323 323 323 322 322 322 320 319 320 320 318 319 320 321 322 320 318 316 317 318 315 312 311
292 293 294 294 295 297 298 300 301 302 303 304 304 305 307 309 312 314 317 319 320 321 321 320 320 319 319 318 317 316 317 317 316 317 317 317 315 315 316 314 312 311 309
292 292 292 292 293 294 295 295 295 296 297 299 301 303 304 306 308 308 310 312 316 318 319 319 318 317 316 314 311 311 313 313 314 316 316 316 314 313 313 311 310 307 306
291 291 291 291 291 292 293 295 295 295 295 295 296 298 300 302 303 304 305 307 308 310 314 316 315 311 310 309 308 307 307 310 312 312 312 313 312 311 309 308 307 305 305
290 290 290 290 290 290 290 292 294 294 294 293 294 295 296 297 297 300 302 304 304 305 307 312 311 307 305 304 305 307 307 307 308 311 310 308 308 307 306 305 305 304 303
289 289 289 289 289 289 287 290 292 292 292 292 292 293 294 294 295 296 298 299 300 303 303 305 309 309 308 306 308 305 305 301 300 305 305 304 307 305 306 305 304 303 302
289 288 288 288 288 287 287 288 290 290 291 291 291 292 292 292 294 295 295 296 298 300 301 302 303 305 309 309 308 305 304 304 306 306 304 301 303 304 304 304 302 302 301
288 288 287 287 287 286 286 287 288 288 289 290 290 291 291 291 291 293 294 295 295 296 298 301 302 303 304 307 309 309 307 305 304 304 303 300 299 300 301 302 302 301 300
287 287 287 287 286 286 286 286 287 287 288 289 289 289 290 290 290 290 291 293 294 295 296 296 298 299 301 304 305 307 304 299 297 296 300 299 296 298 298 298 299 299 298
286 286 286 286 286 286 285 285 286 287 288 288 289 289 290 289 289 290 290 291 291 292 293 294 296 296 299 300 304 304 304 302 302 293 297 299 294 296 292 294 297 298 296

GFSMA_925_thetae_105.txt.gz
Theta_e
334 335 336 339 338 338 338 338 337 337 337 337 334 328 330 330 328 329 329 329 329 324 324 335 336 334 333 332 332 331 329 329 328 326 325 320 317 319 320 322 323 323 324
332 333 334 334 333 337 338 338 337 337 336 336 336 333 328 328 328 327 327 328 327 326 324 324 334 335 335 333 333 333 331 331 331 329 327 323 317 316 316 316 321 322 322
332 332 333 333 333 333 335 338 336 336 336 336 335 335 332 329 325 325 325 325 326 324 324 324 325 330 335 333 334 334 332 331 330 330 330 326 319 315 315 315 315 315 315
331 330 330 330 331 333 333 334 336 336 335 337 336 335 334 331 327 324 322 321 323 324 324 323 324 325 327 332 330 334 333 333 331 329 330 328 321 316 315 315 315 315 315
330 329 328 328 329 331 332 334 335 335 336 336 336 335 334 332 330 325 322 321 320 322 323 324 324 324 325 326 329 333 334 333 332 330 330 329 323 317 316 315 316 315 316
328 328 328 328 329 330 331 332 332 333 334 335 334 334 333 332 331 326 322 321 320 320 321 323 325 326 325 326 326 327 331 331 332 331 330 329 325 319 316 316 317 316 316
328 328 328 328 329 329 329 330 331 332 332 332 332 332 332 331 329 327 324 322 320 321 322 323 324 326 328 328 327 326 326 328 330 331 331 330 327 322 318 320 320 318 319
328 329 328 328 329 329 329 329 330 330 331 331 331 330 330 330 329 328 326 323 322 320 320 323 324 325 326 328 329 329 329 327 330 332 332 330 329 325 323 322 321 321 322
327 326 326 327 328 329 329 330 330 330 330 330 330 329 330 330 328 328 326 324 323 321 321 321 320 323 324 328 329 327 329 329 328 327 333 332 329 327 324 322 322 321 322
325 324 325 326 327 328 329 329 330 330 330 330 330 330 329 327 327 328 328 326 324 322 322 322 323 324 325 327 329 328 329 330 329 327 327 332 331 328 326 323 323 321 322
318 319 319 321 324 326 327 328 329 329 329 329 329 328 329 329 326 325 325 326 325 322 322 323 325 324 322 328 329 329 329 329 329 329 327 330 331 330 327 325 324 322 322
313 313 314 315 316 321 326 328 328 327 328 327 328 327 326 326 325 323 324 324 325 325 325 325 326 326 326 326 326 325 326 326 327 327 327 328 330 330 328 326 325 323 322
306 308 309 312 310 314 315 323 327 327 327 327 327 327 325 324 325 324 322 322 322 321 321 322 322 324 324 324 325 325 324 326 327 326 326 328 329 329 329 327 326 324 322
302 303 306 307 307 310 312 312 313 316 323 324 324 323 323 323 322 323 322 322 322 321 320 321 320 321 323 323 322 324 324 324 324 324 325 327 327 327 328 327 325 325 321
298 299 300 302 304 304 306 307 307 309 311 313 316 319 322 322 322 321 321 320 320 321 322 321 321 321 322 322 323 322 323 323 322 323 323 324 325 325 327 327 325 325 320
295 295 295 296 298 299 301 302 303 304 305 306 308 310 312 314 320 321 321 321 320 320 321 321 322 322 322 322 322 322 322 322 322 323 324 324 324 324 325 326 324 322 318
293 293 294 294 294 295 296 295 297 298 301 302 303 305 306 307 310 312 315 320 321 321 321 322 322 322 322 321 322 322 322 321 321 322 321 320 322 324 326 323 321 321 318
293 293 293 293 293 294 295 295 295 296 296 297 298 300 303 305 307 307 308 310 312 315 321 321 321 320 321 321 321 321 320 319 320 320 320 320 321 324 324 320 319 319 316
292 292 292 292 292 292 293 294 295 295 295 296 296 297 299 301 302 303 305 306 308 309 311 315 318 318 318 318 317 316 316 317 317 318 318 317 319 319 320 317 318 317 314
291 291 291 291 291 291 291 291 293 293 294 294 294 295 295 297 296 298 300 302 305 306 307 309 311 313 312 312 311 310 310 312 312 313 314 316 317 317 316 316 316 314 312
290 290 290 290 290 290 290 290 291 292 292 293 293 293 293 294 294 296 296 298 299 301 303 305 307 308 308 307 307 310 308 309 309 309 312 313 314 314 314 314 313 311 310
290 290 289 289 289 289 288 288 289 289 290 291 292 292 292 292 293 294 295 295 296 298 300 301 303 304 308 307 308 308 307 304 301 307 309 309 311 311 311 311 311 310 307
289 289 289 289 288 288 288 288 288 288 288 289 290 291 291 291 292 292 292 293 294 295 296 298 300 301 303 304 307 307 306 306 307 308 307 307 307 307 308 309 309 308 306
288 288 288 288 288 288 288 288 288 287 288 289 289 290 290 290 291 291 291 291 291 293 294 296 296 297 297 299 300 302 305 306 306 306 306 305 303 304 305 306 307 307 305
288 288 287 287 287 287 287 287 287 287 288 288 289 289 289 290 290 290 290 290 291 291 291 293 294 294 295 295 296 299 301 304 300 300 305 302 299 301 301 302 304 304 304
287 287 286 286 287 286 286 286 286 287 287 288 288 289 289 289 290 290 290 290 290 290 291 291 291 292 293 295 296 298 299 301 303 295 300 300 297 299 295 297 301 301 302

GFSMA_925_thetae_108.txt.gz
Theta_e
333 335 338 337 338 339 338 338 338 337 336 336 335 330 330 332 330 330 331 330 330 329 324 328 337 335 333 332 332 331 330 329 328 327 326 324 320 318 318 319 321 322 323
330 331 332 333 335 336 338 337 337 337 337 337 336 336 330 328 330 329 328 329 328 329 328 323 327 336 336 334 332 332 330 330 331 330 328 327 324 318 317 316 318 324 323
331 332 333 333 333 333 333 333 336 336 336 336 336 336 336 330 328 329 328 327 327 327 326 325 323 325 334 335 335 334 331 330 330 330 330 329 327 321 316 316 316 316 315
333 332 331 330 331 331 331 333 334 333 334 336 335 334 335 335 330 327 326 326 325 326 325 324 323 323 324 328 335 334 333 332 330 330 330 329 329 325 318 316 316 315 315
332 332 330 329 328 328 330 331 332 334 335 334 334 334 333 334 334 330 327 324 324 322 324 324 323 323 323 325 327 333 334 331 332 331 330 329 329 327 320 316 316 316 316
331 330 329 328 328 328 329 330 332 331 330 333 334 334 335 333 333 332 331 329 324 321 321 323 323 323 324 324 325 326 329 331 330 329 330 330 330 328 323 318 318 317 317
329 328 328 328 328 328 329 329 330 330 331 331 333 333 332 334 333 333 332 328 324 322 320 320 321 323 325 325 325 325 326 327 327 328 327 329 330 329 326 322 321 319 318
328 328 329 328 329 328 328 329 329 329 330 330 331 330 330 330 332 332 331 330 326 323 320 321 321 321 322 324 327 327 327 327 327 328 328 327 330 330 328 325 323 322 321
326 326 326 325 326 327 327 328 329 329 329 329 330 329 329 329 326 329 329 328 327 325 323 322 321 322 323 324 324 326 324 327 328 328 329 328 328 331 329 327 324 323 322
322 320 319 320 320 321 322 325 327 327 327 327 328 329 329 328 326 327 328 327 327 327 324 322 320 320 323 324 324 325 323 325 324 327 329 329 329 332 330 328 326 324 323
315 313 315 315 315 316 316 316 321 325 326 327 327 328 328 329 329 327 328 326 327 325 324 322 321 321 320 319 320 323 327 327 327 329 329 328 329 329 331 329 327 325 324
309 309 309 309 310 312 313 311 312 320 325 327 327 327 328 327 327 328 327 325 325 325 324 323 322 322 322 321 324 325 327 327 326 325 325 327 327 328 330 331 328 327 326
301 302 303 305 306 307 308 308 308 310 310 314 326 327 327 326 326 326 326 325 323 323 324 324 325 326 326 326 326 324 322 322 324 324 324 325 326 326 326 328 330 327 326
297 296 297 299 300 300 301 305 305 305 305 306 308 312 318 325 326 325 324 323 323 322 321 321 322 322 323 322 322 322 322 323 324 324 324 325 325 326 326 327 328 329 326
295 295 294 295 295 296 296 297 298 301 302 302 303 305 308 311 312 319 322 322 321 322 322 320 319 320 320 320 320 321 322 322 321 321 322 322 321 323 322 322 325 327 328
293 293 293 293 294 294 295 295 296 296 297 297 299 301 303 305 307 309 311 314 320 320 321 320 321 321 320 320 319 320 321 322 322 322 322 321 321 322 322 322 323 325 326
293 293 292 292 293 293 294 295 295 296 296 296 296 297 301 300 305 305 305 307 309 311 317 319 319 320 321 322 321 322 322 321 321 321 322 321 322 323 323 324 324 324 326
292 292 292 291 291 291 292 292 293 294 295 295 295 295 297 299 300 297 301 305 306 307 309 312 314 318 320 321 321 321 320 320 320 321 320 320 321 320 320 320 321 324 325
291 291 290 290 290 290 290 290 289 291 292 293 293 293 294 295 295 294 298 298 302 303 305 307 309 311 314 314 316 315 317 316 317 318 318 318 319 319 319 320 322 324 324
290 290 290 290 289 289 289 289 288 288 290 291 292 292 292 293 293 294 296 296 297 299 300 303 304 307 309 310 310 311 311 313 314 314 315 315 315 317 317 318 321 321 320
290 289 289 289 289 289 288 289 289 289 288 288 289 291 291 291 292 294 294 295 295 295 297 299 301 302 303 306 306 308 308 309 309 311 311 312 312 314 316 317 316 320 319
289 289 289 289 289 288 289 289 289 288 287 286 288 289 290 290 291 291 292 293 293 295 295 296 297 299 300 301 303 305 306 305 303 309 308 310 311 313 316 316 317 317 316
288 288 288 288 288 288 288 289 289 288 288 287 287 288 289 289 289 291 291 291 290 291 293 295 296 296 297 298 297 298 300 302 304 306 307 307 309 310 312 313 315 315 314
287 287 287 287 287 287 287 288 288 288 287 287 287 288 288 289 289 290 291 290 290 290 291 291 292 295 294 294 295 296 297 298 300 303 305 303 307 307 308 309 309 312 313
287 287 287 286 286 286 287 287 287 287 286 287 287 287 288 289 289 290 290 290 289 289 289 290 291 291 291 292 293 294 296 296 298 301 303 304 304 304 305 306 307 306 309
286 286 286 286 286 286 286 286 287 287 286 286 286 287 287 288 289 290 290 289 289 289 289 289 290 289 288 289 291 293 295 295 295 298 301 301 301 302 298 301 304 305 305

GFSMA_925_thetae_111.txt.gz
Theta_e
335 334 337 338 339 339 339 338 338 336 335 335 333 333 332 329 332 331 326 331 330 330 329 329 334 335 333 332 332 331 330 329 329 327 326 325 323 319 318 319 320 322 322
333 333 330 332 336 335 337 338 338 338 337 336 335 335 334 333 329 332 329 330 330 330 329 329 326 335 336 335 333 332 330 330 330 330 329 328 327 323 319 319 318 322 325
332 331 330 331 331 333 333 333 333 335 336 336 335 336 335 335 333 329 330 329 329 329 329 329 327 324 332 336 335 334 331 330 328 329 330 330 329 327 322 318 316 316 317
332 331 331 332 331 331 330 330 331 333 334 334 335 335 335 335 334 333 328 329 328 327 327 327 327 326 324 331 336 336 334 332 330 329 330 330 330 329 326 319 318 316 316
332 332 332 331 330 329 328 329 330 330 331 332 333 333 333 333 333 334 333 329 328 326 326 326 326 325 324 324 332 335 335 334 332 330 329 329 329 329 328 324 318 317 316
330 331 331 330 329 328 328 328 329 330 330 330 330 329 328 329 331 333 333 332 328 326 324 324 323 324 324 323 323 326 334 334 333 329 330 329 329 330 329 326 321 317 316
329 329 328 328 328 328 328 328 328 328 329 330 331 330 330 330 331 331 332 333 332 331 327 326 327 322 323 323 323 323 324 330 332 331 329 328 329 329 330 328 324 320 319
326 326 326 327 327 327 327 327 327 327 328 328 329 329 329 326 328 328 329 331 331 330 328 328 323 321 323 322 323 324 324 324 330 330 328 326 327 327 330 330 327 325 323
319 321 322 322 323 323 322 321 322 324 326 326 327 328 326 327 323 328 329 330 330 329 328 326 326 325 321 322 321 322 323 325 325 326 328 327 327 327 328 331 329 326 325
315 316 317 318 317 316 316 316 316 317 318 323 325 325 326 326 326 327 326 328 328 328 327 326 324 323 322 321 321 320 321 324 325 327 327 328 328 328 328 332 331 328 326
311 310 312 313 313 311 311 310 311 313 313 313 321 324 325 325 326 326 327 326 327 327 327 327 325 323 321 321 322 322 322 322 322 324 324 327 331 332 333 332 331 329 326
302 303 306 306 306 307 307 308 308 308 310 309 308 311 322 324 324 326 327 326 326 326 326 326 326 324 323 321 321 323 323 322 321 324 326 326 328 328 330 331 331 330 328
296 295 296 297 297 297 297 300 303 305 305 305 305 306 308 310 315 324 325 325 326 325 325 326 325 324 322 321 321 321 321 321 322 325 326 330 329 327 326 326 328 330 329
294 294 294 294 295 296 296 297 297 297 300 302 302 302 303 305 307 310 312 322 326 325 324 324 325 324 323 321 322 321 322 324 324 323 324 324 325 325 325 325 325 325 326
293 293 293 293 293 293 295 295 296 297 297 297 298 299 301 300 302 306 305 309 312 322 322 321 321 323 323 324 325 325 325 323 321 321 322 322 323 324 324 323 324 324 325
293 292 292 292 291 292 292 293 293 295 295 296 297 297 297 299 300 301 300 304 307 310 317 317 320 320 321 321 321 320 320 320 321 321 320 321 321 322 322 322 322 323 323
292 291 291 290 290 290 290 291 289 290 292 293 294 293 294 295 297 295 296 301 303 306 309 309 310 310 317 320 320 320 320 319 319 320 320 322 321 322 322 321 321 322 322
291 290 290 290 290 289 289 290 289 287 288 290 291 292 292 293 294 293 295 297 298 301 304 306 307 308 309 311 313 317 320 320 320 320 321 321 321 320 320 320 320 321 323
290 290 289 289 289 289 288 289 289 288 287 287 288 290 291 292 292 291 295 294 296 296 298 301 304 304 307 308 308 309 311 313 314 315 315 316 317 318 318 319 319 320 320
289 289 289 289 289 288 288 289 289 289 288 287 286 287 289 290 290 291 293 293 295 295 295 297 299 301 302 303 305 306 307 308 309 310 311 312 313 314 316 317 318 319 319
288 288 288 288 288 288 288 289 290 289 288 288 287 287 287 288 289 292 292 292 292 292 293 295 296 297 299 299 302 302 304 304 306 308 309 310 311 311 314 316 317 317 317
287 287 287 287 287 287 288 289 289 289 288 288 286 286 287 288 289 290 291 292 291 291 291 292 294 295 295 297 296 296 298 300 302 305 305 305 306 308 311 313 315 317 318
287 287 287 287 286 286 287 288 289 288 288 286 286 286 287 287 288 288 289 290 290 290 290 291 291 292 294 295 294 295 295 296 298 299 299 302 304 306 308 310 313 315 315
286 286 286 286 285 286 286 287 288 287 287 286 286 286 286 287 287 289 290 290 290 289 289 289 290 291 291 291 291 292 292 294 294 295 297 301 303 304 306 308 309 312 314
285 286 285 285 285 285 285 286 287 287 287 286 286 286 286 286 287 288 289 289 289 289 289 289 289 290 290 289 289 289 290 292 292 293 295 298 301 303 304 305 306 308 309
285 285 285 285 284 284 284 286 287 287 286 286 286 286 286 286 286 287 288 288 288 289 288 288 288 289 289 288 287 289 290 291 291 292 295 296 299 300 298 303 305 306 307

GFSMA_925_thetae_114.txt.gz
Theta_e
336 336 337 337 338 338 338 339 338 337 337 336 336 335 334 333 332 330 330 329 325 330 330 331 335 335 333 332 332 331 330 329 328 328 327 325 325 322 321 321 321 321 322
335 333 334 334 335 338 337 337 338 336 337 336 335 335 334 334 334 331 328 329 331 327 330 329 330 333 335 333 333 332 330 330 330 330 330 329 327 326 323 324 321 323 325
334 333 331 332 330 333 334 335 335 333 334 334 334 334 334 334 335 334 333 331 330 329 330 330 329 329 329 334 335 334 331 330 329 329 329 329 329 329 327 324 322 317 321
327 332 331 330 330 332 332 332 331 331 332 333 333 333 334 334 334 334 334 333 333 330 329 330 330 329 328 329 334 335 335 332 330 329 328 327 329 329 329 327 324 318 317
326 331 331 331 331 331 330 330 329 329 330 330 330 330 330 331 331 331 331 332 333 329 329 328 328 329 328 327 326 330 334 335 334 332 330 329 329 330 330 328 325 322 318
325 328 330 330 329 328 328 327 328 328 329 330 330 330 329 329 328 327 327 327 330 332 331 329 328 327 327 327 326 325 328 334 334 334 332 330 329 328 329 330 328 325 321
324 326 328 328 327 327 326 327 327 327 327 327 327 328 328 328 327 327 327 327 328 328 332 331 329 326 325 326 326 325 324 330 333 334 334 332 330 329 329 330 330 327 324
321 323 322 323 323 322 323 323 322 323 324 325 326 326 325 324 324 324 325 326 326 327 329 331 329 326 325 324 324 324 324 323 330 332 332 329 328 330 328 330 332 329 326
316 317 316 317 317 316 315 316 317 317 318 319 321 324 325 322 320 324 325 327 328 328 329 329 329 328 327 325 325 327 324 322 323 325 332 333 328 327 326 328 331 331 328
312 311 312 314 315 316 316 311 312 311 313 315 316 319 321 323 324 324 322 323 325 326 327 329 328 327 326 323 322 323 322 322 323 323 324 331 332 330 327 327 330 331 330
305 310 306 306 306 308 309 310 309 308 308 309 309 310 312 315 321 323 325 323 323 324 325 326 327 327 327 326 324 322 322 323 324 322 322 324 332 331 331 331 330 330 331
295 297 297 297 297 297 298 300 302 304 305 305 305 306 308 310 309 311 315 318 322 323 324 325 326 326 326 326 326 323 322 322 322 321 321 324 325 328 331 330 331 331 331
294 294 294 294 295 295 296 296 296 296 297 299 301 302 303 304 304 307 308 309 310 315 323 325 325 325 325 325 325 325 321 321 322 322 323 324 322 323 327 327 330 331 331
293 293 293 293 293 293 294 295 296 296 296 296 296 296 299 301 300 304 304 304 308 311 320 324 324 325 325 325 325 324 322 323 325 322 323 324 324 322 325 325 327 328 329
292 292 292 291 291 291 291 291 291 293 293 294 297 295 297 297 299 298 296 299 305 308 310 314 319 312 311 321 322 322 321 322 322 323 322 324 324 323 323 323 324 324 325
291 290 290 290 290 289 289 290 289 288 288 290 292 293 293 294 297 295 295 299 297 301 307 307 309 307 307 310 315 321 322 322 322 322 323 323 322 323 323 323 323 323 324
290 290 289 289 289 289 288 289 288 288 287 287 287 289 290 292 293 292 292 296 296 299 300 300 301 303 305 305 308 310 316 320 320 320 322 322 322 321 320 321 322 322 322
289 289 289 289 289 288 288 289 289 289 288 287 286 286 287 290 290 290 292 294 294 295 296 297 297 299 299 305 304 306 308 311 314 317 319 320 320 320 320 321 321 321 321
288 289 288 288 288 288 288 288 289 289 289 288 287 286 287 288 288 289 292 292 293 294 294 295 296 297 298 300 300 303 305 306 307 309 312 313 315 318 320 321 321 321 320
288 288 288 288 287 287 287 289 289 289 289 288 287 286 286 287 288 290 291 291 292 291 291 292 293 295 295 295 298 300 299 299 302 306 309 309 310 311 312 314 314 316 318
287 287 287 287 286 286 287 289 289 289 288 288 286 286 286 287 288 289 290 290 291 291 290 290 291 292 293 294 295 295 295 295 298 303 302 304 305 307 307 310 312 314 315
286 286 286 286 286 285 287 289 289 288 288 287 286 286 286 286 287 287 289 290 291 291 290 289 290 290 291 293 293 293 293 294 296 299 297 298 299 303 305 307 308 311 313
286 286 285 285 285 285 287 288 288 288 287 286 286 286 286 286 286 286 288 289 289 290 290 289 289 289 290 290 290 290 290 291 292 292 292 294 297 298 302 303 305 307 310
285 285 285 285 285 285 286 286 287 287 286 286 286 286 286 286 286 287 288 288 288 288 288 289 289 289 289 290 290 289 288 289 290 290 291 295 296 298 299 301 303 305 307
285 285 285 284 284 284 284 286 287 286 286 286 285 286 286 285 285 287 287 287 287 287 286 287 288 289 289 289 289 288 287 288 289 289 290 291 293 295 296 297 300 303 305
285 285 284 284 283 283 283 285 286 285 285 285 285 284 284 285 285 286 287 287 286 286 287 288 288 288 288 288 287 287 286 288 288 288 292 290 293 294 296 300 301 303 304

GFSMA_925_thetae_117.txt.gz
Theta_e
331 336 336 335 336 337 337 338 337 337 337 336 337 336 335 335 334 333 332 331 326 325 325 332 334 337 336 334 332 332 330 330 330 329 328 326 324 323 323 323 324 325 325
323 325 334 334 333 334 335 335 336 336 336 335 336 336 336 335 334 333 333 333 329 330 330 326 330 332 336 336 334 333 331 330 330 330 330 329 328 326 326 325 324 324 325
322 322 324 332 333 331 333 334 335 337 336 335 335 334 334 333 334 333 334 334 334 332 329 330 328 330 332 334 336 335 332 331 330 329 328 329 329 329 329 328 325 323 325
313 317 322 327 331 330 330 331 333 333 332 332 332 332 333 333 333 333 334 333 333 333 332 332 331 329 330 331 332 334 334 333 333 330 328 328 328 328 328 328 328 326 323
314 324 326 327 330 330 330 330 330 330 330 330 330 330 330 330 329 329 329 328 328 328 329 331 332 330 329 330 330 330 332 333 334 334 331 329 327 327 328 329 329 328 326
321 322 324 326 328 328 328 329 328 327 328 329 329 329 328 328 328 327 327 326 325 324 324 326 330 331 329 329 329 329 329 330 332 334 334 333 331 329 328 329 330 330 328
319 320 320 322 324 325 325 325 325 325 326 326 326 326 326 325 323 323 323 324 323 322 323 324 326 328 330 330 329 328 328 327 330 332 333 334 333 333 331 329 328 329 330
316 318 318 318 319 319 319 317 319 319 323 323 323 322 320 320 321 323 323 324 324 325 326 326 326 326 327 329 330 329 327 327 328 328 328 331 333 332 333 331 330 330 330
311 312 314 314 315 316 315 313 313 315 314 316 317 320 323 319 319 321 321 322 323 322 322 324 325 327 327 327 327 328 329 327 326 326 327 330 331 329 331 332 331 330 329
307 305 305 308 309 308 309 310 309 309 312 310 312 313 312 314 317 318 319 320 321 321 322 323 323 324 326 327 326 325 325 327 328 327 327 328 329 332 332 331 330 329 329
297 299 297 297 297 298 301 303 304 305 306 307 306 307 308 310 311 310 315 312 311 314 317 322 324 323 324 324 325 326 326 325 325 326 326 327 327 327 331 332 331 330 329
293 293 294 294 295 295 296 296 296 297 298 301 301 303 303 307 307 307 308 307 308 309 308 313 318 322 323 323 324 324 325 326 325 324 325 327 327 326 328 330 331 331 330
292 292 292 292 292 293 294 294 296 295 296 296 297 297 298 302 300 302 306 304 305 305 310 310 318 319 312 313 318 324 325 325 325 323 324 325 326 327 328 326 328 332 331
292 291 291 290 290 290 291 290 292 291 293 294 296 294 295 297 298 300 297 299 302 306 307 308 309 309 305 304 308 311 320 324 324 324 322 323 325 326 326 325 323 326 330
291 290 290 289 289 289 289 289 289 288 288 289 292 292 292 294 296 295 293 296 300 301 302 306 304 302 300 303 302 306 308 312 320 322 322 321 322 323 323 326 324 324 323
290 289 289 289 289 288 288 288 288 288 287 286 286 287 289 291 293 292 291 295 295 297 299 299 297 297 296 297 300 302 304 308 314 319 321 321 321 322 323 324 324 323 323
289 289 288 288 288 288 288 288 288 289 288 287 287 286 286 289 289 289 290 294 294 294 295 295 294 294 295 296 297 299 303 305 307 309 313 318 321 322 322 324 324 322 322
288 288 288 288 288 288 288 288 289 289 289 288 288 286 286 286 287 288 290 292 291 293 294 293 292 293 293 294 294 296 300 301 302 303 307 310 316 319 323 322 321 321 323
288 288 287 287 287 287 287 288 289 289 289 288 287 286 286 286 287 289 289 290 290 292 291 290 290 290 292 292 293 295 294 294 295 300 306 308 309 310 313 317 319 320 321
287 287 287 287 286 286 286 288 289 289 288 288 286 286 286 286 287 288 289 290 290 291 290 290 289 290 291 291 293 293 293 293 293 299 302 301 303 305 307 309 312 314 316
286 286 286 286 286 285 286 289 289 288 288 287 286 286 286 286 286 287 288 289 290 290 290 290 289 289 289 290 291 291 291 291 290 298 293 292 292 295 301 304 306 308 310
286 286 285 285 285 285 286 288 289 288 287 286 286 286 286 286 286 286 288 288 289 289 290 289 289 288 288 289 289 290 289 289 289 290 289 290 290 293 292 298 303 304 306
286 285 285 285 285 284 286 287 287 287 286 286 286 286 286 286 285 285 287 287 287 287 288 288 288 288 288 289 289 289 289 288 288 288 289 290 291 294 295 296 298 302 303
285 285 285 285 284 284 285 286 287 287 286 286 285 285 285 285 285 286 287 287 287 286 286 287 287 287 288 289 289 289 289 287 287 288 288 289 289 290 294 295 295 299 301
285 285 284 284 284 283 283 285 286 286 285 285 285 285 285 284 284 286 286 286 286 286 286 286 287 287 288 288 288 289 288 286 286 287 287 289 291 290 291 297 298 299 300
285 284 284 283 283 283 283 284 285 285 285 284 284 285 284 284 285 286 286 286 286 286 285 286 286 286 285 285 285 286 287 285 285 285 289 288 287 287 288 291 293 292 293